[[{"header":{"parameterUnit":"m.s-1","parameterCategory":1,"la1":31.0,"la2":29.5877,"lo1":-88.7671,"lo2":-86.6584,"dy":0.0162,"dx":0.0185,"nx":115,"ny":88,"refTime":"2023-06-01T18:00:00:Z","depth":0,"parameterNumber":2,"parameterNumberName":"U-component_of_WINDS"},"data":[0.0,0.0,0.0,0.0,0.0,0.0,0.0,0.0,0.0,0.0,0.0,0.0,0.0,0.0,0.0,0.0,0.0,0.0,0.0,0.0,0.0,0.0,0.0,0.0,0.0,0.0,0.0,0.0,0.0,0.0,0.0,0.0,0.0,0.0,0.0,0.0,0.0,0.0,0.0,0.0,0.0,0.0,0.0,0.0,0.0,0.0,0.0,0.0,0.0,0.0,0.0,0.0,0.0,0.0,0.0,0.0,0.0,0.0,0.0,0.0,0.0,0.0,0.0,0.0,0.0,0.0,0.0,0.0,0.0,0.0,0.0,0.0,0.0,0.0,0.0,0.0,0.0,0.0,0.0,0.0,0.0,0.0,0.0,0.0,0.0,0.0,0.0,0.0,0.0,0.0,0.0,0.0,0.0,0.0,0.0,0.0,0.0,0.0,0.0,0.0,0.0,0.0,0.0,0.0,0.0,0.0,0.0,0.0,0.0,0.0,0.0,0.0,0.0,0.0,0.0,0.0,0.0,0.0,0.0,0.0,0.0,0.0,0.0,0.0,0.0,0.0,0.0,0.0,0.0,0.0,0.0,0.0,0.0,0.0,0.0,0.0,0.0,0.0,0.0,0.0,0.0,0.0,0.0,0.0,0.0,0.0,0.0,0.0,0.0,0.0,0.0,0.0,0.0,0.0,0.0,0.0,0.0,0.0,0.0,0.0,0.0,0.0,0.0,0.0,0.0,0.0,0.0,0.0,0.0,0.0,0.0,0.0,0.0,0.0,0.0,0.0,0.0,0.0,0.0,0.0,0.0,0.0,0.0,0.0,0.0,0.0,0.0,0.0,0.0,0.0,0.0,0.0,0.0,0.0,0.0,0.0,0.0,0.0,0.0,0.0,0.0,0.0,0.0,0.0,0.0,0.0,0.0,0.0,0.0,0.0,0.0,0.0,0.0,0.0,0.0,0.0,0.0,0.0,0.0,0.0,0.0,0.0,0.0,0.0,0.0,0.0,0.0,0.0,0.0,0.0,0.0,0.0,0.0,0.0,0.0,0.0,0.0,0.0,0.0,0.0,0.0,0.0,0.0,0.0,0.0,0.0,0.0,0.0,0.0,0.0,0.0,0.0,0.0,0.0,0.0,0.0,0.0,0.0,0.0,0.0,0.0,0.0,0.0,0.0,0.0,0.0,0.0,0.0,0.0,0.0,0.0,0.0,0.0,0.0,0.0,0.0,0.0,0.0,0.0,0.0,0.0,0.0,0.0,0.0,0.0,0.0,0.0,0.0,0.0,0.0,0.0,0.0,0.0,0.0,0.0,0.0,0.0,0.0,0.0,0.0,0.0,0.0,0.0,0.0,0.0,0.0,0.0,0.0,0.0,0.0,0.0,0.0,0.0,0.0,0.0,0.0,0.0,0.0,0.0,0.0,0.0,0.0,0.0,0.0,0.0,0.0,0.0,0.0,0.0,0.0,0.0,0.0,0.0,0.0,0.0,0.0,0.0,0.0,0.0,0.0,0.0,0.0,0.0,0.0,0.0,0.0,0.0,0.0,0.0,0.0,0.0,0.0,0.0,0.0,0.0,0.0,0.0,0.0,0.0,0.0,0.0,0.0,0.0,0.0,0.0,0.0,0.0,0.0,0.0,0.0,0.0,0.0,0.0,0.0,0.0,0.0,0.0,0.0,0.0,0.0,0.0,0.0,0.0,0.0,0.0,0.0,0.0,0.0,0.0,0.0,0.0,0.0,0.0,0.0,0.0,0.0,0.0,0.0,0.0,0.0,0.0,0.0,0.0,0.0,0.0,0.0,0.0,0.0,0.0,0.0,0.0,0.0,0.0,0.0,0.0,0.0,0.0,0.0,0.0,0.0,0.0,0.0,0.0,0.0,0.0,0.0,0.0,0.0,0.0,0.0,0.0,0.0,0.0,0.0,0.0,0.0,0.0,0.0,0.0,0.0,0.0,0.0,0.0,0.0,0.0,0.0,0.0,0.0,0.0,0.0,0.0,0.0,0.0,0.0,0.0,0.0,0.0,0.0,0.0,0.0,0.0,0.0,0.0,0.0,0.0,0.0,0.0,0.0,0.0,0.0,0.0,0.0,0.0,0.0,0.0,0.0,0.0,0.0,0.0,0.0,0.0,0.0,0.0,0.0,0.0,0.0,0.0,0.0,0.0,0.0,0.0,0.0,0.0,0.0,0.0,0.0,0.0,0.0,0.0,0.0,0.0,0.0,0.0,0.0,0.0,0.0,0.0,0.0,0.0,0.0,0.0,0.0,0.0,0.0,0.0,0.0,0.0,0.0,0.0,0.0,0.0,0.0,0.0,0.0,0.0,0.0,0.0,0.0,0.0,0.0,0.0,0.0,0.0,0.0,0.0,0.0,0.0,0.0,0.0,0.0,0.0,0.0,0.0,0.0,0.0,0.0,0.0,0.0,0.0,0.0,0.0,0.0,0.0,0.0,0.0,0.0,0.0,0.0,0.0,0.0,0.0,0.0,0.0,0.0,0.0,0.0,0.0,0.0,0.0,0.0,0.0,0.0,0.0,0.0,0.0,0.0,0.0,0.0,0.0,0.0,0.0,0.0,0.0,0.0,0.0,0.0,0.0,0.0,0.0,0.0,0.0,0.0,0.0,0.0,0.0,0.0,0.0,0.0,0.0,0.0,0.0,0.0,0.0,0.0,0.0,0.0,0.0,0.0,0.0,0.0,0.0,0.0,0.0,0.0,0.0,0.0,0.0,0.0,0.0,0.0,0.0,0.0,0.0,0.0,0.0,0.0,0.0,0.0,0.0,0.0,0.0,0.0,0.0,0.0,0.0,0.0,0.0,0.0,0.0,0.0,0.0,0.0,0.0,0.0,0.0,0.0,0.0,0.0,0.0,0.0,0.0,0.0,0.0,0.0,0.0,0.0,0.0,0.0,0.0,0.0,0.0,0.0,0.0,0.0,0.0,0.0,0.0,0.0,0.0,0.0,0.0,0.0,0.0,0.0,0.0,0.0,0.0,0.0,0.0,0.0,0.0,0.0,0.0,0.0,0.0,0.0,0.0,0.0,0.0,0.0,0.0,0.0,0.0,0.0,0.0,0.0,0.0,0.0,0.0,0.0,0.0,0.0,0.0,0.0,0.0,0.0,0.0,0.0,0.0,0.0,0.0,0.0,0.0,0.0,0.0,0.0,0.0,0.0,0.0,0.0,0.0,0.0,0.0,0.0,0.0,0.0,0.0,0.0,0.0,0.0,0.0,0.0,0.0,0.0,0.0,0.0,0.0,0.0,0.0,0.0,0.0,0.0,0.0,0.0,0.0,0.0,0.0,0.0,0.0,0.0,0.0,0.0,0.0,0.0,0.0,0.0,0.0,0.0,0.0,0.0,0.0,0.0,0.0,0.0,0.0,0.0,0.0,0.0,0.0,0.0,0.0,0.0,0.0,0.0,0.0,0.0,0.0,0.0,0.0,0.0,0.0,0.0,0.0,0.0,0.0,0.0,0.0,0.0,0.0,0.0,0.0,0.0,0.0,0.0,0.0,0.0,0.0,0.0,0.0,0.0,0.0,0.0,0.0,0.0,0.0,0.0,0.0,0.0,0.0,0.0,0.0,0.0,0.0,0.0,0.0,0.0,0.0,0.0,0.0,0.0,0.0,0.0,0.0,0.0,0.0,0.0,0.0,0.0,0.0,0.0,0.0,0.0,0.0,0.0,0.0,0.0,0.0,0.0,0.0,0.0,0.0,0.0,0.0,0.0,0.0,0.0,0.0,0.0,0.0,0.0,0.0,0.0,0.0,0.0,0.0,0.0,0.0,0.0,0.0,0.0,0.0,0.0,0.0,0.0,0.0,0.0,0.0,0.0,0.0,0.0,0.0,0.0,0.0,0.0,0.0,0.0,0.0,0.0,0.0,0.0,0.0,0.0,0.0,0.0,0.0,0.0,0.0,0.0,0.0,0.0,0.0,0.0,0.0,0.0,0.0,0.0,0.0,0.0,0.0,0.0,0.0,0.0,0.0,0.0,0.0,0.0,0.0,0.0,0.0,0.0,0.0,0.0,0.0,0.0,0.0,0.0,0.0,0.0,0.0,0.0,0.0,0.0,0.0,0.0,0.0,0.0,0.0,0.0,0.0,0.0,0.0,0.0,0.0,0.0,0.0,0.0,0.0,0.0,0.0,0.0,0.0,0.0,0.0,0.0,0.0,0.0,0.0,0.0,0.0,0.0,0.0,0.0,0.0,0.0,0.0,0.0,0.0,0.0,0.0,0.0,0.0,0.0,0.0,0.0,0.0,0.0,-2.5019,0.0,0.0,0.0,0.0,0.0,0.0,0.0,0.0,0.0,0.0,0.0,0.0,0.0,0.0,0.0,0.0,0.0,0.0,0.0,0.0,0.0,0.0,0.0,0.0,0.0,0.0,0.0,0.0,0.0,0.0,0.0,0.0,0.0,0.0,0.0,0.0,0.0,0.0,0.0,0.0,0.0,0.0,0.0,0.0,0.0,0.0,0.0,0.0,0.0,0.0,0.0,0.0,0.0,0.0,0.0,0.0,0.0,0.0,0.0,0.0,0.0,0.0,0.0,0.0,0.0,0.0,0.0,0.0,0.0,0.0,0.0,0.0,0.0,0.0,0.0,0.0,0.0,0.0,0.0,0.0,0.0,0.0,0.0,0.0,0.0,0.0,0.0,0.0,0.0,0.0,0.0,0.0,0.0,0.0,0.0,0.0,0.0,0.0,0.0,0.0,0.0,0.0,0.0,0.0,0.0,0.0,0.0,0.0,0.0,0.0,-2.4408,-2.4613,-2.4689,-2.4813,-2.494,0.0,0.0,0.0,0.0,0.0,0.0,0.0,0.0,0.0,0.0,0.0,0.0,0.0,0.0,0.0,0.0,0.0,0.0,0.0,0.0,0.0,0.0,0.0,0.0,0.0,0.0,0.0,0.0,0.0,0.0,0.0,0.0,0.0,0.0,0.0,0.0,0.0,0.0,0.0,0.0,0.0,0.0,0.0,0.0,0.0,0.0,0.0,0.0,0.0,0.0,0.0,0.0,0.0,0.0,0.0,0.0,0.0,0.0,0.0,0.0,0.0,0.0,0.0,0.0,0.0,0.0,0.0,0.0,0.0,0.0,0.0,0.0,0.0,0.0,0.0,0.0,0.0,0.0,0.0,0.0,0.0,0.0,0.0,0.0,0.0,0.0,0.0,0.0,0.0,0.0,0.0,0.0,0.0,0.0,0.0,0.0,0.0,0.0,0.0,0.0,0.0,0.0,0.0,0.0,0.0,0.0,0.0,0.0,0.0,0.0,0.0,0.0,-2.4629,-2.4738,-2.487,0.0,0.0,0.0,0.0,0.0,0.0,0.0,0.0,0.0,0.0,0.0,0.0,0.0,0.0,0.0,0.0,0.0,0.0,0.0,0.0,0.0,0.0,0.0,0.0,0.0,0.0,0.0,0.0,0.0,0.0,0.0,0.0,0.0,0.0,0.0,0.0,0.0,0.0,0.0,0.0,0.0,0.0,0.0,0.0,0.0,0.0,0.0,0.0,0.0,0.0,0.0,0.0,0.0,0.0,0.0,0.0,0.0,0.0,0.0,0.0,0.0,0.0,0.0,0.0,0.0,0.0,0.0,0.0,0.0,0.0,0.0,0.0,0.0,0.0,0.0,0.0,0.0,0.0,0.0,0.0,0.0,0.0,0.0,0.0,0.0,0.0,0.0,0.0,0.0,0.0,0.0,0.0,0.0,0.0,0.0,0.0,0.0,0.0,0.0,0.0,0.0,0.0,0.0,0.0,0.0,0.0,0.0,0.0,0.0,0.0,-2.421,-2.4425,-2.4547,0.0,-2.4794,0.0,0.0,0.0,0.0,0.0,0.0,0.0,0.0,0.0,0.0,0.0,0.0,0.0,0.0,0.0,0.0,0.0,0.0,0.0,0.0,0.0,0.0,0.0,0.0,0.0,0.0,0.0,0.0,0.0,0.0,0.0,0.0,0.0,0.0,0.0,0.0,0.0,0.0,0.0,0.0,0.0,0.0,0.0,0.0,0.0,0.0,0.0,0.0,0.0,0.0,0.0,0.0,0.0,0.0,0.0,0.0,0.0,0.0,0.0,0.0,0.0,0.0,0.0,0.0,0.0,0.0,0.0,0.0,0.0,0.0,0.0,0.0,0.0,0.0,0.0,0.0,0.0,0.0,0.0,0.0,0.0,0.0,0.0,0.0,0.0,0.0,0.0,0.0,0.0,0.0,0.0,0.0,0.0,0.0,0.0,0.0,0.0,0.0,0.0,0.0,0.0,0.0,0.0,0.0,0.0,0.0,0.0,0.0,0.0,0.0,-2.421,-2.4371,-2.4561,-2.4711,0.0,0.0,0.0,0.0,0.0,0.0,0.0,0.0,0.0,0.0,0.0,0.0,0.0,0.0,0.0,0.0,0.0,0.0,0.0,0.0,0.0,0.0,0.0,0.0,0.0,0.0,0.0,0.0,0.0,0.0,0.0,0.0,0.0,0.0,0.0,0.0,0.0,0.0,0.0,0.0,0.0,0.0,0.0,0.0,0.0,0.0,0.0,0.0,0.0,0.0,0.0,0.0,0.0,0.0,0.0,0.0,0.0,0.0,0.0,0.0,0.0,0.0,0.0,0.0,0.0,0.0,0.0,0.0,0.0,0.0,0.0,0.0,0.0,0.0,0.0,0.0,0.0,0.0,0.0,0.0,0.0,0.0,0.0,0.0,0.0,0.0,0.0,0.0,0.0,0.0,0.0,0.0,0.0,0.0,0.0,0.0,0.0,0.0,0.0,0.0,0.0,0.0,0.0,0.0,0.0,0.0,0.0,0.0,0.0,0.0,-2.384,-2.421,-2.4476,-2.4642,-2.4753,-2.4802,0.0,0.0,0.0,0.0,0.0,0.0,0.0,0.0,0.0,0.0,0.0,0.0,0.0,0.0,0.0,0.0,0.0,0.0,0.0,0.0,0.0,0.0,0.0,0.0,0.0,0.0,0.0,0.0,0.0,0.0,0.0,0.0,0.0,0.0,0.0,0.0,0.0,0.0,0.0,0.0,0.0,0.0,0.0,0.0,0.0,0.0,0.0,0.0,0.0,0.0,0.0,0.0,0.0,0.0,0.0,0.0,0.0,0.0,0.0,0.0,0.0,0.0,0.0,0.0,0.0,0.0,0.0,0.0,0.0,0.0,0.0,0.0,0.0,0.0,0.0,0.0,0.0,0.0,0.0,0.0,0.0,0.0,0.0,0.0,0.0,0.0,0.0,0.0,0.0,0.0,0.0,0.0,0.0,0.0,0.0,0.0,0.0,0.0,0.0,0.0,0.0,0.0,0.0,0.0,0.0,0.0,0.0,0.0,-2.33,-2.378,-2.4229,-2.4676,-2.4749,-2.4813,0.0,0.0,0.0,0.0,0.0,0.0,0.0,0.0,0.0,0.0,0.0,0.0,0.0,0.0,0.0,0.0,0.0,0.0,0.0,0.0,0.0,0.0,0.0,0.0,0.0,0.0,0.0,0.0,0.0,0.0,0.0,0.0,0.0,0.0,0.0,0.0,0.0,0.0,0.0,0.0,0.0,0.0,0.0,0.0,0.0,0.0,0.0,0.0,0.0,0.0,0.0,0.0,0.0,0.0,0.0,0.0,0.0,0.0,0.0,0.0,0.0,0.0,0.0,0.0,0.0,0.0,0.0,0.0,0.0,0.0,0.0,0.0,0.0,0.0,0.0,0.0,0.0,0.0,0.0,0.0,0.0,0.0,0.0,0.0,0.0,0.0,0.0,0.0,0.0,0.0,0.0,0.0,0.0,0.0,0.0,0.0,0.0,0.0,0.0,0.0,0.0,0.0,0.0,0.0,0.0,0.0,0.0,0.0,0.0,-2.3229,-2.4081,-2.461,-2.4813,-2.4851,-2.4865,0.0,0.0,0.0,0.0,0.0,0.0,0.0,0.0,0.0,0.0,0.0,0.0,0.0,0.0,0.0,0.0,0.0,0.0,0.0,0.0,0.0,0.0,0.0,0.0,0.0,0.0,0.0,0.0,0.0,0.0,0.0,0.0,0.0,0.0,0.0,0.0,0.0,0.0,0.0,0.0,0.0,0.0,0.0,0.0,0.0,0.0,0.0,0.0,0.0,0.0,0.0,0.0,0.0,0.0,0.0,0.0,0.0,0.0,0.0,0.0,0.0,0.0,0.0,0.0,0.0,0.0,0.0,0.0,0.0,0.0,0.0,0.0,0.0,0.0,0.0,0.0,0.0,0.0,0.0,0.0,0.0,0.0,0.0,0.0,0.0,0.0,0.0,0.0,0.0,0.0,0.0,0.0,0.0,0.0,0.0,0.0,0.0,0.0,0.0,0.0,0.0,0.0,0.0,0.0,0.0,0.0,0.0,0.0,0.0,-2.3725,0.0,-2.4931,0.0,-2.4942,-2.4961,0.0,0.0,0.0,0.0,0.0,0.0,0.0,0.0,0.0,0.0,0.0,0.0,0.0,0.0,0.0,0.0,0.0,0.0,0.0,0.0,0.0,0.0,0.0,0.0,0.0,0.0,0.0,0.0,0.0,0.0,0.0,0.0,0.0,0.0,0.0,0.0,0.0,0.0,0.0,0.0,0.0,0.0,0.0,0.0,0.0,0.0,0.0,0.0,0.0,0.0,0.0,0.0,0.0,0.0,0.0,0.0,0.0,0.0,0.0,0.0,0.0,0.0,0.0,0.0,0.0,0.0,0.0,0.0,0.0,0.0,0.0,0.0,0.0,0.0,0.0,0.0,0.0,0.0,0.0,0.0,0.0,0.0,0.0,0.0,0.0,0.0,0.0,0.0,0.0,0.0,0.0,0.0,0.0,0.0,0.0,0.0,0.0,0.0,0.0,0.0,0.0,0.0,0.0,0.0,0.0,0.0,0.0,0.0,-2.2472,-2.4664,-2.4854,-2.4866,-2.5065,-2.5106,-2.5113,0.0,0.0,0.0,0.0,0.0,0.0,0.0,0.0,0.0,0.0,0.0,0.0,0.0,0.0,0.0,0.0,0.0,0.0,0.0,0.0,0.0,0.0,0.0,0.0,0.0,0.0,0.0,0.0,0.0,0.0,0.0,0.0,0.0,0.0,0.0,0.0,0.0,0.0,0.0,0.0,0.0,0.0,0.0,0.0,0.0,0.0,0.0,0.0,0.0,0.0,0.0,0.0,0.0,0.0,0.0,0.0,0.0,0.0,0.0,0.0,0.0,0.0,0.0,0.0,0.0,0.0,0.0,0.0,0.0,0.0,0.0,0.0,0.0,0.0,0.0,0.0,0.0,0.0,0.0,0.0,0.0,0.0,0.0,0.0,0.0,0.0,0.0,0.0,0.0,0.0,0.0,0.0,0.0,0.0,0.0,0.0,0.0,0.0,0.0,0.0,0.0,0.0,0.0,0.0,0.0,0.0,0.0,0.0,0.0,-2.1075,-2.0854,-2.2152,-2.507,-2.5222,-2.5209,0.0,0.0,0.0,0.0,0.0,0.0,0.0,0.0,0.0,0.0,0.0,0.0,0.0,0.0,0.0,0.0,0.0,0.0,0.0,0.0,0.0,0.0,0.0,0.0,0.0,0.0,0.0,0.0,0.0,0.0,0.0,0.0,0.0,0.0,0.0,0.0,0.0,0.0,0.0,0.0,0.0,0.0,0.0,0.0,0.0,0.0,0.0,0.0,0.0,0.0,0.0,0.0,0.0,0.0,0.0,0.0,0.0,0.0,0.0,0.0,0.0,0.0,0.0,0.0,0.0,0.0,0.0,0.0,0.0,0.0,0.0,0.0,0.0,0.0,0.0,0.0,0.0,0.0,0.0,0.0,0.0,0.0,0.0,0.0,0.0,0.0,0.0,0.0,0.0,0.0,0.0,0.0,0.0,0.0,0.0,0.0,0.0,0.0,0.0,0.0,0.0,0.0,0.0,0.0,0.0,0.0,0.0,0.0,0.0,-1.506,-1.9093,-2.1442,-2.1918,-2.4132,-2.4129,-2.1666,0.0,0.0,0.0,0.0,0.0,0.0,0.0,0.0,0.0,0.0,0.0,0.0,0.0,0.0,0.0,0.0,0.0,0.0,0.0,0.0,0.0,0.0,0.0,0.0,0.0,0.0,0.0,0.0,0.0,0.0,0.0,0.0,0.0,0.0,0.0,0.0,0.0,0.0,0.0,0.0,0.0,0.0,0.0,0.0,0.0,0.0,0.0,0.0,0.0,0.0,0.0,0.0,0.0,0.0,0.0,0.0,0.0,0.0,0.0,0.0,0.0,0.0,0.0,0.0,0.0,0.0,0.0,0.0,0.0,0.0,0.0,0.0,0.0,0.0,0.0,0.0,0.0,0.0,0.0,0.0,0.0,0.0,0.0,0.0,0.0,0.0,0.0,0.0,0.0,0.0,0.0,0.0,0.0,0.0,0.0,0.0,0.0,0.0,0.0,0.0,0.0,0.0,0.0,0.0,0.0,0.0,0.0,0.0,-0.7089,-1.8145,-2.1235,-1.6349,-2.1522,-2.162,0.0,0.0,0.0,0.0,0.0,0.0,0.0,0.0,0.0,0.0,0.0,0.0,0.0,0.0,0.0,0.0,0.0,0.0,0.0,0.0,0.0,0.0,0.0,0.0,0.0,0.0,0.0,0.0,0.0,0.0,0.0,0.0,0.0,0.0,0.0,0.0,0.0,0.0,0.0,0.0,0.0,0.0,0.0,0.0,0.0,0.0,0.0,0.0,0.0,0.0,0.0,0.0,0.0,0.0,0.0,0.0,0.0,0.0,0.0,0.0,0.0,0.0,0.0,0.0,0.0,0.0,0.0,0.0,0.0,0.0,0.0,0.0,0.0,0.0,0.0,0.0,0.0,0.0,0.0,0.0,0.0,0.0,0.0,0.0,0.0,0.0,0.0,0.0,0.0,0.0,0.0,0.0,0.0,0.0,0.0,0.0,0.0,0.0,0.0,0.0,0.0,0.0,0.0,0.0,0.0,0.0,0.0,0.0,0.0,-0.2622,-0.4189,-0.7534,-1.2572,-1.4139,-1.4043,0.0,0.0,0.0,0.0,0.0,0.0,0.0,0.0,0.0,0.0,0.0,0.0,0.0,0.0,0.0,0.0,0.0,0.0,0.0,0.0,0.0,0.0,0.0,0.0,0.0,0.0,0.0,0.0,0.0,0.0,0.0,0.0,0.0,0.0,0.0,0.0,0.0,0.0,0.0,0.0,0.0,0.0,0.0,0.0,0.0,0.0,0.0,0.0,0.0,0.0,0.0,0.0,0.0,0.0,0.0,0.0,0.0,0.0,0.0,0.0,0.0,0.0,0.0,0.0,0.0,0.0,0.0,0.0,0.0,0.0,0.0,0.0,0.0,0.0,0.0,0.0,0.0,0.0,0.0,0.0,0.0,0.0,0.0,0.0,0.0,0.0,0.0,0.0,0.0,0.0,0.0,0.0,0.0,0.0,0.0,0.0,0.0,0.0,0.0,0.0,0.0,0.0,0.0,0.0,0.0,0.0,0.0,0.0,-0.3347,-0.0558,0.1281,-0.0372,-0.5675,-0.9281,-0.9137,0.0,0.0,0.0,0.0,0.0,0.0,0.0,0.0,0.0,0.0,0.0,0.0,0.0,0.0,0.0,0.0,0.0,0.0,0.0,0.0,0.0,0.0,0.0,0.0,0.0,0.0,0.0,0.0,0.0,0.0,0.0,0.0,0.0,0.0,0.0,0.0,0.0,0.0,0.0,0.0,0.0,0.0,0.0,0.0,0.0,0.0,0.0,0.0,0.0,0.0,0.0,0.0,0.0,0.0,0.0,0.0,0.0,0.0,0.0,0.0,0.0,0.0,0.0,0.0,0.0,0.0,0.0,0.0,0.0,0.0,0.0,0.0,0.0,0.0,0.0,0.0,0.0,0.0,0.0,0.0,0.0,0.0,0.0,0.0,0.0,0.0,0.0,0.0,0.0,0.0,0.0,0.0,0.0,0.0,0.0,0.0,0.0,0.0,0.0,0.0,0.0,0.0,0.0,0.0,0.0,0.0,0.0,0.0,-0.2903,-0.0223,0.1345,0.2188,0.2,-0.5542,-0.5547,0.0,0.0,0.0,0.0,0.0,0.0,0.0,0.0,0.0,0.0,0.0,0.0,0.0,0.0,0.0,0.0,0.0,0.0,0.0,0.0,0.0,0.0,0.0,0.0,0.0,0.0,0.0,0.0,0.0,0.0,0.0,0.0,0.0,0.0,0.0,0.0,0.0,0.0,0.0,0.0,0.0,0.0,0.0,0.0,0.0,0.0,0.0,0.0,0.0,0.0,0.0,0.0,0.0,0.0,0.0,0.0,0.0,0.0,0.0,0.0,0.0,0.0,0.0,0.0,0.0,0.0,0.0,0.0,0.0,0.0,0.0,0.0,0.0,0.0,0.0,0.0,0.0,0.0,0.0,0.0,0.0,0.0,0.0,0.0,0.0,0.0,0.0,0.0,0.0,0.0,0.0,0.0,0.0,0.0,0.0,0.0,0.0,0.0,0.0,0.0,0.0,0.0,0.0,0.0,0.0,0.0,0.0,0.0,-0.1786,-0.0056,0.1399,0.2128,0.2184,0.0785,0.1026,0.0,0.0,0.0,0.0,0.0,0.0,0.0,0.0,0.0,0.0,0.0,0.0,0.0,0.0,0.0,0.0,0.0,0.0,0.0,0.0,0.0,0.0,0.0,0.0,0.0,0.0,0.0,0.0,0.0,0.0,0.0,0.0,0.0,0.0,0.0,0.0,0.0,0.0,0.0,0.0,0.0,0.0,0.0,0.0,0.0,0.0,0.0,0.0,0.4929,0.0,0.0,0.0,0.0,0.0,0.0,0.0,0.0,0.0,0.0,0.0,0.0,0.0,0.0,0.0,0.0,0.0,0.0,0.0,0.0,0.0,0.0,0.0,0.0,0.0,0.0,0.0,0.0,0.0,0.0,0.0,0.0,0.0,0.0,0.0,0.0,0.0,0.0,0.0,0.0,0.0,0.0,0.0,0.0,0.0,0.0,0.0,0.0,0.0,0.0,0.0,0.0,0.0,0.0,0.0,0.0,0.0,0.0,0.0,-0.1174,0.0112,0.14,0.2128,0.224,0.2745,0.3023,0.0,0.0,0.0,0.0,0.0,0.0,0.0,0.0,0.0,0.0,0.0,0.0,0.0,0.0,0.0,0.0,0.0,0.0,0.0,0.0,0.0,0.0,0.0,0.0,0.0,0.0,0.0,0.0,0.0,0.0,0.0,0.0,0.0,0.0,0.0,0.0,0.0,0.0,0.0,0.0,0.0,0.0,0.0,0.0,0.0,0.0,0.0,0.0,0.0,0.0,0.0,0.0,0.0,0.0,0.0,0.0,0.0,0.0,0.0,0.0,0.0,0.0,0.0,0.0,0.0,0.0,0.0,0.0,0.0,0.0,0.0,0.0,0.0,0.0,0.0,0.0,0.0,0.0,0.0,0.0,0.0,0.0,0.0,0.0,0.0,0.0,0.0,0.0,0.0,0.0,0.0,0.0,0.0,0.0,0.0,0.0,0.0,0.0,0.0,0.0,0.0,0.0,0.0,0.0,0.0,0.0,0.0,-0.2244,-0.09,0.0224,0.1456,0.2071,0.2184,0.2635,0.2914,0.3077,0.0,0.0,0.0,0.0,0.0,0.0,0.0,0.0,0.0,0.0,0.0,0.0,0.0,0.0,0.0,0.0,0.0,0.0,0.0,0.0,0.0,0.0,0.0,0.0,0.0,0.0,0.0,0.0,0.0,0.0,0.0,0.0,0.0,0.0,0.0,0.0,0.0,0.0,-1.986,-1.6812,0.0,0.0,0.0,0.0,0.0,0.0,0.0,0.0,0.0798,0.0,0.0,0.0,0.0,0.0,0.0,0.0,0.0,0.0,0.0,0.0,0.0,0.0,0.0,0.0,0.0,0.0,0.0,0.0,0.0,0.0,0.0,0.0,0.0,0.0,0.0,0.0,0.0,0.0,0.0,0.0,0.0,0.0,0.0,0.0,0.0,0.0,0.0,0.0,0.0,0.0,0.0,0.0,0.0,0.0,0.0,0.0,0.0,0.0,0.0,0.0,0.0,0.0,0.0,0.0,0.0,-0.307,-0.1894,-0.0748,0.0337,0.1343,0.1959,0.2184,0.2521,0.2858,0.3077,0.0,0.0,0.0,0.0,0.0,0.0,0.0,0.0,0.0,0.0,0.0,0.0,0.0,0.0,0.0,0.0,0.0,0.0,0.0,0.0,0.0,0.0,0.0,0.0,0.0,0.0,0.0,0.0,0.0,0.0,0.0,0.0,0.0,0.0,0.0,0.0,0.0,0.0,0.0,-1.3603,-0.9572,0.0,0.0,0.0,0.0,0.0,0.0,0.0,0.0,-0.4411,0.0,0.0,0.0,0.0,0.0,0.0,0.0,0.0,0.0,0.0,0.0,0.0,0.0,0.0,0.0,0.0,0.0,0.0,0.0,0.0,0.0,0.0,0.0,0.0,0.0,0.0,0.0,0.0,0.0,0.0,0.0,0.0,0.0,0.0,0.0,0.0,0.0,0.0,0.0,0.0,0.0,0.0,0.0,0.0,0.0,0.0,0.0,0.0,0.0,0.0,0.0,0.0,0.0,0.0,0.0,-0.293,-0.1689,-0.0583,0.0403,0.1299,0.1903,0.2184,0.2521,0.28,0.0,0.0,0.0,0.0,0.0,0.0,0.0,0.0,0.0,0.0,0.0,0.0,0.0,0.0,0.0,0.0,0.0,0.0,0.0,0.0,0.0,0.0,0.0,0.0,0.0,0.0,0.0,0.0,0.0,0.0,0.0,0.0,0.0,0.0,0.0,0.0,0.0,0.0,0.0,0.0,-1.1142,-0.7653,-0.0889,0.0,0.0,0.0,0.0,0.0,0.0,-0.9458,-0.9188,0.0,0.0,0.0,0.0,0.0,0.0,0.0,0.0,0.0,0.0,0.0,0.0,0.0,0.0,0.0,0.0,0.0,0.0,0.0,0.0,0.0,0.0,0.0,0.0,0.0,0.0,0.0,0.0,0.0,0.0,0.0,0.0,0.0,0.0,0.0,0.0,0.0,0.0,0.0,0.0,0.0,0.0,0.0,0.0,0.0,0.0,0.0,0.0,0.0,0.0,0.0,0.0,0.0,0.0,0.0,-0.2964,-0.155,-0.0417,0.0412,0.1319,0.1916,0.2184,0.2521,0.28,0.0,0.0,0.0,0.0,0.0,0.0,0.0,0.0,0.0,0.0,0.0,0.0,0.0,0.0,0.0,0.0,0.0,0.0,0.0,0.0,0.0,0.0,0.0,0.0,0.0,0.0,0.0,0.0,0.0,0.0,0.0,0.0,0.0,0.0,0.0,0.0,0.0,0.0,0.0,0.0,0.0,-0.5168,0.2074,0.4389,0.0,0.0,0.0,0.0,-1.1884,-1.4008,0.0,0.0,0.0,0.0,0.0,0.0,0.0,0.0,0.0,0.0,0.0,0.0,0.0,0.0,0.0,0.0,0.0,0.0,0.0,0.0,0.0,0.0,0.0,0.0,0.0,0.0,0.0,0.0,0.0,0.0,0.0,0.0,0.0,0.0,0.0,0.0,0.0,0.0,0.0,0.0,0.0,0.0,0.0,0.0,0.0,0.0,0.0,0.0,0.0,0.0,0.0,0.0,0.0,0.0,0.0,0.0,-0.3125,-0.1634,-0.0435,0.0532,0.1231,0.1787,0.2186,0.241,0.2687,0.0,0.0,0.0,0.0,0.0,0.0,0.0,0.0,0.0,0.0,0.0,0.0,0.0,0.0,0.0,0.0,0.0,0.0,0.0,0.0,0.0,0.0,0.0,0.0,0.0,0.0,0.0,0.0,0.0,0.0,0.0,0.0,0.0,0.0,0.0,0.0,0.0,0.0,0.0,0.0,0.0,-0.1603,0.0598,0.5631,0.5598,0.0,0.0,0.0,-1.9707,-2.0408,0.0,0.0,0.0,0.0,0.0,0.0,0.0,0.0,0.0,0.0,0.0,0.0,0.0,0.0,0.0,0.0,0.0,0.0,0.0,0.0,0.0,0.0,0.0,0.0,0.0,0.0,0.0,0.0,0.0,0.0,0.0,0.0,0.0,0.0,0.0,0.0,0.0,0.0,0.0,0.0,0.0,0.0,0.0,0.0,0.0,0.0,0.0,0.0,0.0,0.0,0.0,0.0,0.0,0.0,0.0,-0.3776,-0.322,-0.1598,-0.0316,0.0606,0.1306,0.1852,0.2186,0.2465,0.2745,0.0,0.0,0.0,0.0,0.0,0.0,0.0,0.0,0.0,0.0,0.0,0.0,0.0,0.0,0.0,0.0,0.0,0.0,0.0,0.0,0.0,0.0,0.0,0.0,0.0,0.0,0.0,0.0,0.0,0.0,0.0,0.0,0.0,0.0,0.0,0.0,0.0,0.0,0.0,0.0,0.0,0.0,0.4131,0.6756,0.0,0.0,0.0,-1.0816,-2.2167,0.0,0.0,0.0,0.0,0.0,0.0,0.0,0.0,0.0,0.0,0.0,0.0,0.0,0.0,0.0,0.0,0.0,0.0,0.0,0.0,0.0,0.0,0.0,0.0,0.0,0.0,0.0,0.0,0.0,0.0,0.0,0.0,0.0,0.0,0.0,0.0,0.0,0.0,0.0,0.0,0.0,0.0,0.0,0.0,0.0,0.0,0.0,0.0,0.0,0.0,0.0,0.0,0.0,0.0,0.0,0.0,0.0,-0.3253,-0.1496,-0.0128,0.0812,0.1452,0.1935,0.2214,0.2533,0.0,0.0,0.0,0.0,0.0,0.0,0.0,0.0,0.0,0.0,0.0,0.0,0.0,0.0,0.0,0.0,0.0,0.0,0.0,0.0,0.0,0.0,0.0,0.0,0.0,0.0,0.0,0.4853,0.0,0.0,0.0,0.0,0.0,0.0,0.0,0.0,0.0,0.0,0.0,0.0,0.0,0.0,0.6707,0.7031,0.7408,0.3824,0.0,0.0,-1.2305,-2.3127,-2.4587,-2.4188,0.0,0.0,0.0,0.0,0.0,0.0,0.0,0.0,0.0,0.0,0.0,0.0,0.0,0.0,0.0,0.0,0.0,0.0,0.0,0.0,0.0,0.0,0.0,0.0,0.0,0.0,0.0,0.0,0.0,0.0,0.0,0.0,0.0,0.0,0.0,0.0,0.0,0.0,0.0,0.0,0.0,0.0,0.0,0.0,0.0,0.0,0.0,0.0,0.0,0.0,0.0,0.0,0.0,0.0,0.0,-0.3147,-0.1406,0.0198,0.1477,0.1622,0.1876,0.2289,0.2563,0.2858,0.0,0.0,0.0,0.0,0.0,0.0,0.0,0.0,0.0,0.0,0.0,0.0,0.0,0.0,0.0,0.0,0.0,0.0,0.0,0.0,0.0,0.0,0.0,0.0,0.0,0.0,0.0,0.0,0.0,0.0,0.0,0.0,0.0,0.0,0.0,0.0,0.0,0.0,0.0,0.0,0.0,0.7085,0.7079,0.7354,0.3697,0.0,0.0,-1.2434,-2.3347,-2.5035,-2.5234,-2.5841,0.0,0.0,0.0,0.0,0.0,0.0,0.0,0.0,0.0,0.0,0.0,0.0,0.0,0.0,0.0,0.0,0.0,0.0,0.0,0.0,0.0,0.0,0.0,0.0,0.0,0.0,0.0,0.0,0.0,0.0,0.0,0.0,0.0,0.0,0.0,0.0,0.0,0.0,0.0,0.0,0.0,0.0,0.0,0.0,0.0,0.0,0.0,0.0,0.0,0.0,0.0,0.0,0.0,-0.3195,-0.2347,-0.094,0.0464,0.1806,0.1976,0.2228,0.2473,0.2731,0.2972,0.0,0.0,0.0,0.0,0.0,0.0,0.0,0.0,0.0,0.0,0.0,0.0,0.0,0.0,0.0,0.0,0.0,0.0,0.0,0.0,0.0,0.0,0.0,0.0,0.0,0.0,0.0,0.0,0.5732,0.5791,0.59,0.0,0.0,0.0,0.0,0.0,0.0,0.0,0.0,0.0,0.0,0.7354,0.7354,0.7413,0.0,0.0,-0.6449,-1.1208,-1.8693,-2.3064,-2.5608,-2.5745,-2.0396,0.0,0.0,0.0,0.0,0.0,0.0,0.0,0.0,0.0,0.0,0.0,0.0,0.0,0.0,0.0,0.0,0.0,0.0,0.0,0.0,0.0,0.0,0.0,0.0,0.0,0.0,0.0,0.0,0.0,0.0,0.0,0.0,0.0,0.0,0.0,0.0,0.0,0.0,0.0,0.0,0.0,0.0,0.0,0.0,0.0,0.0,0.0,0.0,0.0,0.0,0.0,0.0,-0.2827,-0.161,-0.0537,0.0666,0.2025,0.2202,0.2465,0.273,0.2968,0.3138,0.0,0.0,0.0,0.0,0.0,0.0,0.0,0.0,0.0,0.0,0.0,0.0,0.0,0.0,0.0,0.0,0.0,0.0,0.0,0.0,0.0,0.0,0.0,0.0,0.0,0.0,0.0,0.0,0.6059,0.6114,0.6218,0.0,0.0,0.0,0.0,0.0,0.0,0.0,0.0,0.0,0.0,0.7568,0.7568,0.7574,0.5696,0.0401,-0.495,-1.0353,-1.5962,-2.1777,-2.5745,-2.6019,0.0,0.0,0.0,0.0,0.0,0.0,0.0,0.0,0.0,0.0,0.0,0.0,0.0,0.0,0.0,0.0,0.0,0.0,0.0,0.0,0.0,0.0,0.0,0.0,0.0,0.0,0.0,0.0,0.0,0.0,0.0,0.0,0.0,0.0,0.0,0.0,0.0,0.0,0.0,0.0,0.0,0.0,0.0,0.0,0.0,0.0,0.0,0.0,0.0,0.0,0.0,0.0,0.0,0.0,-0.1143,-0.0336,0.0739,0.215,0.2291,0.2576,0.3077,0.3218,0.3348,0.346,0.0,0.0,0.0,0.0,0.0,0.0,0.0,0.0,0.0,0.0,0.0,0.0,0.0,0.0,0.0,0.0,0.0,0.0,0.0,0.0,0.0,0.0,0.0,0.0,0.0,0.0,0.6652,0.6707,0.6652,0.0,0.0,0.0,0.0,0.0,0.0,0.0,0.0,0.0,0.0,0.767,0.7723,0.7723,0.7788,0.6064,0.0896,-0.4514,-1.0153,-1.6131,-2.1739,-2.5777,0.0,0.0,0.0,0.0,0.0,0.0,0.0,0.0,0.0,0.0,0.0,0.0,0.0,0.0,0.0,0.0,0.0,0.0,0.0,0.0,0.0,0.0,0.0,0.0,0.0,0.0,0.0,-1.9959,-1.9726,0.0,0.0,0.0,0.0,0.0,0.0,0.0,0.0,0.0,0.0,0.0,-1.3285,-1.26,0.0,0.0,0.0,0.0,0.0,0.0,0.0,0.0,0.0,0.0,0.0,0.0,-0.2621,-0.0941,-0.0,0.1008,0.2153,0.2465,0.2825,0.3286,0.3345,0.3451,0.3535,0.0,0.0,0.0,0.0,0.0,0.0,0.0,0.0,0.0,0.0,0.0,0.0,0.0,0.0,0.0,0.0,0.0,0.0,0.0,0.0,0.0,0.0,0.0,0.0,0.0,0.6652,0.0,0.0,0.0,0.0,0.0,0.0,0.0,0.0,0.0,0.0,0.0,0.7729,0.8002,0.8055,0.8055,0.8156,0.8262,0.7715,0.0,0.0,0.0,0.0,0.0,0.0,0.0,0.0,0.0,0.0,0.0,0.0,0.0,0.0,2.066,2.7121,2.8457,2.8551,2.8514,0.0,0.0,0.0,0.0,0.0,0.0,0.0,0.0,0.0,0.0,0.0,0.0,0.0,0.0,0.0,0.0,-1.969,0.0,0.0,0.0,0.0,0.0,0.0,0.0,0.0,-1.4672,-1.4087,-1.3539,-1.2831,-1.2214,0.0,-1.0862,-1.0119,0.0,0.0,0.0,0.0,0.0,0.0,0.0,0.0,-0.2554,-0.0739,0.0202,0.121,0.2153,0.2554,0.2996,0.3528,0.3585,0.3605,0.3651,0.3604,0.3585,0.0,0.0,0.0,0.0,0.0,0.0,0.0,0.0,0.0,0.0,0.0,0.0,0.0,0.0,0.0,0.0,0.0,0.0,0.0,0.0,0.0,0.0,0.0,0.6923,0.0,0.0,0.0,0.0,0.0,0.0,0.0,0.0,0.0,0.7568,0.7681,0.7889,0.8168,0.8221,0.8321,0.8533,0.0,0.0,0.0,0.0,0.0,0.0,0.0,-2.7129,-2.7263,-2.7385,-2.5658,-2.0276,-1.1933,-0.5471,-0.4152,0.0,0.0,2.1972,2.6276,2.8495,2.8805,2.8901,2.8896,2.8713,2.8579,2.8389,0.0,0.0,0.0,0.0,0.0,0.0,0.0,0.0,-2.0727,-2.0399,0.0,-1.9535,0.0,0.0,0.0,0.0,0.0,0.0,0.0,0.0,-1.453,-1.3867,-1.3341,-1.2727,-1.2153,-1.1543,-1.1167,-1.0544,-0.9646,-0.8724,0.0,0.0,0.0,0.0,0.0,0.0,-0.2284,-0.0538,0.0336,0.121,0.2154,0.2554,0.3019,0.3747,0.3872,0.3882,0.3815,0.3648,0.3591,0.3585,0.3585,0.0,0.0,0.0,0.0,0.0,0.0,0.0,0.0,0.0,0.0,0.0,0.0,0.0,0.0,0.0,0.0,0.0,0.0,0.0,0.0,0.7149,0.0,0.0,0.0,0.0,0.0,0.0,0.0,0.0,0.0,0.0,0.7723,0.7842,0.8008,0.8168,0.0,0.0,0.0,0.0,0.674,0.0799,-0.4833,-1.0829,-1.7675,-2.3358,-2.7128,-2.7694,0.0,0.0,-2.5911,-1.9325,-1.3778,-1.2704,-0.5694,0.3001,1.2452,2.0466,2.6327,2.7473,2.7752,2.8587,2.9101,2.914,2.9217,-2.4508,0.0,0.0,0.0,0.0,-2.3125,-2.2761,-2.2176,-2.1877,-2.1527,-2.1096,-2.0548,0.0,0.0,0.0,0.0,0.0,0.0,-1.6392,-1.5792,-1.5276,-1.4706,-1.413,-1.3479,-1.2839,-1.219,-1.1554,-1.0857,-1.0058,-0.9231,-0.8334,-0.7371,0.0,0.0,0.0,0.0,-0.2351,-0.0538,0.0739,0.1614,0.2221,0.2554,0.2992,0.3654,0.3911,0.3969,0.382,0.3779,0.3667,0.3588,0.3585,0.0,0.0,0.0,0.0,0.0,0.0,0.0,0.0,0.0,0.0,0.0,0.0,0.0,0.0,0.0,0.0,0.0,0.0,0.0,0.7155,0.7263,0.7365,0.0,0.0,0.0,0.0,0.0,0.0,0.0,0.0,0.0,0.8209,0.8215,0.8321,0.0,0.0,0.8745,0.8903,0.9461,0.7477,0.0938,0.0,0.0,0.0,-2.3577,-2.7467,-2.7522,-2.7053,-2.6487,-2.5832,-2.3552,-2.1615,-2.0736,-1.4063,-0.7419,-0.4003,0.4002,1.194,1.748,1.9558,2.1978,2.6972,2.8624,2.8829,-2.4523,-2.4302,-2.4067,-2.3839,-2.361,-2.3407,-2.3068,-2.2663,-2.2356,-2.1949,-2.1458,-2.0957,-2.051,-2.008,-1.9408,0.0,0.0,0.0,-1.6673,-1.6056,-1.5584,-1.5059,-1.4478,-1.3812,-1.3147,-1.249,-1.174,-1.1059,-1.0308,-0.953,-0.8624,-0.7717,0.0,0.0,-0.4289,-0.3422,-0.2284,-0.0873,0.0538,0.1479,0.2018,0.2621,0.3133,0.3542,0.3823,0.3922,0.384,0.3803,0.3779,0.371,0.3607,0.3585,0.0,0.0,0.0,0.0,0.0,0.0,0.0,0.0,0.0,0.0,0.0,0.4581,0.5073,0.0,0.0,0.0,0.6652,0.6982,0.7365,0.7365,0.0,0.0,0.0,0.0,0.0,0.0,0.0,0.8228,0.8374,0.8474,0.8474,0.8586,0.8639,0.8685,0.8798,0.9003,0.9439,0.0,0.6974,-0.2014,-0.6159,-1.1582,-2.0639,-2.521,-2.7478,-2.7166,-2.6674,-2.6208,-2.5775,-2.54,-2.495,-2.3866,-2.0175,-1.668,-1.6034,-1.087,-0.3098,0.7605,1.0591,1.2833,1.7587,1.8848,2.0037,-2.4786,-2.4379,-2.42,-2.3927,-2.361,-2.3407,-2.3083,-2.2694,-2.2356,-2.1888,-2.1361,-2.0822,-2.0372,-1.9888,-1.8987,0.0,0.0,-1.7245,-1.6662,-1.6056,-1.5584,-1.5059,-1.4469,-1.3803,-1.3147,-1.2482,-1.1864,-1.1185,-1.0364,-0.9658,-0.8888,-0.8052,-0.6994,-0.5738,-0.4417,-0.3151,-0.2149,-0.1412,-0.0067,0.1008,0.1816,0.269,0.3228,0.3429,0.3668,0.3803,0.3786,0.384,0.3831,0.3812,0.3656,0.3593,0.3585,0.0,0.0,0.0,0.0,0.0,0.0,0.0,0.0,0.0,0.0,0.0,0.0,0.0,0.0,0.0,0.6815,0.0,0.7467,0.7521,0.0,0.0,0.0,0.7901,0.7901,0.8062,0.8215,0.8215,0.0,0.0,0.0,0.0,0.8962,0.8944,0.9049,0.9351,1.0075,0.9677,0.5229,-0.6387,-0.88,-1.3556,-2.4852,-2.7278,-2.7166,-2.6758,-2.6469,-2.6154,-2.5738,-2.5454,-2.5084,-2.462,-2.4219,-2.3719,-2.3348,-2.1971,-1.792,-0.2989,0.0972,0.2302,0.4347,0.5335,0.7799,-2.6078,-2.5341,-2.5161,-2.4496,-2.361,-2.3407,-2.3083,-2.2649,-2.2342,-2.1888,-2.1361,-2.0822,-2.0156,-1.9344,-1.8827,-1.8302,-1.7656,-1.7234,-1.6673,-1.6114,-1.5594,-1.5118,-1.4469,-1.3812,-1.3147,-1.249,-1.1988,-1.1373,-1.0681,-1.011,-0.9408,-0.8571,-0.7722,-0.647,-0.4954,-0.3689,-0.2554,-0.1547,-0.0403,0.0806,0.2085,0.2554,0.2956,0.3295,0.3473,0.3619,0.3796,0.3806,0.3819,0.3823,0.3785,0.3675,0.3588,0.3585,0.0,0.0,0.0,0.0,0.0,0.0,0.0,0.0,0.0,0.4849,0.523,0.0,0.6164,0.0,0.6923,0.7192,0.7317,0.7371,0.0,0.0,0.7729,0.7788,0.7901,0.8062,0.8221,0.8321,0.8474,0.8679,0.885,0.8956,0.9203,0.9749,0.9825,0.9977,1.0089,0.6337,0.0897,-0.6963,-1.2283,-1.8175,-2.559,-2.7135,-2.6775,-2.6469,-2.6225,-2.5921,-2.553,-2.5394,-2.5162,-2.4822,-2.4539,-2.4276,-2.3952,-2.3595,-2.2236,-1.7709,-1.1877,-0.5124,0.0659,0.2195,0.3246,-2.6729,-2.6127,-2.5926,-2.5264,-2.4262,-2.3657,-2.3172,-2.2844,-2.2449,-2.203,-2.152,-2.0759,-2.0003,-1.9303,-1.8815,-1.829,-1.7645,-1.719,-1.674,-1.6239,-1.5768,-1.5254,-1.4725,-1.4052,-1.3398,-1.2736,-1.2182,-1.1622,-1.0989,-1.0428,-0.9792,-0.9081,-0.8236,-0.7186,-0.5873,-0.435,-0.3019,-0.2016,-0.0672,0.0538,0.1681,0.2084,0.2487,0.2824,0.3092,0.3336,0.3544,0.363,0.3738,0.3798,0.3698,0.3669,0.3661,0.3613,0.3585,0.0,0.0,0.0,0.0,0.0,0.0,0.0,0.0,0.0,0.0,0.0,0.6213,0.0,0.6977,0.7139,0.7311,0.7311,0.7359,0.7568,0.7622,0.7676,0.7788,0.7949,0.8162,0.8374,0.8521,0.8685,0.8956,0.9231,0.8396,0.6145,0.6124,0.6395,0.6216,0.3614,-0.1518,-1.0845,-1.5189,-1.9619,-2.6082,-2.6758,-2.6418,-2.6189,-2.599,-2.5712,-2.5378,-2.5278,-2.5123,-2.4862,-2.4701,-2.4564,-2.4302,-2.4135,-2.3909,-2.3122,-1.9832,-1.4931,-1.0214,-0.8947,-0.7985,-2.7241,-2.6873,-2.6652,-2.6087,-2.5295,-2.4221,-2.3526,-2.3098,-2.2632,-2.2123,-2.1664,-2.0673,-1.9926,-1.942,-1.8881,-1.8356,-1.7767,-1.7301,-1.6853,-1.6431,-1.5961,-1.543,-1.497,-1.4309,-1.3649,-1.3042,-1.2428,-1.1872,-1.1365,-1.0737,-1.0174,-0.9582,-0.8753,-0.7907,-0.7055,-0.5269,-0.3749,-0.2551,-0.1007,0.0134,0.0873,0.1344,0.1816,0.2221,0.269,0.2956,0.3157,0.3414,0.3618,0.3724,0.3613,0.3613,0.3757,0.3661,0.3599,0.0,0.3585,0.0,0.0,0.0,0.0,0.0,0.0,0.0,0.0,0.5723,0.6273,0.6825,0.6982,0.7085,0.7209,0.7209,0.7257,0.7413,0.7413,0.7467,0.7616,0.7788,0.8002,0.8321,0.8521,0.8745,0.9077,0.8985,0.6302,0.1805,0.0441,-0.0149,-0.0791,-0.1284,-0.5521,-1.6244,-1.8065,-2.1068,-2.5459,-2.6418,-2.6189,-2.599,-2.5749,-2.5486,-2.5294,-2.5162,-2.4989,-2.4806,-2.4742,-2.4701,-2.4523,-2.4498,-2.4457,-2.4204,-2.3762,-2.3101,-2.1899,-2.1195,-2.0243,-2.8678,-2.7816,-2.7576,-2.6946,-2.6134,-2.5591,-2.4552,-2.3231,-2.2737,-2.203,-2.1131,-2.0586,-2.0067,-1.9565,-1.9146,-1.8679,-1.8259,-1.7634,-1.7134,-1.6705,-1.6114,-1.5536,-1.497,-1.4309,-1.3761,-1.3208,-1.2736,-1.2243,-1.1677,-1.1303,-1.0807,-1.011,-0.9466,-0.8748,-0.7907,0.0,0.0,0.0,-0.1679,-0.1008,-0.0403,0.0336,0.0941,0.1479,0.2085,0.0,0.2753,0.3074,0.33,0.3416,0.3627,0.0,0.0,0.0,0.0,0.0,0.0,0.0,0.0,0.0,0.0,0.0,0.4353,0.4739,0.512,0.5786,0.6337,0.6707,0.6756,0.681,0.6815,0.6815,0.6869,0.6982,0.6987,0.7095,0.7359,0.7467,0.7729,0.8168,0.8415,0.8864,0.9079,0.5323,0.1858,0.0645,-0.3027,-0.809,-1.292,-1.3162,-1.448,-1.7261,-2.1347,-2.4846,-2.6162,-2.6154,-2.5934,-2.5712,-2.547,-2.5294,-2.51,-2.4926,-2.4806,-2.467,-2.463,-2.463,-2.4589,-2.4645,-2.4742,-2.4686,-2.4791,-2.4639,-2.3837,-2.3694,-2.3513,-2.9265,0.0,-2.8418,-2.7782,0.0,-2.6658,-2.5742,-2.4477,-2.362,-2.256,-2.1375,-2.0885,-2.0372,-1.9875,-1.9408,-1.8946,-1.8464,-1.7865,-1.7368,-1.7043,-1.642,-1.5884,-1.543,-1.4784,-1.4181,-1.364,-1.3164,-1.2666,-1.2182,-1.1872,-1.1365,-1.08,-1.0168,-0.9524,-0.8753,-0.7442,-0.5665,-0.3418,-0.275,-0.2082,-0.141,-0.0941,-0.0336,0.047,0.0,0.0,0.0,0.0,0.0,0.0,0.0,0.0,0.0,0.0,0.0,0.3672,0.3671,0.3585,0.3585,0.3747,0.3852,0.3907,0.4239,0.4739,0.5187,0.5732,0.6168,0.6327,0.6431,0.648,0.6431,0.6426,0.648,0.6539,0.6603,0.6766,0.7041,0.7365,0.7735,0.7929,0.585,0.4375,0.5052,-0.0143,-0.506,-0.75,-1.038,-1.4747,-2.0139,-1.9123,-1.7981,-2.1137,-2.4032,-2.6297,-2.6118,-2.5917,-2.5675,-2.5394,-2.524,-2.5084,-2.4831,-2.4766,-2.4686,-2.463,-2.463,-2.4686,-2.4726,-2.4846,-2.4966,-2.5045,-2.5185,-2.5468,-2.5481,-2.5497,-2.5624,-2.9547,-2.9167,-2.9013,-2.8513,-2.7798,-2.7503,-2.6822,-2.5798,0.0,0.0,0.0,-2.1551,-2.0985,-2.0322,-1.9818,-1.923,-1.8614,-1.803,-1.7601,-1.7334,-1.6761,-1.6306,-1.5931,-1.5371,-1.4725,-1.4121,-1.364,-1.3164,-1.2744,-1.2367,-1.1934,-1.1428,-1.0919,-1.0225,-0.9332,-0.7967,-0.6527,-0.5011,-0.4015,-0.3218,-0.2547,-0.2216,-0.1545,-0.0605,-0.0,0.0605,0.1143,0.1883,0.2423,0.2822,0.2958,0.317,0.3597,0.3562,0.3626,0.3754,0.3664,0.366,0.3585,0.3691,0.3799,0.3793,0.4239,0.4739,0.5242,0.5622,0.5896,0.595,0.605,0.6105,0.6105,0.6046,0.6046,0.61,0.6218,0.644,0.682,0.7252,0.734,0.654,0.2721,-0.0566,-0.1172,-0.6186,-1.1639,-1.6245,-1.7702,-2.0138,-2.4405,-2.2031,-2.0682,-2.4801,-2.5933,-2.6046,-2.5844,-2.5562,-2.5371,-2.5123,-2.4966,-2.4806,-2.4645,-2.4564,-2.4549,-2.4549,-2.467,-2.4726,-2.4822,-2.5005,-2.5185,-2.5317,-2.5584,-2.6077,-2.7088,-2.7411,-2.7531,-2.977,-2.9428,-2.9167,-2.8904,-2.8622,-2.8369,-2.7522,-2.6247,-2.4994,-2.4021,-2.3395,-2.28,-2.1983,-2.095,-2.042,-1.9743,-1.8893,-1.8302,-1.792,0.0,-1.7145,-1.6627,-1.6046,-1.5594,-1.5059,-1.4597,-1.4121,-1.364,-1.3208,-1.285,-1.2428,-1.2003,-1.1428,-1.073,-0.9773,-0.9075,-0.8361,-0.7642,-0.5804,-0.4553,-0.4018,-0.3349,-0.2547,-0.1609,-0.1276,-0.0538,0.0538,0.1076,0.1614,0.2287,0.2744,0.3037,0.3093,0.3507,0.3727,0.3546,0.3682,0.3686,0.3591,0.3638,0.3691,0.3796,0.4239,0.4684,0.5073,0.5297,0.5458,0.5622,0.5673,0.5673,0.5673,0.5555,0.55,0.5673,0.5786,0.6114,0.6647,0.6983,0.5684,0.1531,0.0531,-0.2033,-0.6498,-1.2119,-1.6105,-1.7382,-2.0833,-2.4729,-2.5088,-2.5241,-2.5078,-2.5733,-2.5717,-2.5492,-2.5355,-2.51,-2.4926,-2.4862,-2.4605,-2.4467,-2.4482,-2.4374,-2.4317,-2.4343,-2.4523,-2.4686,-2.4782,-2.5123,-2.5378,-2.5605,-2.5921,-2.6564,-2.7724,-2.8766,-2.9752,-3.0425,-3.0046,-2.948,-2.9045,-2.8794,-2.8348,-2.7724,-2.6911,-2.6177,-2.5134,-2.4016,-2.3409,-2.2737,-2.2022,-2.1431,-2.0802,-2.0104,-1.9278,-1.8719,-1.8306,-1.7645,-1.7078,-1.656,-1.6093,-1.5623,-1.5177,-1.4715,-1.43,-1.3803,-1.358,-1.3164,-1.2552,-1.1926,-1.117,-1.0478,-0.9964,-0.9448,-0.8877,-0.7116,-0.6001,-0.5477,-0.4743,-0.3946,-0.3149,-0.2549,-0.181,-0.0805,-0.0134,0.0605,0.1412,0.2151,0.2674,0.2969,0.3245,0.3432,0.3648,0.3652,0.3674,0.3738,0.3621,0.3635,0.3799,0.3962,0.4239,0.4463,0.4849,0.5124,0.5179,0.523,0.5175,0.5128,0.512,0.5117,0.523,0.5622,0.6164,0.6426,0.4358,0.2216,-0.0243,-0.5571,-1.0065,-1.2205,-1.7922,-2.1628,-2.1486,-2.392,-2.5105,-2.4902,-2.4926,-2.5121,-2.5362,-2.5285,-2.5091,-2.495,-2.4766,-2.4564,-2.4467,-2.4302,-2.4219,-2.4234,-2.4166,-2.4223,-2.425,-2.4426,-2.463,-2.4782,-2.5107,-2.5492,-2.5828,-2.6208,-2.708,-2.8643,-3.0695,-3.2265,-3.1199,-3.0828,-2.9984,-2.9295,-2.8763,-2.825,-2.784,-2.7503,-2.7144,-2.6176,-2.4802,-2.4121,-2.3566,-2.2977,-2.2447,-2.1817,-2.1151,-2.0266,-1.9625,-1.9194,-1.8384,-1.7757,-1.732,-1.6772,-1.6265,-1.5826,-1.543,-1.4951,-1.446,-1.4231,-1.3821,-1.3094,-1.2428,-1.1794,-1.1358,-1.085,-1.0408,-0.9894,-0.8672,-0.7567,-0.6789,-0.6133,-0.5477,-0.4749,-0.388,-0.3078,-0.2347,-0.141,-0.0537,0.0336,0.1344,0.2151,0.2753,0.2962,0.3176,0.3526,0.3576,0.3577,0.364,0.3618,0.361,0.3688,0.3744,0.3799,0.3913,0.4294,0.4625,0.468,0.468,0.4625,0.4577,0.4629,0.4791,0.4901,0.4247,0.4018,0.4583,0.0549,-0.2976,-0.4001,-1.1455,-1.6885,-1.8809,-2.2258,-2.4586,-2.4373,-2.4511,-2.4297,-2.4147,-2.4021,-2.4204,-2.4477,-2.4679,-2.4599,-2.4467,-2.4343,-2.4219,-2.3994,-2.3994,-2.4009,-2.3982,-2.4082,-2.4166,-2.4208,-2.4441,-2.467,-2.4846,-2.5185,-2.5626,-2.6082,-2.6521,-2.7547,-2.9816,-3.225,-3.4098,-3.2131,-3.1769,-3.0844,-2.9832,-2.8826,-2.8363,-2.8054,-2.769,-2.7196,-2.6774,-2.6175,-2.5506,-2.4586,-2.3603,-2.3007,-2.2311,-2.15,-2.0811,-2.0387,-2.0167,-1.9228,-1.8646,-1.8248,-1.7509,-1.6909,-1.6513,-1.6171,-1.57,-1.5167,-1.4765,-1.4231,-1.3511,-1.3033,-1.2736,-1.2359,-1.1919,-1.1553,-1.1288,-1.0598,-0.9518,-0.8102,-0.7517,-0.6929,-0.6199,-0.547,-0.461,-0.368,-0.2748,-0.1812,-0.0941,0.0269,0.1344,0.2153,0.275,0.3045,0.3099,0.3394,0.3499,0.3375,0.346,0.347,0.3482,0.3532,0.3585,0.3641,0.3583,0.3688,0.3907,0.4021,0.4076,0.4079,0.4138,0.4184,0.3851,0.0887,-0.1699,-0.1157,-0.4836,-0.9698,-1.4814,-1.5302,-1.7553,-2.2102,-2.3682,-2.3872,-2.3721,-2.3608,-2.3493,-2.3436,-2.3392,-2.3348,-2.3523,-2.3696,-2.3867,-2.3867,-2.3782,-2.3696,-2.3638,-2.3638,-2.3696,-2.3797,-2.394,-2.4024,-2.4208,-2.4457,-2.471,-2.5029,-2.54,-2.5868,-2.6452,-2.7108,-2.8097,-3.0688,-3.3047,-3.451,-3.3006,-3.2546,-3.1756,-3.0656,-2.9547,-2.9064,-2.8488,-2.7755,-2.7401,-2.7026,-2.6645,-2.6042,-2.5342,-2.4458,-2.3936,-2.3289,-2.2564,-2.1948,-2.1394,-2.0936,-2.0203,-1.9504,-1.8817,-1.834,-1.7812,-1.7222,-1.6751,-1.6343,-1.5989,-1.5352,-1.4765,-1.4369,-1.3881,-1.3467,-1.3277,-1.2911,-1.2474,-1.2112,-1.1794,-1.1226,-1.0338,-0.9128,-0.8226,-0.7637,-0.685,-0.5997,-0.5008,-0.3949,-0.2815,-0.188,-0.0873,0.0202,0.1344,0.2084,0.2609,0.2838,0.3184,0.3416,0.3334,0.3385,0.3399,0.335,0.3283,0.3318,0.337,0.2856,0.2291,0.2004,0.2956,0.3749,0.3705,0.4154,0.3093,-0.0161,-0.1641,-0.2555,-0.4977,-0.9604,-1.3656,-1.539,-1.8174,-2.0578,-2.2717,-2.3084,-2.2935,-2.2875,-2.2844,-2.2799,-2.2768,-2.2678,-2.2632,-2.2692,-2.2859,-2.3083,-2.3304,-2.3348,-2.3304,-2.3304,-2.3392,-2.3494,-2.3581,-2.3754,-2.3925,-2.4109,-2.4482,-2.4791,-2.5162,-2.5589,-2.6066,-2.686,-2.8599,-3.0043,-3.1555,-3.3524,-3.4827,-3.387,-3.3437,-3.2562,-3.1454,-3.0272,-2.9692,-2.8955,-2.8162,-2.7679,-2.7248,-2.6846,-2.6394,-2.577,-2.516,-2.4637,-2.4073,-2.3518,-2.2841,-2.23,-2.1811,-2.1207,-2.0471,-1.9735,-1.9147,-1.8634,-1.8036,-1.7423,-1.6965,-1.6627,-1.5931,-1.541,-1.5196,-1.4656,-1.43,-1.4121,-1.3812,-1.339,-1.2972,-1.2842,-1.2666,-1.2158,-1.1024,-0.9888,-0.9058,-0.8285,-0.7437,-0.6519,-0.5335,-0.4077,-0.2947,-0.2012,-0.1007,0.0202,0.1277,0.2084,0.2551,0.2903,0.3091,0.319,0.3244,0.3202,0.3111,0.2736,0.2354,0.2078,0.126,0.0228,-0.0738,0.0226,0.0905,0.1859,0.1945,-0.0337,-0.4759,-0.4602,-0.6266,-0.9328,-1.4255,-1.7256,-1.6961,-2.0043,-2.2608,-2.2253,-2.2081,-2.2049,-2.2142,-2.217,-2.2137,-2.2137,-2.2091,-2.2044,-2.2044,-2.2137,-2.2417,-2.2799,-2.2949,-2.2949,-2.2994,-2.3083,-2.3216,-2.3407,-2.361,-2.3867,-2.4135,-2.4508,-2.4974,-2.5362,-2.5811,-2.664,-2.7733,-2.9448,-3.1427,-3.2487,-3.4155,-3.5117,-3.4754,-3.443,-3.3242,-3.2075,-3.1081,-3.0074,-2.9431,-2.8992,-2.8032,-2.7386,-2.6989,-2.6525,-2.6082,-2.5619,-2.4921,-2.435,-2.3982,-2.3386,-2.305,-2.2807,-2.2051,-2.1557,-2.1211,-2.0115,-1.9392,-1.896,-1.8212,-1.7468,-1.6864,-1.6436,-1.6151,-1.5816,-1.5468,-1.5186,-1.4961,-1.4597,-1.4359,-1.4061,-1.3812,-1.3631,-1.3571,-1.307,-1.2004,-1.0634,-0.9767,-0.8988,-0.814,-0.7037,-0.5782,-0.4328,-0.3205,-0.2144,-0.1075,0.0134,0.1277,0.2218,0.2281,0.2383,0.2386,0.2232,0.2265,0.234,0.1093,0.0487,-0.06,-0.1614,-0.2856,-0.3985,-0.4896,-0.4555,-0.3313,-0.3675,-0.4978,-0.6723,-1.1226,-1.3501,-1.4104,-1.8329,-2.1608,-2.1184,-2.1233,-2.15,-2.1313,-2.1264,-2.1361,-2.1458,-2.1471,-2.1471,-2.152,-2.1568,-2.1616,-2.1664,-2.1746,-2.1983,-2.231,-2.254,-2.2601,-2.2692,-2.2814,-2.2979,-2.3201,-2.3436,-2.3782,-2.4162,-2.4639,-2.5114,-2.5594,-2.6434,-2.7469,-2.8731,-3.0345,-3.1972,-3.3137,-3.4527,-3.5392,-3.4961,-3.4529,-3.3875,-3.301,-3.1958,-3.0998,-3.0133,-2.9269,-2.8362,-2.779,-2.7372,-2.6945,-2.651,-2.6028,-2.5536,-2.4878,-2.4261,-2.3852,-2.3509,-2.3113,-2.2758,-2.2293,-2.1663,-2.0782,-2.0137,-1.961,-1.8795,-1.8018,-1.7434,-1.7123,-1.6842,-1.6457,-1.6161,-1.5864,-1.571,-1.5526,-1.5235,-1.5001,-1.4815,-1.4706,-1.4469,-1.4231,-1.3726,-1.3045,-1.1695,-1.0634,-0.9857,-0.8826,-0.7658,-0.6359,-0.4982,-0.3735,-0.2739,-0.1138,0.0268,0.1005,-0.0653,-0.1663,-0.152,-0.3338,-0.442,-0.416,-0.4293,-0.4228,-0.4179,-0.5075,-0.6769,-0.8786,-0.924,-0.9189,-0.9405,-0.8558,-0.972,-1.398,-1.436,-1.545,-1.8031,-2.0246,-2.1108,-2.0868,-2.066,-2.056,-2.0673,-2.0686,-2.0772,-2.0957,-2.0993,-2.1055,-2.1131,-2.1193,-2.1277,-2.1375,-2.1471,-2.1616,-2.1855,-2.217,-2.237,-2.2463,-2.2601,-2.2873,-2.3142,-2.3523,-2.3867,-2.4343,-2.4815,-2.5411,-2.6016,-2.6948,-2.807,-2.9602,-3.1238,-3.2477,-3.3724,-3.4897,-3.5467,-3.5008,-3.4594,-3.43,-3.3725,-3.2926,-3.2024,-3.0979,-2.9844,-2.8981,-2.8271,-2.7755,-2.7321,-2.6893,-2.651,-2.6042,-2.5439,-2.4751,-2.4376,-2.3923,-2.3437,-2.3318,-2.2949,-2.2266,-2.1605,-2.0937,-2.0263,-1.9246,-1.8464,-1.803,-1.7865,-1.7534,-1.7088,-1.6842,-1.6616,-1.6389,-1.6265,-1.6104,-1.5931,-1.5816,-1.571,-1.5526,-1.541,-1.5294,-1.4982,-1.3879,-1.2647,-1.1596,-1.0656,-0.9636,-0.8478,-0.7117,-0.5937,-0.4944,-0.4401,-0.3526,-0.2781,-0.4653,-0.5876,-0.5738,-0.772,-0.915,-0.9477,-0.9015,-0.8509,-0.88,-0.9272,-1.0703,-1.2438,-1.2958,-1.3199,-1.395,-1.3002,-1.4035,-1.82,-1.6763,-1.6512,-1.9914,-2.0232,-2.0118,-2.0016,-1.9978,-1.9978,-2.0182,-2.022,-2.0372,-2.056,-2.061,-2.0673,-2.0799,-2.0835,-2.0934,-2.1095,-2.1242,-2.1375,-2.1602,-2.1902,-2.2184,-2.2278,-2.254,-2.2828,-2.3187,-2.3625,-2.4078,-2.4549,-2.5153,-2.5783,-2.6572,-2.7508,-2.8807,-3.0327,-3.16,-3.2842,-3.4003,-3.513,-3.5467,-3.5041,-3.4835,-3.4448,-3.4218,-3.3856,-3.2846,-3.1908,-3.0851,-2.9831,-2.8885,-2.802,-2.759,-2.7284,-2.6893,-2.6379,-2.5934,-2.5495,-2.4821,-2.4319,-2.3982,-2.3747,-2.3437,-2.3025,-2.2485,-2.1711,-2.0846,-1.9655,-1.8917,-1.856,-1.8464,-1.8139,-1.7755,-1.77,-1.7412,-1.7011,-1.7011,-1.6965,-1.6797,-1.6751,-1.6751,-1.6818,-1.6627,-1.656,-1.6503,-1.612,-1.5158,-1.3434,-1.2639,-1.1759,-1.0809,-0.9781,-0.8719,-0.8075,-0.9178,-1.0019,-0.8663,-0.9428,-0.9884,-0.99,-1.035,-1.1833,-1.2626,-1.1895,-1.2547,-1.4227,-1.3852,-1.3683,-1.4735,-1.5338,-1.5987,-1.6881,-1.706,-1.7291,-1.7754,-1.8009,-1.8802,-1.9267,-1.942,-1.942,-1.9473,-1.9525,-1.9656,-1.9811,-1.9926,-2.0093,-2.0182,-2.0271,-2.0334,-2.0549,-2.0586,-2.0686,-2.0911,-2.1109,-2.1229,-2.1423,-2.1664,-2.1902,-2.2184,-2.2526,-2.2844,-2.3304,-2.3739,-2.4313,-2.4855,-2.573,-2.6421,-2.727,-2.8246,-2.9605,-3.1016,-3.2153,-3.3274,-3.4516,-3.5484,-3.5412,-3.5211,-3.4899,-3.4756,-3.4546,-3.4153,-3.3273,-3.2303,-3.1227,-3.0303,-2.9306,-2.8376,-2.8039,-2.769,-2.7284,-2.6855,-2.6433,-2.5948,-2.5425,-2.4921,-2.4305,-2.4054,-2.376,-2.3395,-2.2878,-2.2002,-2.0894,-2.0333,-1.9658,-1.9088,-1.8975,-1.8709,-1.8398,-1.829,-1.8127,-1.7799,-1.7755,-1.7689,-1.7579,-1.7567,-1.7567,-1.7567,-1.7523,-1.7567,-1.7611,-1.7633,-1.7269,-1.6567,-1.5071,-1.3936,-1.3177,-1.2474,-1.1647,-1.1136,-1.1472,-1.1518,-1.1138,-1.3396,-1.463,-1.462,-1.6417,-1.7606,-1.7833,-1.7258,-1.7167,-1.7611,-1.6971,-1.6674,-1.7148,-1.7401,-1.772,-1.8093,-1.8429,-1.8494,-1.8333,-1.8679,-1.8999,-1.9105,-1.9146,-1.9158,-1.9223,-1.9275,-1.942,-1.9617,-1.972,-1.9823,-2.0029,-2.008,-2.0144,-2.041,-2.0498,-2.0649,-2.0911,-2.1046,-2.1229,-2.152,-2.1807,-2.2077,-2.2402,-2.2709,-2.3054,-2.3465,-2.4048,-2.4583,-2.5379,-2.6266,-2.7103,-2.7968,-2.8942,-3.0166,-3.1445,-3.2517,-3.3774,-3.5171,-3.555,-3.543,-3.5396,-3.5152,-3.4994,-3.4804,-3.4415,-3.3599,-3.2627,-3.1566,-3.0641,-2.9643,-2.8762,-2.8396,-2.8039,-2.769,-2.7321,-2.6907,-2.6433,-2.6042,-2.5495,-2.4808,-2.4505,-2.4171,-2.3728,-2.311,-2.2265,-2.1285,-2.0819,-2.0204,-1.9473,-1.9344,-1.9186,-1.8869,-1.8827,-1.8721,-1.8452,-1.8452,-1.8441,-1.8387,-1.8441,-1.8441,-1.8441,-1.8494,-1.8536,-1.8685,-1.878,-1.8833,-1.8715,-1.7609,-1.657,-1.576,-1.5176,-1.4868,-1.4694,-1.5079,-1.5246,-1.5797,-1.7419,-1.8958,-1.8859,-2.0422,-2.1684,-2.1028,-2.0607,-2.0143,-1.9594,-1.9141,-1.9008,-1.8915,-1.8874,-1.8898,-1.8975,-1.904,-1.9052,-1.8851,-1.8851,-1.8893,-1.8999,-1.8987,-1.904,-1.9105,-1.9182,-1.9328,-1.9473,-1.9617,-1.9668,-1.9862,-1.9926,-2.0029,-2.0296,-2.041,-2.0612,-2.0848,-2.1046,-2.1277,-2.1616,-2.1949,-2.231,-2.2618,-2.2965,-2.3319,-2.3724,-2.4405,-2.502,-2.6077,-2.7012,-2.7685,-2.8518,-2.9128,-3.012,-3.1424,-3.2887,-3.3938,-3.5037,-3.5353,-3.5261,-3.5594,-3.5492,-3.5245,-3.5041,-3.48,-3.3853,-3.2896,-3.1915,-3.083,-2.9863,-2.9092,-2.8621,-2.8396,-2.8137,-2.769,-2.7284,-2.6959,-2.6418,-2.6002,-2.5605,-2.516,-2.462,-2.4021,-2.3386,-2.2609,-2.186,-2.1278,-2.0572,-1.9836,-1.9708,-1.95,-1.9291,-1.9239,-1.9186,-1.9081,-1.9186,-1.9226,-1.9239,-1.9356,-1.942,-1.946,-1.9552,-1.9656,-1.9656,-1.9798,-1.994,-2.0029,-1.9991,-1.9428,-1.8182,-1.794,-1.8137,-1.8818,-1.98,-2.0332,-2.0791,-2.2044,-2.2229,-2.2452,-2.2392,-2.2356,-2.1827,-2.1636,-2.141,-2.0845,-2.0534,-2.0283,-1.9978,-1.9837,-1.9747,-1.9604,-1.9512,-1.9368,-1.9223,-1.9052,-1.8999,-1.8987,-1.8987,-1.904,-1.9052,-1.9117,-1.9275,-1.942,-1.9512,-1.9656,-1.9747,-1.9811,-1.9978,-2.0182,-2.0347,-2.0448,-2.0749,-2.1082,-2.1471,-2.1855,-2.2263,-2.2632,-2.3113,-2.3435,-2.3806,-2.4251,-2.4973,-2.5773,-2.6833,-2.7646,-2.8341,-2.8947,-2.9526,-3.063,-3.2164,-3.3288,-3.4062,-3.4633,-3.5088,-3.4975,-3.5756,-3.5549,-3.5446,-3.5291,-3.5035,-3.4104,-3.3129,-3.2194,-3.1156,-3.0094,-2.9232,-2.8982,-2.8716,-2.8348,-2.8088,-2.774,-2.7284,-2.6907,-2.6525,-2.6136,-2.577,-2.5048,-2.4363,-2.3942,-2.3158,-2.2234,-2.1761,-2.1074,-2.0131,-2.0067,-1.9926,-1.9823,-1.9772,-1.972,-1.9656,-1.9747,-1.9798,-1.9798,-1.9914,-2.0131,-2.0258,-2.0308,-2.0459,-2.0646,-2.0845,-2.1006,-2.1202,-2.1657,-2.1301,-2.0129,-2.0267,-2.0601,-2.1027,-2.1736,-2.2289,-2.2741,-2.3098,-2.326,-2.3142,-2.3112,-2.2873,-2.2463,-2.237,-2.2077,-2.1602,-2.141,-2.1153,-2.0822,-2.0523,-2.0308,-2.0067,-1.9811,-1.9617,-1.9368,-1.9158,-1.904,-1.904,-1.8987,-1.8987,-1.9052,-1.9117,-1.9275,-1.942,-1.9512,-1.9656,-1.9747,-1.9862,-1.9914,-2.0131,-2.0334,-2.0485,-2.0885,-2.1277,-2.1664,-2.2077,-2.248,-2.2979,-2.3551,-2.4032,-2.4496,-2.5057,-2.5753,-2.6686,-2.7699,-2.8279,-2.8941,-2.9399,-2.9904,-3.139,-3.2775,-3.3279,-3.386,-3.4611,-3.5114,-3.4641,-3.5958,-3.5684,-3.5594,-3.5475,-3.5249,-3.4018,-3.3139,-3.2368,-3.1165,-3.0202,-2.9473,-2.9167,-2.8951,-2.8668,-2.8396,-2.8088,-2.774,-2.7321,-2.6945,-2.6578,-2.6096,-2.5384,-2.4708,-2.4363,-2.3668,-2.2533,-2.2307,-2.1523,-2.0654,-2.0422,-2.0321,-2.0271,-2.0233,-2.0207,-2.0169,-2.0321,-2.0409,-2.0472,-2.0623,-2.0822,-2.1006,-2.1055,-2.1251,-2.1492,-2.1732,-2.1969,-2.2328,-2.274,-2.2515,-2.1824,-2.1932,-2.2317,-2.2696,-2.3128,-2.3523,-2.3696,-2.3824,-2.3782,-2.3625,-2.3581,-2.3407,-2.3038,-2.2904,-2.2632,-2.2263,-2.2077,-2.1855,-2.1423,-2.1118,-2.0809,-2.0459,-2.0067,-1.9759,-1.9552,-1.9303,-1.921,-1.9158,-1.9198,-1.9158,-1.921,-1.921,-1.9316,-1.9473,-1.9565,-1.9656,-1.9759,-1.9862,-1.9965,-2.0182,-2.0372,-2.0623,-2.1019,-2.1458,-2.1888,-2.2388,-2.283,-2.3507,-2.4074,-2.4987,-2.5384,-2.5922,-2.6621,-2.7379,-2.8258,-2.8879,-2.9401,-2.9818,-3.0442,-3.1649,-3.2689,-3.3132,-3.3771,-3.4565,-3.4712,-3.4277,-3.6148,-3.5861,-3.5711,-3.5594,-3.5301,-3.3856,-3.3028,-3.2415,-3.0991,-3.0092,-2.9722,-2.9335,-2.9183,-2.9091,-2.8668,-2.8396,-2.8201,-2.774,-2.7335,-2.6841,-2.6312,-2.566,-2.516,-2.4778,-2.3952,-2.291,-2.2684,-2.1877,-2.1036,-2.066,-2.066,-2.0673,-2.066,-2.066,-2.0723,-2.0934,-2.1095,-2.1131,-2.1361,-2.1554,-2.1698,-2.1841,-2.2016,-2.231,-2.2603,-2.2965,-2.3363,-2.3623,-2.3478,-2.295,-2.3304,-2.3537,-2.3824,-2.4078,-2.4204,-2.4343,-2.4343,-2.4317,-2.4109,-2.4051,-2.3925,-2.3551,-2.3436,-2.3187,-2.2844,-2.2678,-2.2417,-2.1935,-2.1602,-2.1264,-2.0759,-2.0258,-1.9965,-1.9811,-1.9617,-1.9473,-1.942,-1.942,-1.942,-1.942,-1.9368,-1.946,-1.9565,-1.9604,-1.9656,-1.9875,-1.9926,-2.008,-2.0283,-2.0523,-2.0871,-2.1229,-2.165,-2.2123,-2.2649,-2.3172,-2.396,-2.4736,-2.5884,-2.6572,-2.6999,-2.76,-2.817,-2.8791,-2.9363,-2.9799,-3.0132,-3.0989,-3.2022,-3.2726,-3.3274,-3.3966,-3.4571,-3.4212,-3.3788,-3.6259,-3.6191,-3.5958,-3.5844,-3.5491,-3.4049,-3.316,-3.2707,-3.1139,-3.0215,-2.9853,-2.9677,-2.9425,-2.9121,-2.8998,-2.8763,-2.8396,-2.8088,-2.769,-2.6945,-2.6578,-2.615,-2.566,-2.523,-2.4216,-2.3259,-2.2804,-2.2113,-2.1199,-2.097,-2.0983,-2.1082,-2.1118,-2.1131,-2.1277,-2.152,-2.1616,-2.1712,-2.1983,-2.2217,-2.2402,-2.2572,-2.2799,-2.3083,-2.3508,-2.3852,-2.4105,-2.442,-2.4527,-2.4461,-2.4328,-2.4328,-2.4467,-2.467,-2.4806,-2.4831,-2.4846,-2.4791,-2.467,-2.4508,-2.4385,-2.412,-2.3925,-2.3711,-2.3275,-2.3068,-2.2814,-2.2449,-2.2091,-2.1602,-2.0957,-2.061,-2.0308,-2.0118,-1.999,-1.9836,-1.9836,-1.9629,-1.9473,-1.942,-1.9512,-1.9565,-1.9604,-1.9708,-1.9811,-1.9926,-2.0093,-2.0195,-2.0435,-2.0723,-2.1118,-2.152,-2.203,-2.2586,-2.3128,-2.3819,-2.4792,-2.5542,-2.6619,-2.7582,-2.8004,-2.8408,-2.8897,-2.9361,-2.9818,-3.0162,-3.0374,-3.122,-3.2182,-3.2815,-3.3357,-3.3865,-3.4101,-3.3734,-3.3255,-3.6509,-3.6301,-3.6174,-3.5857,-3.5224,-3.4049,-3.3169,-3.2446,-3.1216,-3.0452,-3.0113,-2.9941,-2.9649,-2.9366,-2.9167,-2.8889,-2.8605,-2.8332,-2.7875,-2.7306,-2.6945,-2.6645,-2.6326,-2.5713,-2.4858,-2.3507,-2.3148,-2.2434,-2.1659,-2.1313,-2.1375,-2.1554,-2.1568,-2.1712,-2.1855,-2.2091,-2.2217,-2.2342,-2.2586,-2.2814,-2.3083,-2.326,-2.3595,-2.3937,-2.4313,-2.4599,-2.4934,-2.5075,-2.523,-2.5323,-2.5262,-2.5107,-2.5029,-2.5146,-2.5278,-2.5278,-2.5278,-2.5224,-2.5091,-2.4989,-2.4846,-2.4695,-2.4426,-2.4177,-2.3867,-2.3551,-2.3246,-2.2859,-2.2449,-2.1935,-2.1202,-2.0759,-2.051,-2.0422,-2.0233,-2.008,-2.0029,-1.9759,-1.9617,-1.9617,-1.9656,-1.9708,-1.9708,-1.9811,-1.9862,-1.9978,-2.0334,-2.0422,-2.066,-2.1006,-2.1458,-2.1902,-2.2449,-2.3024,-2.3608,-2.4505,-2.5648,-2.6488,-2.7344,-2.8182,-2.8809,-2.9177,-2.9561,-2.9883,-3.0142,-3.0289,-3.0614,-3.148,-3.2193,-3.2632,-3.3127,-3.3573,-3.363,-3.3229,-3.2719,-3.6771,-3.6367,-3.6264,-3.5683,-3.4864,-3.3949,-3.3093,-3.2239,-3.1284,-3.0757,-3.0468,-3.007,-2.987,-2.9665,-2.9321,-2.9121,-2.8826,-2.8477,-2.7974,-2.7675,-2.7423,-2.713,-2.6788,-2.6227,-2.537,-2.3905,-2.3602,-2.2876,-2.2097,-2.1807,-2.1855,-2.203,-2.2091,-2.2231,-2.2463,-2.2646,-2.2814,-2.2979,-2.3201,-2.3421,-2.3724,-2.3894,-2.4271,-2.4759,-2.5059,-2.5253,-2.5535,-2.5738,-2.5864,-2.6043,-2.6082,-2.5957,-2.5775,-2.5642,-2.568,-2.5675,-2.5696,-2.5642,-2.5567,-2.5432,-2.5317,-2.5224,-2.491,-2.463,-2.4385,-2.4036,-2.3653,-2.326,-2.2814,-2.2231,-2.1506,-2.1068,-2.0759,-2.0623,-2.0422,-2.0283,-2.0233,-2.0016,-1.9914,-1.9862,-1.9862,-1.9914,-1.9914,-1.9965,-2.0029,-2.0131,-2.0422,-2.0759,-2.1006,-2.1334,-2.1841,-2.2342,-2.2904,-2.3819,-2.448,-2.5266,-2.6421,-2.7238,-2.8083,-2.8735,-2.943,-2.974,-3.0023,-3.0153,-3.0354,-3.0478,-3.0891,-3.1732,-3.2293,-3.2561,-3.2912,-3.3401,-3.3193,-3.2706,-3.2144,-3.6948,-3.6799,-3.5993,-3.5446,-3.4932,-3.3658,-3.2792,-3.2275,-3.1461,-3.0952,-3.0651,-3.0417,-3.0103,-2.9782,-2.9547,-2.9259,-2.892,-2.8558,-2.8284,-2.8088,-2.784,-2.7524,-2.7108,-2.6564,-2.5689,-2.4776,-2.4127,-2.328,-2.239,-2.2137,-2.2263,-2.2449,-2.2509,-2.2692,-2.2979,-2.3157,-2.3334,-2.358,-2.3852,-2.4147,-2.4323,-2.4608,-2.4942,-2.546,-2.5705,-2.5924,-2.6068,-2.6332,-2.6556,-2.6607,-2.6742,-2.6758,-2.6641,-2.6349,-2.6189,-2.6134,-2.6118,-2.6082,-2.603,-2.5917,-2.5807,-2.5696,-2.5378,-2.5052,-2.4815,-2.4451,-2.4021,-2.3523,-2.2949,-2.237,-2.1807,-2.1361,-2.1144,-2.0911,-2.0699,-2.0523,-2.0448,-2.0283,-2.0182,-2.0182,-2.0169,-2.0118,-2.0067,-2.0118,-2.0271,-2.0422,-2.0723,-2.1118,-2.1458,-2.1827,-2.2342,-2.2844,-2.3377,-2.4399,-2.54,-2.6252,-2.7195,-2.7924,-2.8658,-2.9193,-2.9792,-3.018,-3.0411,-3.0368,-3.0486,-3.0671,-3.1231,-3.1922,-3.2281,-3.2472,-3.2847,-3.3208,-3.267,-3.2109,-3.1517,-3.6564,-3.6303,-3.5399,-3.4704,-3.4098,-3.3401,-3.2662,-3.2072,-3.156,-3.1213,-3.0935,-3.0609,-3.0316,-3.0,-2.9738,-2.9425,-2.9029,-2.8842,-2.8621,-2.8414,-2.8284,-2.8024,-2.752,-2.6886,-2.6113,-2.528,-2.4567,-2.3721,-2.2672,-2.2678,-2.2768,-2.2949,-2.3038,-2.326,-2.3566,-2.3767,-2.3979,-2.423,-2.4517,-2.4839,-2.5005,-2.5368,-2.5726,-2.612,-2.6367,-2.6522,-2.6691,-2.6856,-2.7068,-2.7181,-2.7258,-2.7289,-2.7258,-2.7132,-2.6841,-2.6657,-2.659,-2.6556,-2.6521,-2.6365,-2.6295,-2.6118,-2.5828,-2.5567,-2.523,-2.4839,-2.4313,-2.3638,-2.3053,-2.2477,-2.2044,-2.165,-2.134,-2.1207,-2.0934,-2.0835,-2.0749,-2.0599,-2.0549,-2.0498,-2.0334,-2.022,-2.022,-2.0321,-2.0459,-2.0709,-2.1006,-2.141,-2.1855,-2.2342,-2.2889,-2.3606,-2.4236,-2.5266,-2.6269,-2.7061,-2.7852,-2.859,-2.9157,-2.9693,-3.0017,-3.033,-3.0371,-3.0297,-3.0502,-3.0662,-3.1059,-3.155,-3.196,-3.2353,-3.2542,-3.257,-3.2039,-3.1493,-3.0931,-3.5971,-3.5625,-3.4779,-3.3965,-3.3295,-3.3085,-3.2611,-3.1906,-3.1651,-3.1445,-3.1213,-3.0814,-3.0485,-3.0215,-2.9913,-2.9605,-2.9229,-2.9167,-2.8982,-2.8795,-2.8653,-2.8431,-2.7837,-2.7189,-2.6334,-2.5409,-2.4777,-2.4015,-2.3275,-2.3157,-2.3304,-2.3451,-2.3653,-2.3867,-2.412,-2.4369,-2.467,-2.4934,-2.5192,-2.546,-2.5811,-2.6139,-2.6437,-2.6808,-2.6906,-2.71,-2.7258,-2.7444,-2.7547,-2.7654,-2.7742,-2.7789,-2.7829,-2.7829,-2.7654,-2.7352,-2.7213,-2.7053,-2.6923,-2.6825,-2.6691,-2.6538,-2.626,-2.601,-2.5626,-2.5137,-2.4486,-2.3666,-2.3083,-2.2661,-2.2324,-2.1855,-2.1568,-2.1375,-2.1242,-2.1046,-2.0997,-2.0898,-2.0861,-2.0699,-2.0485,-2.0435,-2.0485,-2.0623,-2.0809,-2.1153,-2.1444,-2.1921,-2.2402,-2.292,-2.3522,-2.4449,-2.5277,-2.6252,-2.7109,-2.7772,-2.8484,-2.9177,-2.9622,-3.0075,-3.0248,-3.0409,-3.0317,-3.0169,-3.0227,-3.0403,-3.079,-3.1278,-3.1825,-3.2155,-3.2175,-3.1934,-3.1422,-3.0914,-3.036,-3.5312,-3.5171,-3.4287,-3.3723,-3.3371,-3.2774,-3.2354,-3.2072,-3.1856,-3.1634,-3.1445,-3.1095,-3.0773,-3.0443,-3.0027,-2.9782,-2.9576,-2.9396,-2.9259,-2.9167,-2.8967,-2.8482,-2.7751,-2.6931,-2.6255,-2.5477,-2.4756,-2.4088,-2.3739,-2.3724,-2.3782,-2.3967,-2.4162,-2.4369,-2.4695,-2.4958,-2.523,-2.5513,-2.5832,-2.6175,-2.6539,-2.6856,-2.71,-2.7272,-2.7457,-2.7624,-2.7789,-2.7961,-2.8101,-2.811,-2.8237,-2.8291,-2.8317,-2.8317,-2.8317,-2.811,-2.7829,-2.7461,-2.7338,-2.7244,-2.7085,-2.6908,-2.6691,-2.6383,-2.5924,-2.5291,-2.4623,-2.4105,-2.3523,-2.3008,-2.2601,-2.2278,-2.1935,-2.1698,-2.152,-2.1326,-2.1229,-2.1193,-2.1095,-2.1095,-2.0934,-2.0898,-2.0911,-2.1046,-2.1215,-2.1554,-2.1888,-2.2388,-2.3039,-2.3636,-2.4418,-2.5394,-2.6219,-2.7152,-2.7852,-2.8507,-2.9027,-2.9723,-3.0008,-3.0302,-3.0292,-3.0292,-3.0105,-2.9989,-3.0071,-3.0344,-3.0862,-3.1364,-3.1799,-3.1865,-3.1741,-3.1312,-3.0794,-3.0293,-2.9837,-3.4379,-3.4523,-3.3639,-3.3186,-3.2964,-3.2579,-3.2371,-3.2232,-3.2054,-3.1856,-3.1634,-3.1406,-3.1061,-3.0658,-3.03,-3.0103,-2.993,-2.9694,-2.956,-2.947,-2.9241,-2.8772,-2.8018,-2.7221,-2.6502,-2.5681,-2.5102,-2.4789,-2.4492,-2.4313,-2.4328,-2.4517,-2.4775,-2.5029,-2.5269,-2.5556,-2.5815,-2.6104,-2.6488,-2.6889,-2.721,-2.7444,-2.7642,-2.78,-2.8027,-2.8165,-2.8273,-2.8422,-2.8594,-2.8626,-2.8725,-2.8755,-2.8803,-2.8803,-2.8785,-2.8725,-2.854,-2.8228,-2.7886,-2.773,-2.7539,-2.7324,-2.707,-2.6708,-2.6123,-2.5481,-2.4839,-2.442,-2.3809,-2.3304,-2.2904,-2.2601,-2.237,-2.2091,-2.1888,-2.1746,-2.1602,-2.1423,-2.1375,-2.1375,-2.1423,-2.1485,-2.1485,-2.1616,-2.1779,-2.2049,-2.2498,-2.3084,-2.3861,-2.4729,-2.5595,-2.6521,-2.7225,-2.7986,-2.8584,-2.9214,-2.9511,-3.0007,-3.0115,-3.0311,-3.0208,-3.0114,-2.9861,-2.9945,-3.0148,-3.0493,-3.0919,-3.1124,-3.1335,-3.1286,-3.121,-3.0714,-3.0192,-2.9761,-2.9257,-3.3767,-3.3962,-3.3243,-3.2834,-3.2672,-3.2608,-3.2507,-3.2422,-3.2249,-3.2054,-3.1819,-3.1579,-3.1257,-3.0925,-3.0617,-3.0426,-3.0342,-3.007,-2.9957,-2.9826,-2.9424,-2.887,-2.8046,-2.7348,-2.6621,-2.5918,-2.5456,-2.524,-2.5224,-2.5114,-2.5059,-2.5098,-2.5384,-2.5626,-2.5832,-2.6104,-2.6385,-2.6741,-2.7115,-2.7504,-2.776,-2.7933,-2.8128,-2.8317,-2.85,-2.8651,-2.8731,-2.885,-2.8984,-2.9052,-2.9101,-2.9148,-2.9172,-2.9172,-2.9169,-2.9123,-2.8993,-2.8832,-2.8515,-2.8273,-2.8007,-2.7719,-2.7355,-2.6906,-2.635,-2.5705,-2.5192,-2.4784,-2.4188,-2.3681,-2.329,-2.2963,-2.2783,-2.254,-2.2342,-2.2263,-2.217,-2.1983,-2.1874,-2.1921,-2.2016,-2.217,-2.217,-2.2203,-2.2328,-2.2589,-2.3069,-2.3721,-2.4713,-2.5737,-2.652,-2.7379,-2.8062,-2.8688,-2.9191,-2.9715,-3.0053,-3.0166,-3.0269,-3.0178,-2.9987,-2.9741,-2.9438,-2.9696,-3.0032,-3.0154,-3.0246,-3.0525,-3.0791,-3.0673,-3.0493,-3.0048,-2.9601,-2.915,-2.8732,-3.3735,-3.3575,-3.3226,-3.2993,-3.2884,-3.2823,-3.2674,-3.2507,-3.2422,-3.2284,-3.2054,-3.1691,-3.1428,-3.1218,-3.0965,-3.0764,-3.0723,-3.0468,-3.0293,-2.9953,-2.9433,-2.864,-2.7883,-2.7089,-2.6403,-2.5843,-2.5659,-2.577,-2.5844,-2.5888,-2.5758,-2.5642,-2.5941,-2.6156,-2.6385,-2.6657,-2.7019,-2.7382,-2.7713,-2.7943,-2.821,-2.8396,-2.8601,-2.8749,-2.8892,-2.903,-2.9144,-2.923,-2.9293,-2.9373,-2.9455,-2.9456,-2.9476,-2.9476,-2.9495,-2.9456,-2.9375,-2.9233,-2.906,-2.8682,-2.8317,-2.7926,-2.7517,-2.7117,-2.6674,-2.6104,-2.5631,-2.5192,-2.4623,-2.4162,-2.3809,-2.348,-2.326,-2.3038,-2.2844,-2.274,-2.2649,-2.2526,-2.2466,-2.2466,-2.2603,-2.2799,-2.3084,-2.3157,-2.3157,-2.342,-2.4184,-2.4854,-2.5749,-2.6749,-2.7397,-2.8149,-2.8772,-2.9322,-2.9711,-3.0059,-3.0199,-3.0105,-3.0082,-2.9866,-2.9604,-2.9323,-2.9101,-2.9231,-2.9502,-2.9556,-2.9614,-2.9928,-3.0087,-3.0028,-2.9761,-2.9316,-2.8857,-2.84,-2.8027,-3.3807,-3.3698,-3.3444,-3.3196,-3.2948,-3.2884,-3.2787,-3.2674,-3.2507,-3.2336,-3.2161,-3.1893,-3.1691,-3.1542,-3.1389,-3.1179,-3.11,-3.0781,-3.0449,-2.9978,-2.9353,-2.8523,-2.7728,-2.712,-2.666,-2.6122,-2.6066,-2.6137,-2.6225,-2.647,-2.6607,-2.6573,-2.6556,-2.6674,-2.6923,-2.721,-2.7595,-2.7886,-2.8183,-2.837,-2.8626,-2.8791,-2.8962,-2.9082,-2.9289,-2.9373,-2.9455,-2.9551,-2.9644,-2.9698,-2.9787,-2.9784,-2.9799,-2.9799,-2.9782,-2.975,-2.9681,-2.9589,-2.9435,-2.9056,-2.8651,-2.8228,-2.7818,-2.7413,-2.7053,-2.6505,-2.6087,-2.5668,-2.5192,-2.4719,-2.4354,-2.4063,-2.3824,-2.3551,-2.3377,-2.3275,-2.3172,-2.3098,-2.3098,-2.3172,-2.3319,-2.3508,-2.3864,-2.4184,-2.4184,-2.4266,-2.5141,-2.6009,-2.686,-2.7607,-2.8252,-2.8753,-2.9347,-2.969,-3.0067,-3.0194,-3.0272,-3.0047,-2.9843,-2.9493,-2.9165,-2.9034,-2.8863,-2.896,-2.9036,-2.9182,-2.9304,-2.9378,-2.9371,-2.9329,-2.9027,-2.8528,-2.8061,-2.763,-2.7327,-3.3921,-3.3815,-3.3661,-3.3404,-3.3122,-3.2979,-3.2902,-3.2805,-3.2674,-3.2473,-3.2267,-3.2108,-3.2001,-3.1856,-3.1691,-3.1542,-3.1287,-3.0891,-3.0347,-2.9777,-2.9109,-2.8344,-2.7644,-2.7095,-2.6747,-2.645,-2.6504,-2.6572,-2.6657,-2.699,-2.7166,-2.7195,-2.7227,-2.7338,-2.7413,-2.7789,-2.8119,-2.8335,-2.8543,-2.8749,-2.8962,-2.916,-2.927,-2.9415,-2.9589,-2.9718,-2.9769,-2.9834,-2.9915,-3.0015,-3.0079,-3.0123,-3.0118,-3.0114,-3.0104,-3.006,-2.9984,-2.9883,-2.9678,-2.9295,-2.8874,-2.85,-2.8146,-2.7789,-2.7382,-2.6937,-2.6522,-2.6139,-2.5668,-2.5253,-2.4902,-2.4639,-2.4395,-2.4173,-2.4021,-2.3879,-2.3837,-2.3794,-2.3837,-2.3879,-2.4105,-2.4338,-2.4847,-2.5255,-2.5526,-2.5619,-2.6235,-2.7013,-2.769,-2.8396,-2.8968,-2.9437,-2.9855,-3.0121,-3.0326,-3.0177,-2.9998,-2.9621,-2.9374,-2.9021,-2.8732,-2.8588,-2.8661,-2.8851,-2.8907,-2.8893,-2.8735,-2.8576,-2.8576,-2.867,-2.8192,-2.765,-2.7297,-2.6916,-2.6654,-3.4074,-3.3895,-3.3815,-3.3615,-3.3364,-3.3104,-3.2965,-3.2884,-3.2805,-3.2608,-3.2422,-3.2354,-3.2267,-3.2108,-3.1948,-3.1806,-3.1436,-3.0771,-3.0179,-2.9697,-2.8757,-2.7992,-2.7536,-2.713,-2.686,-2.6775,-2.6875,-2.7006,-2.7085,-2.7355,-2.76,-2.7789,-2.7876,-2.7933,-2.7829,-2.8156,-2.8466,-2.8712,-2.8905,-2.9052,-2.9209,-2.9433,-2.957,-2.9662,-2.9803,-2.9937,-3.0026,-3.008,-3.015,-3.0241,-3.0323,-3.0367,-3.0359,-3.0359,-3.0348,-3.0355,-3.0196,-3.0089,-3.0013,-2.9457,-2.9086,-2.8821,-2.8482,-2.8156,-2.7771,-2.7365,-2.6954,-2.659,-2.6142,-2.5815,-2.5481,-2.5214,-2.502,-2.4823,-2.4639,-2.4558,-2.4517,-2.4477,-2.4502,-2.4648,-2.4902,-2.5253,-2.5806,-2.6319,-2.6783,-2.7099,-2.7526,-2.8058,-2.8585,-2.9064,-2.958,-2.9815,-3.0136,-3.0077,-3.0141,-2.9958,-2.9696,-2.9287,-2.8887,-2.8488,-2.8268,-2.8118,-2.8281,-2.8617,-2.8451,-2.8201,-2.7883,-2.76,-2.7485,-2.7369,-2.7159,-2.6721,-2.6404,-2.619,-2.592,-3.4197,-3.4099,-3.3972,-3.3834,-3.3643,-3.3393,-3.3135,-3.2948,-3.2838,-3.2707,-3.2557,-3.2523,-3.2489,-3.2353,-3.2179,-3.1865,-3.1255,-3.0957,-3.0385,-2.9059,-2.8356,-2.7877,-2.7466,-2.7226,-2.7085,-2.7166,-2.7279,-2.7386,-2.7504,-2.773,-2.7933,-2.8146,-2.837,-2.8466,-2.8422,-2.8619,-2.881,-2.8975,-2.916,-2.9332,-2.9474,-2.9644,-2.9784,-2.9839,-3.0003,-3.0142,-3.0248,-3.029,-3.0367,-3.0441,-3.0501,-3.053,-3.053,-3.0511,-3.0521,-3.0501,-3.037,-3.0283,-3.0171,-2.9829,-2.9533,-2.9193,-2.8868,-2.8551,-2.8192,-2.784,-2.747,-2.7112,-2.6723,-2.6437,-2.6104,-2.5888,-2.5689,-2.546,-2.5307,-2.5253,-2.5176,-2.5137,-2.5176,-2.5389,-2.5668,-2.6302,-2.6914,-2.7373,-2.779,-2.8161,-2.8507,-2.8785,-2.9249,-2.9627,-3.0053,-3.01,-3.0233,-3.0086,-2.992,-2.9527,-2.9064,-2.8612,-2.8281,-2.7959,-2.7772,-2.7707,-2.7702,-2.7926,-2.7657,-2.7444,-2.7026,-2.6625,-2.6215,-2.592,-2.5865,-2.5811,-2.5701,-2.5425,-2.5203,-3.434,-3.4269,-3.4148,-3.4042,-3.3815,-3.3549,-3.3286,-3.3042,-3.2916,-3.2787,-3.2705,-3.2672,-3.2429,-3.2206,-3.2033,-3.1597,-3.0777,-3.0293,-2.9932,-2.8627,-2.8251,-2.7855,-2.7525,-2.7369,-2.743,-2.7539,-2.7647,-2.7748,-2.7904,-2.8101,-2.8317,-2.8576,-2.8797,-2.8915,-2.892,-2.9007,-2.9093,-2.9267,-2.9453,-2.9608,-2.9734,-2.9867,-2.9969,-3.0084,-3.0196,-3.0333,-3.0411,-3.0501,-3.0557,-3.0582,-3.0614,-3.0625,-3.0625,-3.0618,-3.061,-3.0595,-3.0554,-3.0463,-3.0317,-3.0216,-2.9924,-2.9623,-2.9275,-2.892,-2.859,-2.8272,-2.7964,-2.7631,-2.7348,-2.7066,-2.6757,-2.6539,-2.6298,-2.6104,-2.5961,-2.5892,-2.5908,-2.5835,-2.5964,-2.6177,-2.6556,-2.7226,-2.7906,-2.8408,-2.8841,-2.912,-2.9425,-2.9636,-2.9786,-3.0013,-3.0189,-3.0144,-2.9992,-2.9698,-2.9336,-2.8851,-2.8403,-2.7946,-2.7667,-2.7414,-2.7436,-2.7391,-2.7302,-2.7137,-2.6911,-2.6599,-2.6144,-2.5687,-2.5245,-2.4921,-2.4751,-2.4751,-2.4865,-2.4694,-2.4478,-3.4442,-3.4311,-3.4265,-3.4048,-3.3843,-3.3415,-3.3212,-3.3099,-3.3042,-3.2961,-3.2827,-3.2727,-3.224,-3.1576,-3.1455,-3.0932,-3.0149,-2.9444,-2.9031,-2.8649,-2.8127,-2.7841,-2.7754,-2.7701,-2.7777,-2.7864,-2.795,-2.8109,-2.83,-2.85,-2.8749,-2.9003,-2.9163,-2.9272,-2.9334,-2.9375,-2.9414,-2.9532,-2.97,-2.9839,-2.9965,-3.0095,-3.0203,-3.0302,-3.0411,-3.0501,-3.0593,-3.0668,-3.0697,-3.071,-3.0695,-3.0686,-3.0691,-3.0691,-3.0711,-3.07,-3.0685,-3.0595,-3.0519,-3.0432,-3.0297,-3.0013,-2.9678,-2.9299,-2.8975,-2.8676,-2.8402,-2.8129,-2.7851,-2.7589,-2.7348,-2.7129,-2.6888,-2.6723,-2.659,-2.659,-2.659,-2.6657,-2.679,-2.7063,-2.7407,-2.7978,-2.8635,-2.9176,-2.9486,-2.9698,-2.9859,-2.9858,-2.9998,-3.0051,-3.0121,-2.9889,-2.9665,-2.9223,-2.8775,-2.824,-2.7748,-2.73,-2.7143,-2.6935,-2.6969,-2.6915,-2.6698,-2.6455,-2.6218,-2.5783,-2.5175,-2.4681,-2.4234,-2.3956,-2.3839,-2.3956,-2.406,-2.393,-2.3767,-3.2919,-3.2837,-3.2774,-3.2649,-3.2493,-3.2269,-3.2584,-3.3314,-3.3274,-3.2931,-3.2307,-3.2265,-3.1727,-3.1047,-3.0838,-3.0297,-2.974,-2.9219,-2.8735,-2.8335,-2.8081,-2.8003,-2.795,-2.7979,-2.8081,-2.8191,-2.83,-2.8406,-2.8669,-2.8868,-2.9101,-2.9353,-2.9454,-2.9589,-2.9662,-2.9732,-2.9732,-2.9803,-2.9937,-3.006,-3.0169,-3.0278,-3.037,-3.0453,-3.0565,-3.0649,-3.0724,-3.0759,-3.0765,-3.0755,-3.0768,-3.0757,-3.0762,-3.0757,-3.0771,-3.0774,-3.0726,-3.0684,-3.0658,-3.0591,-3.0472,-3.0317,-3.007,-2.9765,-2.9399,-2.9086,-2.8819,-2.8572,-2.836,-2.8129,-2.789,-2.7689,-2.7495,-2.7374,-2.7282,-2.7251,-2.7265,-2.7339,-2.7537,-2.7914,-2.824,-2.8698,-2.9375,-2.9672,-2.9941,-3.0155,-3.0227,-3.0103,-3.0024,-3.0037,-2.9805,-2.9549,-2.9062,-2.8562,-2.8147,-2.7618,-2.713,-2.6689,-2.6582,-2.6426,-2.6291,-2.6184,-2.6045,-2.5656,-2.519,-2.4667,-2.4131,-2.3662,-2.3352,-2.3125,-2.3005,-2.3185,-2.3245,-2.3173,-2.3053,-3.2353,-3.2279,-3.2203,-3.2084,-3.1918,-3.1801,-3.2201,-3.2719,-3.2565,-3.2162,-3.1753,-3.1621,-3.1132,-3.042,-3.0191,-2.9758,-2.9015,-2.8852,-2.8574,-2.836,-2.8136,-2.8219,-2.8246,-2.8273,-2.8362,-2.8484,-2.8612,-2.8718,-2.898,-2.9206,-2.9434,-2.9608,-2.9717,-2.9801,-2.9915,-3.0007,-3.0061,-3.0095,-3.0169,-3.0254,-3.0344,-3.0423,-3.049,-3.0583,-3.0698,-3.0764,-3.0798,-3.0801,-3.0799,-3.0793,-3.0797,-3.08,-3.08,-3.08,-3.0797,-3.079,-3.0777,-3.0755,-3.0726,-3.0716,-3.0603,-3.0491,-3.0362,-3.0157,-2.9864,-2.957,-2.9316,-2.9056,-2.8874,-2.8664,-2.8446,-2.8264,-2.8129,-2.7992,-2.7946,-2.7918,-2.7984,-2.8004,-2.8319,-2.87,-2.9118,-2.952,-2.9886,-3.0161,-3.0248,-3.0212,-3.0019,-2.9776,-2.9648,-2.9583,-2.9273,-2.8895,-2.8346,-2.7814,-2.7402,-2.7069,-2.6652,-2.6287,-2.6108,-2.5963,-2.5673,-2.5334,-2.4997,-2.4543,-2.3975,-2.3543,-2.3198,-2.2944,-2.2628,-2.2396,-2.2149,-2.2199,-2.2322,-2.2469,-2.2334,-3.2245,-3.2141,-3.2145,-3.1845,-3.1817,-3.1621,-3.161,-3.1611,-3.1237,-3.1107,-3.1099,-3.0948,-3.0396,-2.9773,-2.9566,-2.9188,-2.8774,-2.8559,-2.8577,-2.8406,-2.838,-2.8432,-2.8492,-2.8543,-2.8619,-2.8767,-2.891,-2.9026,-2.9267,-2.9512,-2.9681,-2.9817,-2.9934,-3.0056,-3.0117,-3.0228,-3.0302,-3.0381,-3.04,-3.0451,-3.0511,-3.0571,-3.0646,-3.0689,-3.075,-3.0801,-3.0801,-3.0793,-3.08,-3.0801,-3.08,-3.0797,-3.0796,-3.0797,-3.0799,-3.0801,-3.08,-3.0792,-3.0777,-3.0767,-3.072,-3.0625,-3.0537,-3.0402,-3.019,-2.9915,-2.9626,-2.9455,-2.9256,-2.9107,-2.8893,-2.8782,-2.8669,-2.8591,-2.8567,-2.8548,-2.8603,-2.8741,-2.9018,-2.9359,-2.9641,-3.0018,-3.0094,-3.03,-3.0096,-3.0081,-2.9756,-2.9409,-2.9214,-2.9111,-2.8727,-2.8276,-2.7683,-2.7162,-2.6879,-2.6518,-2.6174,-2.5869,-2.5654,-2.5279,-2.4915,-2.448,-2.3995,-2.3505,-2.2967,-2.2702,-2.2347,-2.2087,-2.1827,-2.1639,-2.1388,-2.1262,-2.1336,-2.1474,-2.16,-3.07,-3.0639,-3.0528,-3.0409,-3.032,-3.0246,-3.0226,-3.0109,-2.9969,-3.0224,-3.0502,-3.035,-2.986,-2.9241,-2.9069,-2.8819,-2.871,-2.8587,-2.858,-2.8562,-2.8562,-2.8644,-2.8694,-2.8767,-2.8863,-2.9026,-2.9181,-2.9332,-2.9608,-2.9806,-2.9918,-3.0018,-3.0155,-3.026,-3.0337,-3.0413,-3.0501,-3.0607,-3.061,-3.061,-3.0658,-3.0703,-3.0769,-3.0778,-3.0799,-3.0795,-3.08,-3.08,-3.0793,-3.0801,-3.0796,-3.0788,-3.0801,-3.081,-3.0816,-3.0806,-3.0952,-3.1054,-3.1072,-3.1103,-3.1097,-3.0921,-3.0827,-3.0661,-3.0443,-3.0196,-2.9988,-2.9839,-2.9662,-2.9514,-2.9399,-2.9321,-2.9262,-2.92,-2.9159,-2.92,-2.9223,-2.9455,-2.9711,-2.9925,-3.0175,-3.0248,-3.0312,-3.0232,-3.0014,-2.966,-2.9189,-2.8824,-2.8639,-2.8468,-2.8067,-2.7619,-2.7044,-2.658,-2.6304,-2.5909,-2.5501,-2.5228,-2.4964,-2.4583,-2.4168,-2.3467,-2.2822,-2.2457,-2.2051,-2.1765,-2.1526,-2.1273,-2.1083,-2.0816,-2.0624,-2.0431,-2.0366,-2.0431,-2.0635,-3.024,-3.0133,-3.0034,-2.9959,-2.9893,-2.9805,-2.9771,-2.9719,-2.9626,-2.9774,-3.0004,-2.9806,-2.9425,-2.9021,-2.8905,-2.8815,-2.8834,-2.8785,-2.8804,-2.8785,-2.8791,-2.8887,-2.8934,-2.9003,-2.916,-2.931,-2.9455,-2.9644,-2.9924,-3.0026,-3.0122,-3.0222,-3.0337,-3.0442,-3.0519,-3.0571,-3.0632,-3.072,-3.0735,-3.0747,-3.0747,-3.0765,-3.0801,-3.0793,-3.08,-3.08,-3.0793,-3.0784,-3.0791,-3.0782,-3.0769,-3.0765,-3.0877,-3.1154,-3.1339,-3.1531,-3.1728,-3.1958,-3.1908,-3.1855,-3.1831,-3.1775,-3.1839,-3.1966,-3.2007,-3.1739,-3.091,-3.0682,-3.0123,-2.9908,-2.9807,-2.972,-2.9685,-2.9635,-2.9668,-2.9718,-2.9808,-2.9958,-3.0114,-3.0237,-3.0331,-3.0247,-3.0314,-3.0422,-3.0175,-2.9756,-2.9203,-2.8673,-2.8395,-2.7816,-2.7415,-2.6969,-2.6382,-2.6047,-2.5813,-2.5348,-2.4783,-2.4518,-2.423,-2.3645,-2.299,-2.2274,-2.1616,-2.1365,-2.1112,-2.0869,-2.0624,-2.0366,-2.0226,-1.9955,-1.977,-1.9584,-1.9518,-1.9386,-1.9441,-3.0323,-3.0215,-3.0123,-3.0087,-3.0022,-2.9956,-2.9907,-2.9893,-2.9789,-2.9735,-2.9757,-2.9487,-2.9267,-2.92,-2.9112,-2.9067,-2.9021,-2.9026,-2.9044,-2.9044,-2.9089,-2.9138,-2.9206,-2.9312,-2.9434,-2.9589,-2.975,-2.9915,-3.0118,-3.0209,-3.0302,-3.0423,-3.0491,-3.0571,-3.0665,-3.0709,-3.073,-3.0768,-3.079,-3.078,-3.08,-3.0799,-3.0801,-3.08,-3.0795,-3.0784,-3.0785,-3.0786,-3.0793,-3.0881,-3.0924,-3.1035,-3.1288,-3.1702,-3.2039,-3.2291,-3.264,-3.295,-3.3126,-3.3031,-3.3122,-3.3222,-3.3346,-3.3305,-3.3262,-3.2848,-3.2027,-3.1554,-3.1002,-3.0698,-3.0611,-3.0529,-3.0484,-3.0459,-3.0528,-3.056,-3.0645,-3.0717,-3.0778,-3.0839,-3.068,-3.0571,-3.0463,-3.0587,-3.0209,-2.9821,-2.9331,-2.8853,-2.8251,-2.7444,-2.6779,-2.6275,-2.5705,-2.5437,-2.528,-2.4664,-2.4035,-2.3584,-2.32,-2.2542,-2.1916,-2.1239,-2.0677,-2.0431,-2.0172,-1.9911,-1.9639,-1.9375,-1.9243,-1.909,-1.8844,-1.8654,-1.8586,-1.8452,-1.824,-3.0394,-3.026,-3.0213,-3.019,-3.0142,-3.0083,-3.0022,-2.9972,-2.9975,-2.9926,-2.9842,-2.9736,-2.9608,-2.9451,-2.9312,-2.9249,-2.9267,-2.9267,-2.9249,-2.9251,-2.933,-2.9392,-2.9454,-2.9533,-2.9717,-2.9869,-3.0041,-3.0202,-3.0316,-3.0398,-3.0472,-3.0552,-3.0613,-3.0689,-3.0739,-3.0765,-3.0767,-3.08,-3.08,-3.0792,-3.0786,-3.079,-3.0792,-3.0784,-3.0794,-3.079,-3.0789,-3.0745,-3.0722,-3.0886,-3.1278,-3.1515,-3.1942,-3.2427,-3.2842,-3.3099,-3.3453,-3.3615,-3.374,-3.3754,-3.3821,-3.3779,-3.3769,-3.371,-3.3665,-3.3639,-3.3122,-3.3067,-3.2647,-3.2454,-3.2335,-3.2258,-3.2191,-3.2194,-3.2237,-3.2219,-3.2264,-3.2205,-3.2192,-3.2018,-3.1768,-3.1432,-3.1016,-3.0752,-3.0098,-2.9562,-2.8747,-2.8277,-2.7774,-2.6995,-2.614,-2.5492,-2.4966,-2.4819,-2.4608,-2.3853,-2.3229,-2.2712,-2.2163,-2.1404,-2.0782,-2.0237,-1.9791,-1.9518,-1.9253,-1.8921,-1.8654,-1.8375,-1.823,-1.8017,-1.7842,-1.7647,-1.7579,-1.7432,-1.7285]},{"header":{"parameterUnit":"m.s-1","parameterCategory":1,"la1":31.0,"la2":29.5877,"lo1":-88.7671,"lo2":-86.6584,"dy":0.0162,"dx":0.0185,"nx":115,"ny":88,"refTime":"2023-06-01T18:00:00:Z","depth":0,"parameterNumber":3,"parameterNumberName":"V-component_of_WINDS"},"data":[0.0,0.0,0.0,0.0,0.0,0.0,0.0,0.0,0.0,0.0,0.0,0.0,0.0,0.0,0.0,0.0,0.0,0.0,0.0,0.0,0.0,0.0,0.0,0.0,0.0,0.0,0.0,0.0,0.0,0.0,0.0,0.0,0.0,0.0,0.0,0.0,0.0,0.0,0.0,0.0,0.0,0.0,0.0,0.0,0.0,0.0,0.0,0.0,0.0,0.0,0.0,0.0,0.0,0.0,0.0,0.0,0.0,0.0,0.0,0.0,0.0,0.0,0.0,0.0,0.0,0.0,0.0,0.0,0.0,0.0,0.0,0.0,0.0,0.0,0.0,0.0,0.0,0.0,0.0,0.0,0.0,0.0,0.0,0.0,0.0,0.0,0.0,0.0,0.0,0.0,0.0,0.0,0.0,0.0,0.0,0.0,0.0,0.0,0.0,0.0,0.0,0.0,0.0,0.0,0.0,0.0,0.0,0.0,0.0,0.0,0.0,0.0,0.0,0.0,0.0,0.0,0.0,0.0,0.0,0.0,0.0,0.0,0.0,0.0,0.0,0.0,0.0,0.0,0.0,0.0,0.0,0.0,0.0,0.0,0.0,0.0,0.0,0.0,0.0,0.0,0.0,0.0,0.0,0.0,0.0,0.0,0.0,0.0,0.0,0.0,0.0,0.0,0.0,0.0,0.0,0.0,0.0,0.0,0.0,0.0,0.0,0.0,0.0,0.0,0.0,0.0,0.0,0.0,0.0,0.0,0.0,0.0,0.0,0.0,0.0,0.0,0.0,0.0,0.0,0.0,0.0,0.0,0.0,0.0,0.0,0.0,0.0,0.0,0.0,0.0,0.0,0.0,0.0,0.0,0.0,0.0,0.0,0.0,0.0,0.0,0.0,0.0,0.0,0.0,0.0,0.0,0.0,0.0,0.0,0.0,0.0,0.0,0.0,0.0,0.0,0.0,0.0,0.0,0.0,0.0,0.0,0.0,0.0,0.0,0.0,0.0,0.0,0.0,0.0,0.0,0.0,0.0,0.0,0.0,0.0,0.0,0.0,0.0,0.0,0.0,0.0,0.0,0.0,0.0,0.0,0.0,0.0,0.0,0.0,0.0,0.0,0.0,0.0,0.0,0.0,0.0,0.0,0.0,0.0,0.0,0.0,0.0,0.0,0.0,0.0,0.0,0.0,0.0,0.0,0.0,0.0,0.0,0.0,0.0,0.0,0.0,0.0,0.0,0.0,0.0,0.0,0.0,0.0,0.0,0.0,0.0,0.0,0.0,0.0,0.0,0.0,0.0,0.0,0.0,0.0,0.0,0.0,0.0,0.0,0.0,0.0,0.0,0.0,0.0,0.0,0.0,0.0,0.0,0.0,0.0,0.0,0.0,0.0,0.0,0.0,0.0,0.0,0.0,0.0,0.0,0.0,0.0,0.0,0.0,0.0,0.0,0.0,0.0,0.0,0.0,0.0,0.0,0.0,0.0,0.0,0.0,0.0,0.0,0.0,0.0,0.0,0.0,0.0,0.0,0.0,0.0,0.0,0.0,0.0,0.0,0.0,0.0,0.0,0.0,0.0,0.0,0.0,0.0,0.0,0.0,0.0,0.0,0.0,0.0,0.0,0.0,0.0,0.0,0.0,0.0,0.0,0.0,0.0,0.0,0.0,0.0,0.0,0.0,0.0,0.0,0.0,0.0,0.0,0.0,0.0,0.0,0.0,0.0,0.0,0.0,0.0,0.0,0.0,0.0,0.0,0.0,0.0,0.0,0.0,0.0,0.0,0.0,0.0,0.0,0.0,0.0,0.0,0.0,0.0,0.0,0.0,0.0,0.0,0.0,0.0,0.0,0.0,0.0,0.0,0.0,0.0,0.0,0.0,0.0,0.0,0.0,0.0,0.0,0.0,0.0,0.0,0.0,0.0,0.0,0.0,0.0,0.0,0.0,0.0,0.0,0.0,0.0,0.0,0.0,0.0,0.0,0.0,0.0,0.0,0.0,0.0,0.0,0.0,0.0,0.0,0.0,0.0,0.0,0.0,0.0,0.0,0.0,0.0,0.0,0.0,0.0,0.0,0.0,0.0,0.0,0.0,0.0,0.0,0.0,0.0,0.0,0.0,0.0,0.0,0.0,0.0,0.0,0.0,0.0,0.0,0.0,0.0,0.0,0.0,0.0,0.0,0.0,0.0,0.0,0.0,0.0,0.0,0.0,0.0,0.0,0.0,0.0,0.0,0.0,0.0,0.0,0.0,0.0,0.0,0.0,0.0,0.0,0.0,0.0,0.0,0.0,0.0,0.0,0.0,0.0,0.0,0.0,0.0,0.0,0.0,0.0,0.0,0.0,0.0,0.0,0.0,0.0,0.0,0.0,0.0,0.0,0.0,0.0,0.0,0.0,0.0,0.0,0.0,0.0,0.0,0.0,0.0,0.0,0.0,0.0,0.0,0.0,0.0,0.0,0.0,0.0,0.0,0.0,0.0,0.0,0.0,0.0,0.0,0.0,0.0,0.0,0.0,0.0,0.0,0.0,0.0,0.0,0.0,0.0,0.0,0.0,0.0,0.0,0.0,0.0,0.0,0.0,0.0,0.0,0.0,0.0,0.0,0.0,0.0,0.0,0.0,0.0,0.0,0.0,0.0,0.0,0.0,0.0,0.0,0.0,0.0,0.0,0.0,0.0,0.0,0.0,0.0,0.0,0.0,0.0,0.0,0.0,0.0,0.0,0.0,0.0,0.0,0.0,0.0,0.0,0.0,0.0,0.0,0.0,0.0,0.0,0.0,0.0,0.0,0.0,0.0,0.0,0.0,0.0,0.0,0.0,0.0,0.0,0.0,0.0,0.0,0.0,0.0,0.0,0.0,0.0,0.0,0.0,0.0,0.0,0.0,0.0,0.0,0.0,0.0,0.0,0.0,0.0,0.0,0.0,0.0,0.0,0.0,0.0,0.0,0.0,0.0,0.0,0.0,0.0,0.0,0.0,0.0,0.0,0.0,0.0,0.0,0.0,0.0,0.0,0.0,0.0,0.0,0.0,0.0,0.0,0.0,0.0,0.0,0.0,0.0,0.0,0.0,0.0,0.0,0.0,0.0,0.0,0.0,0.0,0.0,0.0,0.0,0.0,0.0,0.0,0.0,0.0,0.0,0.0,0.0,0.0,0.0,0.0,0.0,0.0,0.0,0.0,0.0,0.0,0.0,0.0,0.0,0.0,0.0,0.0,0.0,0.0,0.0,0.0,0.0,0.0,0.0,0.0,0.0,0.0,0.0,0.0,0.0,0.0,0.0,0.0,0.0,0.0,0.0,0.0,0.0,0.0,0.0,0.0,0.0,0.0,0.0,0.0,0.0,0.0,0.0,0.0,0.0,0.0,0.0,0.0,0.0,0.0,0.0,0.0,0.0,0.0,0.0,0.0,0.0,0.0,0.0,0.0,0.0,0.0,0.0,0.0,0.0,0.0,0.0,0.0,0.0,0.0,0.0,0.0,0.0,0.0,0.0,0.0,0.0,0.0,0.0,0.0,0.0,0.0,0.0,0.0,0.0,0.0,0.0,0.0,0.0,0.0,0.0,0.0,0.0,0.0,0.0,0.0,0.0,0.0,0.0,0.0,0.0,0.0,0.0,0.0,0.0,0.0,0.0,0.0,0.0,0.0,0.0,0.0,0.0,0.0,0.0,0.0,0.0,0.0,0.0,0.0,0.0,0.0,0.0,0.0,0.0,0.0,0.0,0.0,0.0,0.0,0.0,0.0,0.0,0.0,0.0,0.0,0.0,0.0,0.0,0.0,0.0,0.0,0.0,0.0,0.0,0.0,0.0,0.0,0.0,0.0,0.0,0.0,0.0,0.0,0.0,0.0,0.0,0.0,0.0,0.0,0.0,0.0,0.0,0.0,0.0,0.0,0.0,0.0,0.0,0.0,0.0,0.0,0.0,0.0,0.0,0.0,0.0,0.0,0.0,0.0,0.0,0.0,0.0,0.0,0.0,0.0,0.0,0.0,0.0,0.0,0.0,0.0,0.0,0.0,0.0,0.0,0.0,0.0,0.0,0.0,0.0,0.0,0.0,0.0,0.0,0.0,0.0,0.0,0.0,0.0,0.0,0.0,0.0,0.0,0.0,0.0,0.0,0.0,0.0,0.0,0.0,0.0,0.0,0.0,0.0,0.0,0.0,0.0,0.0,0.0,0.0,0.0,0.0,0.0,0.0,0.0,0.0,0.0,0.0,0.0,0.0,0.0,0.0,0.0,0.0,0.0,0.0,0.0,0.0,0.0,0.0,0.0,-0.5891,0.0,0.0,0.0,0.0,0.0,0.0,0.0,0.0,0.0,0.0,0.0,0.0,0.0,0.0,0.0,0.0,0.0,0.0,0.0,0.0,0.0,0.0,0.0,0.0,0.0,0.0,0.0,0.0,0.0,0.0,0.0,0.0,0.0,0.0,0.0,0.0,0.0,0.0,0.0,0.0,0.0,0.0,0.0,0.0,0.0,0.0,0.0,0.0,0.0,0.0,0.0,0.0,0.0,0.0,0.0,0.0,0.0,0.0,0.0,0.0,0.0,0.0,0.0,0.0,0.0,0.0,0.0,0.0,0.0,0.0,0.0,0.0,0.0,0.0,0.0,0.0,0.0,0.0,0.0,0.0,0.0,0.0,0.0,0.0,0.0,0.0,0.0,0.0,0.0,0.0,0.0,0.0,0.0,0.0,0.0,0.0,0.0,0.0,0.0,0.0,0.0,0.0,0.0,0.0,0.0,0.0,0.0,0.0,0.0,0.0,-0.7931,-0.7408,-0.7079,-0.6707,-0.6218,0.0,0.0,0.0,0.0,0.0,0.0,0.0,0.0,0.0,0.0,0.0,0.0,0.0,0.0,0.0,0.0,0.0,0.0,0.0,0.0,0.0,0.0,0.0,0.0,0.0,0.0,0.0,0.0,0.0,0.0,0.0,0.0,0.0,0.0,0.0,0.0,0.0,0.0,0.0,0.0,0.0,0.0,0.0,0.0,0.0,0.0,0.0,0.0,0.0,0.0,0.0,0.0,0.0,0.0,0.0,0.0,0.0,0.0,0.0,0.0,0.0,0.0,0.0,0.0,0.0,0.0,0.0,0.0,0.0,0.0,0.0,0.0,0.0,0.0,0.0,0.0,0.0,0.0,0.0,0.0,0.0,0.0,0.0,0.0,0.0,0.0,0.0,0.0,0.0,0.0,0.0,0.0,0.0,0.0,0.0,0.0,0.0,0.0,0.0,0.0,0.0,0.0,0.0,0.0,0.0,0.0,0.0,0.0,0.0,0.0,0.0,0.0,-0.7354,-0.6977,-0.649,0.0,0.0,0.0,0.0,0.0,0.0,0.0,0.0,0.0,0.0,0.0,0.0,0.0,0.0,0.0,0.0,0.0,0.0,0.0,0.0,0.0,0.0,0.0,0.0,0.0,0.0,0.0,0.0,0.0,0.0,0.0,0.0,0.0,0.0,0.0,0.0,0.0,0.0,0.0,0.0,0.0,0.0,0.0,0.0,0.0,0.0,0.0,0.0,0.0,0.0,0.0,0.0,0.0,0.0,0.0,0.0,0.0,0.0,0.0,0.0,0.0,0.0,0.0,0.0,0.0,0.0,0.0,0.0,0.0,0.0,0.0,0.0,0.0,0.0,0.0,0.0,0.0,0.0,0.0,0.0,0.0,0.0,0.0,0.0,0.0,0.0,0.0,0.0,0.0,0.0,0.0,0.0,0.0,0.0,0.0,0.0,0.0,0.0,0.0,0.0,0.0,0.0,0.0,0.0,0.0,0.0,0.0,0.0,0.0,0.0,-0.8633,-0.7877,-0.7622,0.0,-0.6701,0.0,0.0,0.0,0.0,0.0,0.0,0.0,0.0,0.0,0.0,0.0,0.0,0.0,0.0,0.0,0.0,0.0,0.0,0.0,0.0,0.0,0.0,0.0,0.0,0.0,0.0,0.0,0.0,0.0,0.0,0.0,0.0,0.0,0.0,0.0,0.0,0.0,0.0,0.0,0.0,0.0,0.0,0.0,0.0,0.0,0.0,0.0,0.0,0.0,0.0,0.0,0.0,0.0,0.0,0.0,0.0,0.0,0.0,0.0,0.0,0.0,0.0,0.0,0.0,0.0,0.0,0.0,0.0,0.0,0.0,0.0,0.0,0.0,0.0,0.0,0.0,0.0,0.0,0.0,0.0,0.0,0.0,0.0,0.0,0.0,0.0,0.0,0.0,0.0,0.0,0.0,0.0,0.0,0.0,0.0,0.0,0.0,0.0,0.0,0.0,0.0,0.0,0.0,0.0,0.0,0.0,0.0,0.0,0.0,0.0,-0.8633,-0.7919,-0.7509,-0.7144,0.0,0.0,0.0,0.0,0.0,0.0,0.0,0.0,0.0,0.0,0.0,0.0,0.0,0.0,0.0,0.0,0.0,0.0,0.0,0.0,0.0,0.0,0.0,0.0,0.0,0.0,0.0,0.0,0.0,0.0,0.0,0.0,0.0,0.0,0.0,0.0,0.0,0.0,0.0,0.0,0.0,0.0,0.0,0.0,0.0,0.0,0.0,0.0,0.0,0.0,0.0,0.0,0.0,0.0,0.0,0.0,0.0,0.0,0.0,0.0,0.0,0.0,0.0,0.0,0.0,0.0,0.0,0.0,0.0,0.0,0.0,0.0,0.0,0.0,0.0,0.0,0.0,0.0,0.0,0.0,0.0,0.0,0.0,0.0,0.0,0.0,0.0,0.0,0.0,0.0,0.0,0.0,0.0,0.0,0.0,0.0,0.0,0.0,0.0,0.0,0.0,0.0,0.0,0.0,0.0,0.0,0.0,0.0,0.0,0.0,-0.9451,-0.8573,-0.7717,-0.7241,-0.6923,-0.682,0.0,0.0,0.0,0.0,0.0,0.0,0.0,0.0,0.0,0.0,0.0,0.0,0.0,0.0,0.0,0.0,0.0,0.0,0.0,0.0,0.0,0.0,0.0,0.0,0.0,0.0,0.0,0.0,0.0,0.0,0.0,0.0,0.0,0.0,0.0,0.0,0.0,0.0,0.0,0.0,0.0,0.0,0.0,0.0,0.0,0.0,0.0,0.0,0.0,0.0,0.0,0.0,0.0,0.0,0.0,0.0,0.0,0.0,0.0,0.0,0.0,0.0,0.0,0.0,0.0,0.0,0.0,0.0,0.0,0.0,0.0,0.0,0.0,0.0,0.0,0.0,0.0,0.0,0.0,0.0,0.0,0.0,0.0,0.0,0.0,0.0,0.0,0.0,0.0,0.0,0.0,0.0,0.0,0.0,0.0,0.0,0.0,0.0,0.0,0.0,0.0,0.0,0.0,0.0,0.0,0.0,0.0,0.0,-1.0618,-0.9547,-0.8402,-0.7192,-0.6864,-0.6707,0.0,0.0,0.0,0.0,0.0,0.0,0.0,0.0,0.0,0.0,0.0,0.0,0.0,0.0,0.0,0.0,0.0,0.0,0.0,0.0,0.0,0.0,0.0,0.0,0.0,0.0,0.0,0.0,0.0,0.0,0.0,0.0,0.0,0.0,0.0,0.0,0.0,0.0,0.0,0.0,0.0,0.0,0.0,0.0,0.0,0.0,0.0,0.0,0.0,0.0,0.0,0.0,0.0,0.0,0.0,0.0,0.0,0.0,0.0,0.0,0.0,0.0,0.0,0.0,0.0,0.0,0.0,0.0,0.0,0.0,0.0,0.0,0.0,0.0,0.0,0.0,0.0,0.0,0.0,0.0,0.0,0.0,0.0,0.0,0.0,0.0,0.0,0.0,0.0,0.0,0.0,0.0,0.0,0.0,0.0,0.0,0.0,0.0,0.0,0.0,0.0,0.0,0.0,0.0,0.0,0.0,0.0,0.0,0.0,-1.0586,-0.8646,-0.7348,-0.6707,-0.6485,-0.6431,0.0,0.0,0.0,0.0,0.0,0.0,0.0,0.0,0.0,0.0,0.0,0.0,0.0,0.0,0.0,0.0,0.0,0.0,0.0,0.0,0.0,0.0,0.0,0.0,0.0,0.0,0.0,0.0,0.0,0.0,0.0,0.0,0.0,0.0,0.0,0.0,0.0,0.0,0.0,0.0,0.0,0.0,0.0,0.0,0.0,0.0,0.0,0.0,0.0,0.0,0.0,0.0,0.0,0.0,0.0,0.0,0.0,0.0,0.0,0.0,0.0,0.0,0.0,0.0,0.0,0.0,0.0,0.0,0.0,0.0,0.0,0.0,0.0,0.0,0.0,0.0,0.0,0.0,0.0,0.0,0.0,0.0,0.0,0.0,0.0,0.0,0.0,0.0,0.0,0.0,0.0,0.0,0.0,0.0,0.0,0.0,0.0,0.0,0.0,0.0,0.0,0.0,0.0,0.0,0.0,0.0,0.0,0.0,0.0,-0.8989,0.0,-0.6332,0.0,-0.6046,-0.605,0.0,0.0,0.0,0.0,0.0,0.0,0.0,0.0,0.0,0.0,0.0,0.0,0.0,0.0,0.0,0.0,0.0,0.0,0.0,0.0,0.0,0.0,0.0,0.0,0.0,0.0,0.0,0.0,0.0,0.0,0.0,0.0,0.0,0.0,0.0,0.0,0.0,0.0,0.0,0.0,0.0,0.0,0.0,0.0,0.0,0.0,0.0,0.0,0.0,0.0,0.0,0.0,0.0,0.0,0.0,0.0,0.0,0.0,0.0,0.0,0.0,0.0,0.0,0.0,0.0,0.0,0.0,0.0,0.0,0.0,0.0,0.0,0.0,0.0,0.0,0.0,0.0,0.0,0.0,0.0,0.0,0.0,0.0,0.0,0.0,0.0,0.0,0.0,0.0,0.0,0.0,0.0,0.0,0.0,0.0,0.0,0.0,0.0,0.0,0.0,0.0,0.0,0.0,0.0,0.0,0.0,0.0,0.0,-0.9888,-0.5864,-0.5738,-0.5684,-0.5328,-0.5508,-0.5567,0.0,0.0,0.0,0.0,0.0,0.0,0.0,0.0,0.0,0.0,0.0,0.0,0.0,0.0,0.0,0.0,0.0,0.0,0.0,0.0,0.0,0.0,0.0,0.0,0.0,0.0,0.0,0.0,0.0,0.0,0.0,0.0,0.0,0.0,0.0,0.0,0.0,0.0,0.0,0.0,0.0,0.0,0.0,0.0,0.0,0.0,0.0,0.0,0.0,0.0,0.0,0.0,0.0,0.0,0.0,0.0,0.0,0.0,0.0,0.0,0.0,0.0,0.0,0.0,0.0,0.0,0.0,0.0,0.0,0.0,0.0,0.0,0.0,0.0,0.0,0.0,0.0,0.0,0.0,0.0,0.0,0.0,0.0,0.0,0.0,0.0,0.0,0.0,0.0,0.0,0.0,0.0,0.0,0.0,0.0,0.0,0.0,0.0,0.0,0.0,0.0,0.0,0.0,0.0,0.0,0.0,0.0,0.0,0.0,-0.9328,-0.8906,-0.7412,-0.4703,-0.4846,-0.5014,0.0,0.0,0.0,0.0,0.0,0.0,0.0,0.0,0.0,0.0,0.0,0.0,0.0,0.0,0.0,0.0,0.0,0.0,0.0,0.0,0.0,0.0,0.0,0.0,0.0,0.0,0.0,0.0,0.0,0.0,0.0,0.0,0.0,0.0,0.0,0.0,0.0,0.0,0.0,0.0,0.0,0.0,0.0,0.0,0.0,0.0,0.0,0.0,0.0,0.0,0.0,0.0,0.0,0.0,0.0,0.0,0.0,0.0,0.0,0.0,0.0,0.0,0.0,0.0,0.0,0.0,0.0,0.0,0.0,0.0,0.0,0.0,0.0,0.0,0.0,0.0,0.0,0.0,0.0,0.0,0.0,0.0,0.0,0.0,0.0,0.0,0.0,0.0,0.0,0.0,0.0,0.0,0.0,0.0,0.0,0.0,0.0,0.0,0.0,0.0,0.0,0.0,0.0,0.0,0.0,0.0,0.0,0.0,0.0,-1.4291,-1.1303,-0.8609,-0.6182,-0.5019,-0.5129,-0.6624,0.0,0.0,0.0,0.0,0.0,0.0,0.0,0.0,0.0,0.0,0.0,0.0,0.0,0.0,0.0,0.0,0.0,0.0,0.0,0.0,0.0,0.0,0.0,0.0,0.0,0.0,0.0,0.0,0.0,0.0,0.0,0.0,0.0,0.0,0.0,0.0,0.0,0.0,0.0,0.0,0.0,0.0,0.0,0.0,0.0,0.0,0.0,0.0,0.0,0.0,0.0,0.0,0.0,0.0,0.0,0.0,0.0,0.0,0.0,0.0,0.0,0.0,0.0,0.0,0.0,0.0,0.0,0.0,0.0,0.0,0.0,0.0,0.0,0.0,0.0,0.0,0.0,0.0,0.0,0.0,0.0,0.0,0.0,0.0,0.0,0.0,0.0,0.0,0.0,0.0,0.0,0.0,0.0,0.0,0.0,0.0,0.0,0.0,0.0,0.0,0.0,0.0,0.0,0.0,0.0,0.0,0.0,0.0,-2.0157,-1.3304,-0.9733,-0.9534,-0.6426,-0.6302,0.0,0.0,0.0,0.0,0.0,0.0,0.0,0.0,0.0,0.0,0.0,0.0,0.0,0.0,0.0,0.0,0.0,0.0,0.0,0.0,0.0,0.0,0.0,0.0,0.0,0.0,0.0,0.0,0.0,0.0,0.0,0.0,0.0,0.0,0.0,0.0,0.0,0.0,0.0,0.0,0.0,0.0,0.0,0.0,0.0,0.0,0.0,0.0,0.0,0.0,0.0,0.0,0.0,0.0,0.0,0.0,0.0,0.0,0.0,0.0,0.0,0.0,0.0,0.0,0.0,0.0,0.0,0.0,0.0,0.0,0.0,0.0,0.0,0.0,0.0,0.0,0.0,0.0,0.0,0.0,0.0,0.0,0.0,0.0,0.0,0.0,0.0,0.0,0.0,0.0,0.0,0.0,0.0,0.0,0.0,0.0,0.0,0.0,0.0,0.0,0.0,0.0,0.0,0.0,0.0,0.0,0.0,0.0,0.0,-2.3939,-1.9497,-1.5795,-1.3191,-1.2345,-1.2424,0.0,0.0,0.0,0.0,0.0,0.0,0.0,0.0,0.0,0.0,0.0,0.0,0.0,0.0,0.0,0.0,0.0,0.0,0.0,0.0,0.0,0.0,0.0,0.0,0.0,0.0,0.0,0.0,0.0,0.0,0.0,0.0,0.0,0.0,0.0,0.0,0.0,0.0,0.0,0.0,0.0,0.0,0.0,0.0,0.0,0.0,0.0,0.0,0.0,0.0,0.0,0.0,0.0,0.0,0.0,0.0,0.0,0.0,0.0,0.0,0.0,0.0,0.0,0.0,0.0,0.0,0.0,0.0,0.0,0.0,0.0,0.0,0.0,0.0,0.0,0.0,0.0,0.0,0.0,0.0,0.0,0.0,0.0,0.0,0.0,0.0,0.0,0.0,0.0,0.0,0.0,0.0,0.0,0.0,0.0,0.0,0.0,0.0,0.0,0.0,0.0,0.0,0.0,0.0,0.0,0.0,0.0,0.0,-2.5425,-2.556,-2.3461,-2.1325,-1.9158,-1.6157,-1.5358,0.0,0.0,0.0,0.0,0.0,0.0,0.0,0.0,0.0,0.0,0.0,0.0,0.0,0.0,0.0,0.0,0.0,0.0,0.0,0.0,0.0,0.0,0.0,0.0,0.0,0.0,0.0,0.0,0.0,0.0,0.0,0.0,0.0,0.0,0.0,0.0,0.0,0.0,0.0,0.0,0.0,0.0,0.0,0.0,0.0,0.0,0.0,0.0,0.0,0.0,0.0,0.0,0.0,0.0,0.0,0.0,0.0,0.0,0.0,0.0,0.0,0.0,0.0,0.0,0.0,0.0,0.0,0.0,0.0,0.0,0.0,0.0,0.0,0.0,0.0,0.0,0.0,0.0,0.0,0.0,0.0,0.0,0.0,0.0,0.0,0.0,0.0,0.0,0.0,0.0,0.0,0.0,0.0,0.0,0.0,0.0,0.0,0.0,0.0,0.0,0.0,0.0,0.0,0.0,0.0,0.0,0.0,0.0,-2.548,-2.5604,-2.5668,-2.5649,-2.541,-1.9013,-1.7071,0.0,0.0,0.0,0.0,0.0,0.0,0.0,0.0,0.0,0.0,0.0,0.0,0.0,0.0,0.0,0.0,0.0,0.0,0.0,0.0,0.0,0.0,0.0,0.0,0.0,0.0,0.0,0.0,0.0,0.0,0.0,0.0,0.0,0.0,0.0,0.0,0.0,0.0,0.0,0.0,0.0,0.0,0.0,0.0,0.0,0.0,0.0,0.0,0.0,0.0,0.0,0.0,0.0,0.0,0.0,0.0,0.0,0.0,0.0,0.0,0.0,0.0,0.0,0.0,0.0,0.0,0.0,0.0,0.0,0.0,0.0,0.0,0.0,0.0,0.0,0.0,0.0,0.0,0.0,0.0,0.0,0.0,0.0,0.0,0.0,0.0,0.0,0.0,0.0,0.0,0.0,0.0,0.0,0.0,0.0,0.0,0.0,0.0,0.0,0.0,0.0,0.0,0.0,0.0,0.0,0.0,0.0,0.0,-2.5543,-2.5664,-2.5626,-2.5615,-2.561,-2.3991,-2.3493,0.0,0.0,0.0,0.0,0.0,0.0,0.0,0.0,0.0,0.0,0.0,0.0,0.0,0.0,0.0,0.0,0.0,0.0,0.0,0.0,0.0,0.0,0.0,0.0,0.0,0.0,0.0,0.0,0.0,0.0,0.0,0.0,0.0,0.0,0.0,0.0,0.0,0.0,0.0,0.0,0.0,0.0,0.0,0.0,0.0,0.0,0.0,0.0,2.5067,0.0,0.0,0.0,0.0,0.0,0.0,0.0,0.0,0.0,0.0,0.0,0.0,0.0,0.0,0.0,0.0,0.0,0.0,0.0,0.0,0.0,0.0,0.0,0.0,0.0,0.0,0.0,0.0,0.0,0.0,0.0,0.0,0.0,0.0,0.0,0.0,0.0,0.0,0.0,0.0,0.0,0.0,0.0,0.0,0.0,0.0,0.0,0.0,0.0,0.0,0.0,0.0,0.0,0.0,0.0,0.0,0.0,0.0,0.0,-2.5598,-2.5683,-2.5645,-2.5615,-2.5605,-2.5576,-2.5544,0.0,0.0,0.0,0.0,0.0,0.0,0.0,0.0,0.0,0.0,0.0,0.0,0.0,0.0,0.0,0.0,0.0,0.0,0.0,0.0,0.0,0.0,0.0,0.0,0.0,0.0,0.0,0.0,0.0,0.0,0.0,0.0,0.0,0.0,0.0,0.0,0.0,0.0,0.0,0.0,0.0,0.0,0.0,0.0,0.0,0.0,0.0,0.0,0.0,0.0,0.0,0.0,0.0,0.0,0.0,0.0,0.0,0.0,0.0,0.0,0.0,0.0,0.0,0.0,0.0,0.0,0.0,0.0,0.0,0.0,0.0,0.0,0.0,0.0,0.0,0.0,0.0,0.0,0.0,0.0,0.0,0.0,0.0,0.0,0.0,0.0,0.0,0.0,0.0,0.0,0.0,0.0,0.0,0.0,0.0,0.0,0.0,0.0,0.0,0.0,0.0,0.0,0.0,0.0,0.0,0.0,0.0,-2.5644,-2.5765,-2.5702,-2.5642,-2.56,-2.561,-2.5607,-2.5577,-2.5518,0.0,0.0,0.0,0.0,0.0,0.0,0.0,0.0,0.0,0.0,0.0,0.0,0.0,0.0,0.0,0.0,0.0,0.0,0.0,0.0,0.0,0.0,0.0,0.0,0.0,0.0,0.0,0.0,0.0,0.0,0.0,0.0,0.0,0.0,0.0,0.0,0.0,0.0,0.879,1.2215,0.0,0.0,0.0,0.0,0.0,0.0,0.0,0.0,2.4381,0.0,0.0,0.0,0.0,0.0,0.0,0.0,0.0,0.0,0.0,0.0,0.0,0.0,0.0,0.0,0.0,0.0,0.0,0.0,0.0,0.0,0.0,0.0,0.0,0.0,0.0,0.0,0.0,0.0,0.0,0.0,0.0,0.0,0.0,0.0,0.0,0.0,0.0,0.0,0.0,0.0,0.0,0.0,0.0,0.0,0.0,0.0,0.0,0.0,0.0,0.0,0.0,0.0,0.0,0.0,0.0,-2.546,-2.626,-2.6376,-2.572,-2.5629,-2.5609,-2.561,-2.5599,-2.5583,-2.5518,0.0,0.0,0.0,0.0,0.0,0.0,0.0,0.0,0.0,0.0,0.0,0.0,0.0,0.0,0.0,0.0,0.0,0.0,0.0,0.0,0.0,0.0,0.0,0.0,0.0,0.0,0.0,0.0,0.0,0.0,0.0,0.0,0.0,0.0,0.0,0.0,0.0,0.0,0.0,0.4884,0.6275,0.0,0.0,0.0,0.0,0.0,0.0,0.0,0.0,2.3516,0.0,0.0,0.0,0.0,0.0,0.0,0.0,0.0,0.0,0.0,0.0,0.0,0.0,0.0,0.0,0.0,0.0,0.0,0.0,0.0,0.0,0.0,0.0,0.0,0.0,0.0,0.0,0.0,0.0,0.0,0.0,0.0,0.0,0.0,0.0,0.0,0.0,0.0,0.0,0.0,0.0,0.0,0.0,0.0,0.0,0.0,0.0,0.0,0.0,0.0,0.0,0.0,0.0,0.0,0.0,-2.6223,-2.6665,-2.6732,-2.6384,-2.5866,-2.5613,-2.561,-2.5599,-2.557,0.0,0.0,0.0,0.0,0.0,0.0,0.0,0.0,0.0,0.0,0.0,0.0,0.0,0.0,0.0,0.0,0.0,0.0,0.0,0.0,0.0,0.0,0.0,0.0,0.0,0.0,0.0,0.0,0.0,0.0,0.0,0.0,0.0,0.0,0.0,0.0,0.0,0.0,0.0,0.0,-0.309,-0.2729,-0.326,0.0,0.0,0.0,0.0,0.0,0.0,1.7976,2.0517,0.0,0.0,0.0,0.0,0.0,0.0,0.0,0.0,0.0,0.0,0.0,0.0,0.0,0.0,0.0,0.0,0.0,0.0,0.0,0.0,0.0,0.0,0.0,0.0,0.0,0.0,0.0,0.0,0.0,0.0,0.0,0.0,0.0,0.0,0.0,0.0,0.0,0.0,0.0,0.0,0.0,0.0,0.0,0.0,0.0,0.0,0.0,0.0,0.0,0.0,0.0,0.0,0.0,0.0,0.0,-2.7065,-2.73,-2.7282,-2.6989,-2.6256,-2.5788,-2.561,-2.5599,-2.557,0.0,0.0,0.0,0.0,0.0,0.0,0.0,0.0,0.0,0.0,0.0,0.0,0.0,0.0,0.0,0.0,0.0,0.0,0.0,0.0,0.0,0.0,0.0,0.0,0.0,0.0,0.0,0.0,0.0,0.0,0.0,0.0,0.0,0.0,0.0,0.0,0.0,0.0,0.0,0.0,0.0,-1.1274,-1.2564,-1.2058,0.0,0.0,0.0,0.0,1.0795,1.4193,0.0,0.0,0.0,0.0,0.0,0.0,0.0,0.0,0.0,0.0,0.0,0.0,0.0,0.0,0.0,0.0,0.0,0.0,0.0,0.0,0.0,0.0,0.0,0.0,0.0,0.0,0.0,0.0,0.0,0.0,0.0,0.0,0.0,0.0,0.0,0.0,0.0,0.0,0.0,0.0,0.0,0.0,0.0,0.0,0.0,0.0,0.0,0.0,0.0,0.0,0.0,0.0,0.0,0.0,0.0,0.0,-2.797,-2.8782,-2.8473,-2.7085,-2.6847,-2.6385,-2.563,-2.5609,-2.5562,0.0,0.0,0.0,0.0,0.0,0.0,0.0,0.0,0.0,0.0,0.0,0.0,0.0,0.0,0.0,0.0,0.0,0.0,0.0,0.0,0.0,0.0,0.0,0.0,0.0,0.0,0.0,0.0,0.0,0.0,0.0,0.0,0.0,0.0,0.0,0.0,0.0,0.0,0.0,0.0,0.0,-1.7446,-1.7118,-1.9638,-1.9363,0.0,0.0,0.0,0.3741,0.8453,0.0,0.0,0.0,0.0,0.0,0.0,0.0,0.0,0.0,0.0,0.0,0.0,0.0,0.0,0.0,0.0,0.0,0.0,0.0,0.0,0.0,0.0,0.0,0.0,0.0,0.0,0.0,0.0,0.0,0.0,0.0,0.0,0.0,0.0,0.0,0.0,0.0,0.0,0.0,0.0,0.0,0.0,0.0,0.0,0.0,0.0,0.0,0.0,0.0,0.0,0.0,0.0,0.0,0.0,0.0,-2.8205,-2.8824,-2.9273,-2.8924,-2.7786,-2.7195,-2.6478,-2.563,-2.5604,-2.5576,0.0,0.0,0.0,0.0,0.0,0.0,0.0,0.0,0.0,0.0,0.0,0.0,0.0,0.0,0.0,0.0,0.0,0.0,0.0,0.0,0.0,0.0,0.0,0.0,0.0,0.0,0.0,0.0,0.0,0.0,0.0,0.0,0.0,0.0,0.0,0.0,0.0,0.0,0.0,0.0,0.0,0.0,-2.176,-2.2993,0.0,0.0,0.0,-0.7538,-0.0145,0.0,0.0,0.0,0.0,0.0,0.0,0.0,0.0,0.0,0.0,0.0,0.0,0.0,0.0,0.0,0.0,0.0,0.0,0.0,0.0,0.0,0.0,0.0,0.0,0.0,0.0,0.0,0.0,0.0,0.0,0.0,0.0,0.0,0.0,0.0,0.0,0.0,0.0,0.0,0.0,0.0,0.0,0.0,0.0,0.0,0.0,0.0,0.0,0.0,0.0,0.0,0.0,0.0,0.0,0.0,0.0,0.0,-2.9705,-2.9787,-2.9433,-2.8621,-2.7696,-2.6825,-2.596,-2.5715,0.0,0.0,0.0,0.0,0.0,0.0,0.0,0.0,0.0,0.0,0.0,0.0,0.0,0.0,0.0,0.0,0.0,0.0,0.0,0.0,0.0,0.0,0.0,0.0,0.0,0.0,0.0,-2.5261,0.0,0.0,0.0,0.0,0.0,0.0,0.0,0.0,0.0,0.0,0.0,0.0,0.0,0.0,-2.4813,-2.4723,-2.4613,-2.2252,0.0,0.0,-1.0463,-0.2993,-0.0376,0.1215,0.0,0.0,0.0,0.0,0.0,0.0,0.0,0.0,0.0,0.0,0.0,0.0,0.0,0.0,0.0,0.0,0.0,0.0,0.0,0.0,0.0,0.0,0.0,0.0,0.0,0.0,0.0,0.0,0.0,0.0,0.0,0.0,0.0,0.0,0.0,0.0,0.0,0.0,0.0,0.0,0.0,0.0,0.0,0.0,0.0,0.0,0.0,0.0,0.0,0.0,0.0,0.0,0.0,0.0,0.0,-3.0581,-3.0671,-3.0273,-2.9416,-2.8567,-2.769,-2.6836,-2.6026,-2.5583,0.0,0.0,0.0,0.0,0.0,0.0,0.0,0.0,0.0,0.0,0.0,0.0,0.0,0.0,0.0,0.0,0.0,0.0,0.0,0.0,0.0,0.0,0.0,0.0,0.0,0.0,0.0,0.0,0.0,0.0,0.0,0.0,0.0,0.0,0.0,0.0,0.0,0.0,0.0,0.0,0.0,-2.4707,-2.4689,-2.4629,-2.2392,0.0,0.0,-1.2007,-0.5229,-0.3463,-0.2987,-0.3173,0.0,0.0,0.0,0.0,0.0,0.0,0.0,0.0,0.0,0.0,0.0,0.0,0.0,0.0,0.0,0.0,0.0,0.0,0.0,0.0,0.0,0.0,0.0,0.0,0.0,0.0,0.0,0.0,0.0,0.0,0.0,0.0,0.0,0.0,0.0,0.0,0.0,0.0,0.0,0.0,0.0,0.0,0.0,0.0,0.0,0.0,0.0,0.0,0.0,0.0,0.0,0.0,0.0,-2.977,-3.0672,-3.0767,-3.0367,-2.9535,-2.9171,-2.8311,-2.6918,-2.6539,-2.6081,0.0,0.0,0.0,0.0,0.0,0.0,0.0,0.0,0.0,0.0,0.0,0.0,0.0,0.0,0.0,0.0,0.0,0.0,0.0,0.0,0.0,0.0,0.0,0.0,0.0,0.0,0.0,0.0,-2.5076,-2.5082,-2.5057,0.0,0.0,0.0,0.0,0.0,0.0,0.0,0.0,0.0,0.0,-2.4629,-2.4629,-2.4631,0.0,0.0,-1.6583,-1.3718,-0.9168,-0.6996,-0.603,-0.6538,-0.9729,0.0,0.0,0.0,0.0,0.0,0.0,0.0,0.0,0.0,0.0,0.0,0.0,0.0,0.0,0.0,0.0,0.0,0.0,0.0,0.0,0.0,0.0,0.0,0.0,0.0,0.0,0.0,0.0,0.0,0.0,0.0,0.0,0.0,0.0,0.0,0.0,0.0,0.0,0.0,0.0,0.0,0.0,0.0,0.0,0.0,0.0,0.0,0.0,0.0,0.0,0.0,0.0,-3.0043,-3.0719,-3.0776,-3.052,-2.9892,-2.9625,-2.8899,-2.7717,-2.7104,-2.6514,0.0,0.0,0.0,0.0,0.0,0.0,0.0,0.0,0.0,0.0,0.0,0.0,0.0,0.0,0.0,0.0,0.0,0.0,0.0,0.0,0.0,0.0,0.0,0.0,0.0,0.0,0.0,0.0,-2.4999,-2.4985,-2.494,0.0,0.0,0.0,0.0,0.0,0.0,0.0,0.0,0.0,0.0,-2.4564,-2.4564,-2.4582,-2.3499,-2.0445,-1.77,-1.4924,-1.192,-0.9526,-0.8303,-0.9023,0.0,0.0,0.0,0.0,0.0,0.0,0.0,0.0,0.0,0.0,0.0,0.0,0.0,0.0,0.0,0.0,0.0,0.0,0.0,0.0,0.0,0.0,0.0,0.0,0.0,0.0,0.0,0.0,0.0,0.0,0.0,0.0,0.0,0.0,0.0,0.0,0.0,0.0,0.0,0.0,0.0,0.0,0.0,0.0,0.0,0.0,0.0,0.0,0.0,0.0,0.0,0.0,0.0,0.0,-3.0799,-3.0799,-3.0772,-3.0745,-2.9951,-2.9438,-2.9272,-2.7704,-2.6784,-2.673,0.0,0.0,0.0,0.0,0.0,0.0,0.0,0.0,0.0,0.0,0.0,0.0,0.0,0.0,0.0,0.0,0.0,0.0,0.0,0.0,0.0,0.0,0.0,0.0,0.0,0.0,-2.4827,-2.4813,-2.4827,0.0,0.0,0.0,0.0,0.0,0.0,0.0,0.0,0.0,0.0,-2.4512,-2.4495,-2.4495,-2.4515,-2.3447,-2.0527,-1.7937,-1.5413,-1.2946,-1.072,-0.9638,0.0,0.0,0.0,0.0,0.0,0.0,0.0,0.0,0.0,0.0,0.0,0.0,0.0,0.0,0.0,0.0,0.0,0.0,0.0,0.0,0.0,0.0,0.0,0.0,0.0,0.0,0.0,-1.8776,-1.9049,0.0,0.0,0.0,0.0,0.0,0.0,0.0,0.0,0.0,0.0,0.0,-2.3967,-2.4334,0.0,0.0,0.0,0.0,0.0,0.0,0.0,0.0,0.0,0.0,0.0,0.0,-3.0728,-3.0786,-3.0801,-3.0784,-3.0784,-3.0467,-3.0024,-2.9407,-2.826,-2.7125,-2.5971,0.0,0.0,0.0,0.0,0.0,0.0,0.0,0.0,0.0,0.0,0.0,0.0,0.0,0.0,0.0,0.0,0.0,0.0,0.0,0.0,0.0,0.0,0.0,0.0,0.0,-2.4827,0.0,0.0,0.0,0.0,0.0,0.0,0.0,0.0,0.0,0.0,0.0,-2.4513,-2.4446,-2.4429,-2.4429,-2.4375,-2.4339,-2.3923,0.0,0.0,0.0,0.0,0.0,0.0,0.0,0.0,0.0,0.0,0.0,0.0,0.0,0.0,-1.0301,-0.521,-0.2115,0.0436,0.2808,0.0,0.0,0.0,0.0,0.0,0.0,0.0,0.0,0.0,0.0,0.0,0.0,0.0,0.0,0.0,0.0,-2.0301,0.0,0.0,0.0,0.0,0.0,0.0,0.0,0.0,-2.4178,-2.4523,-2.4807,-2.5181,-2.5464,0.0,-2.6387,-2.6534,0.0,0.0,0.0,0.0,0.0,0.0,0.0,0.0,-3.0734,-3.0792,-3.08,-3.0796,-3.0784,-3.0734,-3.0419,-2.9811,-2.8683,-2.7381,-2.5975,-2.5646,-2.5511,0.0,0.0,0.0,0.0,0.0,0.0,0.0,0.0,0.0,0.0,0.0,0.0,0.0,0.0,0.0,0.0,0.0,0.0,0.0,0.0,0.0,0.0,0.0,-2.4753,0.0,0.0,0.0,0.0,0.0,0.0,0.0,0.0,0.0,-2.4564,-2.4549,-2.4462,-2.4412,-2.4394,-2.4339,-2.4266,0.0,0.0,0.0,0.0,0.0,0.0,0.0,-1.2008,-1.2425,-1.3357,-1.4739,-1.664,-1.8287,-1.9237,-1.8925,0.0,0.0,-1.0776,-0.7846,-0.541,-0.3218,-0.1199,0.0757,0.2575,0.4335,0.6034,0.0,0.0,0.0,0.0,0.0,0.0,0.0,0.0,-1.9413,-1.9785,0.0,-2.0585,0.0,0.0,0.0,0.0,0.0,0.0,0.0,0.0,-2.4423,-2.476,-2.5092,-2.5387,-2.5623,-2.5925,-2.6958,-2.7648,-2.8015,-2.8315,0.0,0.0,0.0,0.0,0.0,0.0,-3.0735,-3.0796,-3.0799,-3.0796,-3.0804,-3.0734,-3.0652,-3.0513,-2.8922,-2.7619,-2.6721,-2.5956,-2.555,-2.5511,-2.5511,0.0,0.0,0.0,0.0,0.0,0.0,0.0,0.0,0.0,0.0,0.0,0.0,0.0,0.0,0.0,0.0,0.0,0.0,0.0,0.0,-2.4729,0.0,0.0,0.0,0.0,0.0,0.0,0.0,0.0,0.0,0.0,-2.4495,-2.4498,-2.4465,-2.4412,0.0,0.0,0.0,0.0,-2.3506,-2.1528,-1.9206,-1.7162,-1.5776,-1.3759,-1.2578,-1.321,0.0,0.0,-1.6507,-1.7708,-1.8621,-1.8924,-1.9376,-1.8686,-1.5173,-1.2913,-1.0905,-0.8926,-0.7048,-0.5234,-0.338,-0.1527,0.0319,-1.8721,0.0,0.0,0.0,0.0,-1.9838,-2.0049,-2.032,-2.067,-2.1062,-2.1467,-2.1939,0.0,0.0,0.0,0.0,0.0,0.0,-2.5242,-2.5645,-2.5933,-2.626,-2.6575,-2.6889,-2.7222,-2.754,-2.8066,-2.8469,-2.8802,-2.9057,-2.9307,-2.9564,0.0,0.0,0.0,0.0,-3.073,-3.0796,-3.0792,-3.0798,-3.0799,-3.0734,-3.038,-2.9757,-2.9212,-2.8238,-2.676,-2.647,-2.6091,-2.553,-2.5511,0.0,0.0,0.0,0.0,0.0,0.0,0.0,0.0,0.0,0.0,0.0,0.0,0.0,0.0,0.0,0.0,0.0,0.0,0.0,-2.4748,-2.4717,-2.4666,0.0,0.0,0.0,0.0,0.0,0.0,0.0,0.0,0.0,-2.4357,-2.4375,-2.4339,0.0,0.0,-2.419,-2.4133,-2.4486,-2.3896,-2.1483,0.0,0.0,0.0,-1.4307,-1.3322,-1.3872,-1.4765,-1.5758,-1.6775,-1.7587,-1.8298,-1.9001,-1.9356,-1.9202,-1.8438,-1.6996,-1.5283,-1.3474,-1.2044,-1.0542,-0.8699,-0.6938,-0.5213,-1.8732,-1.8987,-1.9316,-1.9565,-1.9811,-2.008,-2.0409,-2.0858,-2.1215,-2.1664,-2.2123,-2.2572,-2.2979,-2.3407,-2.3967,0.0,0.0,0.0,-2.5921,-2.633,-2.659,-2.6891,-2.723,-2.7552,-2.7876,-2.8219,-2.8518,-2.881,-2.9108,-2.933,-2.9589,-2.9839,0.0,0.0,-3.052,-3.063,-3.0735,-3.0788,-3.0796,-3.0785,-3.0793,-3.0728,-3.0445,-2.9928,-2.9539,-2.8816,-2.7763,-2.7058,-2.647,-2.5986,-2.5666,-2.5511,0.0,0.0,0.0,0.0,0.0,0.0,0.0,0.0,0.0,0.0,0.0,-2.5331,-2.5217,0.0,0.0,0.0,-2.4827,-2.4757,-2.4666,-2.4666,0.0,0.0,0.0,0.0,0.0,0.0,0.0,-2.4413,-2.4321,-2.4266,-2.4266,-2.4247,-2.4228,-2.4191,-2.4171,-2.4241,-2.4431,0.0,-2.3926,-2.0919,-1.9991,-1.8534,-1.5482,-1.4263,-1.4001,-1.4597,-1.54,-1.6218,-1.6899,-1.7457,-1.8127,-1.8815,-1.9229,-1.953,-1.9889,-1.941,-1.8512,-1.6882,-1.585,-1.4827,-1.3495,-1.2181,-1.0823,-1.8677,-1.9047,-1.9336,-1.955,-1.9811,-2.008,-2.0422,-2.0795,-2.1215,-2.1698,-2.2217,-2.2723,-2.3127,-2.3596,-2.4302,0.0,0.0,-2.5567,-2.5905,-2.633,-2.659,-2.6891,-2.7213,-2.7535,-2.7876,-2.8201,-2.8466,-2.8761,-2.9067,-2.9289,-2.9531,-2.979,-2.9996,-3.0222,-3.0463,-3.062,-3.0726,-3.0788,-3.0801,-3.0784,-3.0786,-3.0742,-3.071,-3.0688,-2.9873,-2.9384,-2.9248,-2.7763,-2.6837,-2.6702,-2.6014,-2.5569,-2.5511,0.0,0.0,0.0,0.0,0.0,0.0,0.0,0.0,0.0,0.0,0.0,0.0,0.0,0.0,0.0,-2.4783,0.0,-2.4615,-2.4599,0.0,0.0,0.0,-2.45,-2.45,-2.4447,-2.4375,-2.4375,0.0,0.0,0.0,0.0,-2.4132,-2.4243,-2.4203,-2.4361,-2.4936,-2.4884,-2.3587,-2.0104,-1.9535,-1.8153,-1.4493,-1.4049,-1.4597,-1.5294,-1.5826,-1.6343,-1.6955,-1.7412,-1.7975,-1.8637,-1.9093,-1.9465,-2.0029,-2.0399,-2.0524,-1.9143,-1.8549,-1.8096,-1.7435,-1.6667,-1.5557,-1.9297,-1.927,-1.9569,-1.9748,-1.9811,-2.008,-2.0422,-2.0845,-2.1202,-2.1698,-2.2217,-2.2723,-2.329,-2.3994,-2.4426,-2.4846,-2.5333,-2.5551,-2.5921,-2.6295,-2.6607,-2.6858,-2.7213,-2.7552,-2.7876,-2.8219,-2.8414,-2.8687,-2.8952,-2.9156,-2.939,-2.9645,-2.9857,-3.0114,-3.0419,-3.0599,-3.0734,-3.0801,-3.0798,-3.079,-3.0789,-3.0734,-3.0698,-3.0703,-3.0486,-3.0017,-2.9326,-2.8911,-2.8062,-2.6779,-2.6508,-2.6149,-2.553,-2.5511,0.0,0.0,0.0,0.0,0.0,0.0,0.0,0.0,0.0,-2.5241,-2.5145,0.0,-2.4953,0.0,-2.4753,-2.4676,-2.4701,-2.4685,0.0,0.0,-2.4513,-2.4515,-2.45,-2.4447,-2.4394,-2.4339,-2.4266,-2.4173,-2.4152,-2.4113,-2.4292,-2.4751,-2.4784,-2.4849,-2.4972,-2.4284,-2.2834,-2.0221,-1.8735,-1.7023,-1.47,-1.4656,-1.5303,-1.5826,-1.6228,-1.6673,-1.7301,-1.7534,-1.7865,-1.8367,-1.8744,-1.9052,-1.9396,-1.9798,-2.0022,-1.9929,-1.9865,-1.9635,-1.8875,-1.8208,-1.7514,-1.9599,-1.9688,-1.9984,-2.0006,-1.9911,-2.0027,-2.0321,-2.066,-2.1118,-2.1554,-2.2091,-2.2754,-2.3421,-2.4051,-2.441,-2.4831,-2.5317,-2.5605,-2.5901,-2.6241,-2.6504,-2.6825,-2.712,-2.743,-2.7777,-2.8109,-2.8353,-2.8587,-2.8815,-2.9044,-2.9265,-2.9472,-2.9699,-2.9931,-3.0216,-3.0472,-3.0652,-3.0754,-3.0793,-3.0796,-3.0794,-3.0769,-3.0739,-3.073,-3.0704,-3.0462,-2.9947,-2.9563,-2.888,-2.7907,-2.7171,-2.6525,-2.6052,-2.5704,-2.5511,0.0,0.0,0.0,0.0,0.0,0.0,0.0,0.0,0.0,0.0,0.0,-2.4921,0.0,-2.4738,-2.4692,-2.4682,-2.4682,-2.4647,-2.4564,-2.4547,-2.453,-2.4515,-2.4464,-2.4393,-2.4321,-2.4229,-2.4191,-2.4113,-2.4365,-2.4211,-2.3547,-2.3896,-2.4289,-2.4255,-2.3829,-2.241,-1.9267,-1.8182,-1.7055,-1.5059,-1.5294,-1.5874,-1.6285,-1.6637,-1.7099,-1.7523,-1.77,-1.792,-1.8313,-1.853,-1.8679,-1.8987,-1.9198,-1.9448,-1.9661,-1.9832,-1.9905,-1.9938,-1.9747,-1.9397,-1.9792,-2.0159,-2.0451,-2.0382,-2.0031,-2.0145,-2.0271,-2.0435,-2.0921,-2.1458,-2.1949,-2.2859,-2.3538,-2.3982,-2.4385,-2.4806,-2.5256,-2.553,-2.5828,-2.6168,-2.6434,-2.6725,-2.7007,-2.7341,-2.7677,-2.7968,-2.8246,-2.8484,-2.8669,-2.891,-2.9134,-2.9272,-2.9551,-2.9769,-2.9962,-3.0267,-3.0532,-3.0695,-3.0765,-3.08,-3.0788,-3.0791,-3.0786,-3.0799,-3.0742,-3.0698,-3.0678,-2.9962,-2.9466,-2.9276,-2.7912,-2.6986,-2.6729,-2.6052,-2.5608,0.0,-2.5511,0.0,0.0,0.0,0.0,0.0,0.0,0.0,0.0,-2.5038,-2.4926,-2.4821,-2.4757,-2.4707,-2.4732,-2.4732,-2.4698,-2.4631,-2.4631,-2.4615,-2.4528,-2.4515,-2.4446,-2.4339,-2.4229,-2.419,-2.4277,-2.4519,-2.3728,-2.231,-2.2457,-2.2753,-2.2662,-2.262,-2.1348,-1.7884,-1.7675,-1.706,-1.5832,-1.5874,-1.6285,-1.6637,-1.7043,-1.7434,-1.7711,-1.7865,-1.8073,-1.8356,-1.8476,-1.853,-1.8732,-1.8798,-1.8851,-1.9081,-1.9071,-1.9384,-2.0332,-2.0647,-2.0689,-2.0268,-2.0396,-2.0686,-2.0676,-2.0418,-2.0816,-2.0693,-2.0283,-2.0835,-2.1554,-2.2463,-2.2963,-2.3392,-2.3839,-2.4177,-2.4564,-2.4902,-2.5301,-2.5642,-2.597,-2.6295,-2.664,-2.7007,-2.7341,-2.76,-2.7847,-2.8109,-2.8327,-2.8543,-2.8694,-2.8905,-2.9156,-2.9351,-2.9532,-2.9769,0.0,0.0,0.0,-3.0755,-3.0784,-3.0798,-3.0799,-3.0786,-3.0785,-3.0789,0.0,-3.0697,-3.0529,-3.0132,-2.9412,-2.9012,0.0,0.0,0.0,0.0,0.0,0.0,0.0,0.0,0.0,0.0,0.0,-2.5332,-2.5262,-2.5168,-2.5063,-2.495,-2.4813,-2.4779,-2.4764,-2.4783,-2.4783,-2.4768,-2.4757,-2.4776,-2.4745,-2.4647,-2.4615,-2.4513,-2.4412,-2.4266,-2.4355,-2.4609,-2.3286,-2.2364,-2.2745,-2.1881,-2.0408,-1.9155,-1.9061,-1.8702,-1.8031,-1.7056,-1.6213,-1.6032,-1.6343,-1.6761,-1.7099,-1.7423,-1.7711,-1.7986,-1.8193,-1.8356,-1.8506,-1.856,-1.856,-1.8614,-1.8572,-1.8476,-1.8518,-1.8344,-1.8483,-1.9475,-1.9619,-1.9469,-2.0587,0.0,-2.1028,-2.103,0.0,-2.1204,-2.1126,-2.0721,-2.1082,-2.1596,-2.2231,-2.2692,-2.3127,-2.3581,-2.3967,-2.4359,-2.4726,-2.5162,-2.5508,-2.5749,-2.6151,-2.6435,-2.6725,-2.7087,-2.7386,-2.7659,-2.7911,-2.8119,-2.8353,-2.8484,-2.8669,-2.8887,-2.9115,-2.9312,-2.9551,-2.9848,-3.0196,-3.0591,-3.0658,-3.073,-3.0749,-3.0786,-3.0799,-3.0797,0.0,0.0,0.0,0.0,0.0,0.0,0.0,0.0,0.0,0.0,0.0,-2.613,-2.5716,-2.5511,-2.5511,-2.5448,-2.5393,-2.5385,-2.5331,-2.5262,-2.5214,-2.5076,-2.4972,-2.4912,-2.4865,-2.4832,-2.4865,-2.4847,-2.4832,-2.4837,-2.4861,-2.4817,-2.476,-2.4666,-2.4532,-2.4223,-2.3461,-2.3045,-2.3266,-2.1914,-2.0679,-2.0466,-1.994,-1.8791,-1.72,-1.7523,-1.7981,-1.7193,-1.6516,-1.6036,-1.64,-1.6751,-1.7155,-1.7534,-1.7755,-1.7975,-1.829,-1.841,-1.8518,-1.856,-1.856,-1.8518,-1.8464,-1.8302,-1.8139,-1.803,-1.7799,-1.7668,-1.8091,-1.8271,-1.8193,-2.0593,-2.1094,-2.1273,-2.1292,-2.1234,-2.1584,-2.1624,-2.1456,0.0,0.0,0.0,-2.271,-2.3103,-2.3482,-2.3934,-2.4284,-2.4589,-2.5045,-2.5371,-2.5578,-2.5934,-2.6222,-2.6383,-2.6759,-2.712,-2.7417,-2.7659,-2.7911,-2.8126,-2.8273,-2.8458,-2.8644,-2.8821,-2.9075,-2.9373,-2.9732,-3.0061,-3.0351,-3.0498,-3.0613,-3.0656,-3.0721,-3.0762,-3.0795,-3.0801,-3.0795,-3.0799,-3.0782,-3.0784,-3.071,-3.003,-2.9537,-2.9292,-2.7997,-2.7083,-2.671,-2.6072,-2.5638,-2.5511,-2.5456,-2.5421,-2.5382,-2.5331,-2.5262,-2.5203,-2.5101,-2.5038,-2.5025,-2.4961,-2.4947,-2.4947,-2.4942,-2.4942,-2.4929,-2.494,-2.4903,-2.4802,-2.4679,-2.4388,-2.3785,-2.2571,-2.1614,-2.1472,-2.0554,-1.937,-1.8042,-1.8093,-1.7738,-1.6384,-1.7135,-1.7586,-1.6494,-1.6363,-1.6513,-1.6864,-1.7323,-1.7601,-1.792,-1.8139,-1.8356,-1.8572,-1.8679,-1.8667,-1.8667,-1.8506,-1.8464,-1.8367,-1.8084,-1.7799,-1.7645,-1.7256,-1.6935,-1.6763,-1.6797,-1.6788,-2.027,-2.0797,-2.1094,-2.1388,-2.1667,-2.1966,-2.2187,-2.2318,-2.2505,-2.2894,-2.3395,-2.3922,-2.4096,-2.4101,-2.4552,-2.46,-2.44,-2.4846,-2.5123,0.0,-2.5659,-2.5974,-2.6314,-2.6607,-2.6891,-2.7166,-2.7417,-2.7659,-2.7847,-2.8035,-2.8246,-2.845,-2.8644,-2.8892,-2.9209,-2.9454,-2.9644,-2.9817,-3.0209,-3.0462,-3.0518,-3.0579,-3.0656,-3.07,-3.0774,-3.0796,-3.0796,-3.0801,-3.0798,-3.0774,-3.06,-3.016,-2.9428,-2.9086,-2.831,-2.6935,-2.6621,-2.6227,-2.555,-2.5484,-2.5456,-2.5401,-2.5331,-2.5273,-2.5217,-2.5191,-2.5137,-2.5101,-2.5069,-2.5069,-2.5069,-2.5056,-2.5068,-2.5069,-2.5063,-2.4985,-2.4808,-2.4554,-2.3904,-2.2604,-2.2142,-2.1604,-2.0928,-1.9488,-1.8608,-1.8722,-1.7951,-1.6916,-1.7082,-1.6786,-1.6678,-1.6711,-1.7022,-1.7357,-1.759,-1.7986,-1.8193,-1.8313,-1.8625,-1.8774,-1.8786,-1.8958,-1.8999,-1.8934,-1.8732,-1.8518,-1.8422,-1.792,-1.7523,-1.719,-1.6673,-1.6199,-1.5926,-1.5376,-1.4915,-2.0522,-2.1039,-2.1028,-2.1296,-2.1698,-2.2247,-2.2651,-2.2984,-2.3262,-2.3336,-2.3294,-2.3821,-2.417,-2.4351,-2.4872,-2.5123,-2.5162,-2.5237,-2.5413,-2.5664,-2.5554,-2.568,-2.5994,-2.6262,-2.6522,-2.6825,-2.7103,-2.7324,-2.7535,-2.7689,-2.7911,-2.8191,-2.844,-2.8725,-2.8984,-2.9144,-2.9295,-2.9494,-2.9927,-3.0171,-3.029,-3.0374,-3.0488,-3.06,-3.0675,-3.0689,-3.0751,-3.0781,-3.0795,-3.0788,-3.0765,-3.0567,-3.0147,-2.9627,-2.8997,-2.8183,-2.7276,-2.6563,-2.618,-2.5762,-2.5464,-2.5421,-2.5376,-2.5331,-2.5313,-2.5241,-2.5187,-2.5176,-2.5145,-2.5157,-2.5206,-2.5168,-2.5149,-2.5145,-2.5101,-2.4953,-2.4625,-2.3804,-2.3018,-2.2245,-2.079,-1.9861,-1.9917,-1.8478,-1.7671,-1.827,-1.7781,-1.7743,-1.8093,-1.8027,-1.7754,-1.7512,-1.7623,-1.7897,-1.8127,-1.841,-1.8679,-1.8774,-1.8987,-1.9093,-1.9105,-1.9223,-1.9182,-1.9117,-1.8827,-1.856,-1.8422,-1.7909,-1.7357,-1.6853,-1.6218,-1.5635,-1.5149,-1.3747,-1.2466,-2.0945,-2.1386,-2.1093,-2.1284,-2.1773,-2.2371,-2.2848,-2.3283,-2.37,-2.3673,-2.3433,-2.3912,-2.4297,-2.464,-2.515,-2.5545,-2.5772,-2.5707,-2.5808,-2.6057,-2.5655,-2.5596,-2.5799,-2.595,-2.6156,-2.6469,-2.6725,-2.6973,-2.7195,-2.7338,-2.7569,-2.7922,-2.8246,-2.8474,-2.8651,-2.8827,-2.8989,-2.9148,-2.9514,-2.9796,-3.0003,-3.0144,-3.029,-3.0413,-3.0496,-3.0568,-3.0672,-3.0749,-3.0776,-3.0799,-3.0791,-3.0765,-3.0697,-3.0069,-2.9596,-2.9241,-2.8113,-2.7168,-2.6746,-2.6157,-2.5685,-2.5437,-2.5429,-2.5421,-2.5423,-2.5322,-2.5264,-2.5253,-2.5253,-2.5264,-2.5312,-2.5283,-2.5233,-2.5212,-2.4716,-2.4338,-2.4139,-2.2884,-2.1869,-2.1585,-1.9841,-1.8753,-1.8645,-1.8105,-1.7863,-1.8283,-1.8555,-1.8898,-1.9121,-1.9279,-1.9081,-1.8697,-1.8429,-1.8536,-1.8774,-1.8934,-1.9093,-1.9344,-1.9344,-1.9356,-1.942,-1.9328,-1.9223,-1.917,-1.8839,-1.8506,-1.8302,-1.7799,-1.7123,-1.6457,-1.57,-1.4879,-1.3745,-1.1898,-1.0181,-2.1167,-2.1428,-2.1397,-2.1476,-2.1722,-2.2259,-2.2616,-2.303,-2.3641,-2.4002,-2.4195,-2.4955,-2.5238,-2.5312,-2.5777,-2.5893,-2.5736,-2.6047,-2.6331,-2.6401,-2.6104,-2.6021,-2.6182,-2.5837,-2.5791,-2.6046,-2.626,-2.6521,-2.6808,-2.7053,-2.7338,-2.7701,-2.795,-2.8109,-2.8255,-2.8422,-2.8594,-2.8658,-2.892,-2.9293,-2.9716,-2.9869,-3.0011,-3.0131,-3.0251,-3.0394,-3.0521,-3.0639,-3.0728,-3.0786,-3.08,-3.0791,-3.0784,-3.0658,-3.0238,-2.9486,-2.9218,-2.8497,-2.6997,-2.673,-2.6355,-2.5584,-2.5538,-2.5511,-2.5503,-2.5492,-2.5437,-2.5385,-2.5387,-2.5378,-2.5397,-2.5407,-2.534,-2.5018,-2.3909,-2.2867,-2.3037,-2.1814,-2.0562,-1.9749,-1.9942,-1.9753,-1.8961,-1.8922,-1.9245,-1.9554,-1.9722,-1.9888,-2.0016,-2.0067,-2.0118,-1.9914,-1.9708,-1.95,-1.95,-1.9604,-1.9708,-1.9747,-1.9747,-1.9708,-1.9617,-1.9473,-1.9368,-1.917,-1.8851,-1.8452,-1.8018,-1.7457,-1.6719,-1.5894,-1.4949,-1.3856,-1.178,-0.9946,-0.8604,-2.1434,-2.1953,-2.1622,-2.1665,-2.1964,-2.2504,-2.2762,-2.2982,-2.3403,-2.3806,-2.4203,-2.4821,-2.5232,-2.5661,-2.6121,-2.644,-2.6653,-2.6507,-2.6656,-2.6918,-2.6448,-2.6119,-2.6018,-2.5951,-2.5796,-2.5654,-2.5917,-2.6154,-2.6349,-2.6725,-2.7053,-2.731,-2.7539,-2.7766,-2.7836,-2.8007,-2.8183,-2.8362,-2.8474,-2.8682,-2.8993,-2.9397,-2.9662,-2.9799,-2.9969,-3.0151,-3.0332,-3.0507,-3.0633,-3.0743,-3.0788,-3.08,-3.0791,-3.0769,-3.0592,-3.016,-2.9673,-2.8861,-2.7651,-2.7566,-2.7191,-2.6331,-2.626,-2.6079,-2.5599,-2.5564,-2.5542,-2.5468,-2.5454,-2.5468,-2.5553,-2.586,-2.5654,-2.4667,-2.4222,-2.3809,-2.2683,-2.1572,-2.073,-2.061,-2.0273,-2.0134,-2.001,-2.0244,-2.0471,-2.0597,-2.066,-2.0709,-2.0772,-2.0871,-2.0921,-2.0885,-2.0673,-2.0422,-2.0169,-2.0118,-2.0169,-2.0169,-2.0067,-1.9978,-1.9875,-1.9668,-1.946,-1.9263,-1.8786,-1.8344,-1.7865,-1.7179,-1.6446,-1.5352,-1.3718,-1.2138,-0.9949,-0.8281,-0.6612,-2.1681,-2.2131,-2.1964,-2.2024,-2.2298,-2.2681,-2.2929,-2.301,-2.3226,-2.3582,-2.4067,-2.4505,-2.5104,-2.5715,-2.619,-2.6736,-2.7174,-2.6981,-2.7052,-2.7298,-2.678,-2.6439,-2.619,-2.5994,-2.5765,-2.552,-2.5589,-2.5754,-2.5974,-2.6383,-2.6691,-2.6859,-2.7135,-2.7324,-2.7417,-2.7552,-2.776,-2.7979,-2.8017,-2.8119,-2.8299,-2.8718,-2.9129,-2.9398,-2.9625,-2.9829,-3.0023,-3.0256,-3.0451,-3.0601,-3.0696,-3.0765,-3.08,-3.0794,-3.0769,-3.0695,-3.0153,-2.9408,-2.8553,-2.8468,-2.8099,-2.7304,-2.7167,-2.6909,-2.6403,-2.6239,-2.6132,-2.6005,-2.5917,-2.5902,-2.5773,-2.6178,-2.5759,-2.4483,-2.4533,-2.3798,-2.252,-2.1435,-2.0933,-2.1323,-2.0937,-2.0716,-2.121,-2.1417,-2.1479,-2.1382,-2.141,-2.1471,-2.1471,-2.152,-2.1568,-2.1568,-2.1471,-2.118,-2.0709,-2.0573,-2.0573,-2.0523,-2.0422,-2.0271,-2.008,-1.9811,-1.95,-1.9198,-1.8721,-1.8061,-1.7512,-1.6842,-1.5692,-1.436,-1.2652,-1.0592,-0.8553,-0.6794,-0.4545,-2.1928,-2.2146,-2.2528,-2.2669,-2.2581,-2.2662,-2.2891,-2.3164,-2.3107,-2.339,-2.3878,-2.4305,-2.4751,-2.5286,-2.592,-2.6457,-2.687,-2.7261,-2.747,-2.7545,-2.723,-2.7101,-2.7149,-2.6096,-2.5617,-2.5623,-2.5298,-2.5416,-2.5844,-2.6049,-2.6227,-2.6453,-2.6657,-2.6842,-2.699,-2.7166,-2.7293,-2.7448,-2.7552,-2.7642,-2.7672,-2.7869,-2.828,-2.8824,-2.9191,-2.9399,-2.9604,-2.9886,-3.0094,-3.0318,-3.0496,-3.0667,-3.0782,-3.08,-3.0794,-3.076,-3.0697,-3.0277,-2.9493,-2.9172,-2.8778,-2.8165,-2.783,-2.7906,-2.7493,-2.7374,-2.7174,-2.7071,-2.6743,-2.6506,-2.604,-2.6149,-2.5913,-2.5091,-2.3404,-2.258,-2.2462,-2.1461,-2.0867,-2.1463,-2.1797,-2.1974,-2.2263,-2.231,-2.2217,-2.2123,-2.2137,-2.2137,-2.2091,-2.2044,-2.1996,-2.1949,-2.1841,-2.1602,-2.1264,-2.1019,-2.0983,-2.0885,-2.0723,-2.051,-2.0258,-2.0016,-1.9604,-1.9133,-1.8483,-1.7831,-1.7101,-1.5961,-1.4529,-1.3018,-1.1195,-0.9243,-0.7271,-0.5237,-0.2863,-2.1634,-2.2317,-2.2742,-2.29,-2.2901,-2.2728,-2.281,-2.2971,-2.2763,-2.2909,-2.3378,-2.3839,-2.4292,-2.4808,-2.5314,-2.5988,-2.6592,-2.6959,-2.7284,-2.7545,-2.7485,-2.7285,-2.6991,-2.6244,-2.5659,-2.5327,-2.4942,-2.5029,-2.5486,-2.5626,-2.5811,-2.6082,-2.6243,-2.6401,-2.6538,-2.6624,-2.6791,-2.6923,-2.7004,-2.7085,-2.7213,-2.7338,-2.753,-2.7816,-2.841,-2.8824,-2.9037,-2.9326,-2.9612,-2.9917,-3.0177,-3.0416,-3.0541,-3.0662,-3.0741,-3.0706,-2.9915,-2.9289,-2.9003,-2.8202,-2.7518,-2.7025,-2.7103,-2.7074,-2.6765,-2.6729,-2.6654,-2.645,-2.6646,-2.6499,-2.6195,-2.634,-2.5996,-2.4584,-2.4137,-2.3454,-2.2668,-2.2191,-2.2243,-2.2575,-2.2844,-2.2934,-2.2859,-2.2873,-2.2768,-2.2572,-2.2512,-2.248,-2.2463,-2.2431,-2.2324,-2.2231,-2.2137,-2.1996,-2.1759,-2.141,-2.1229,-2.1131,-2.0983,-2.0686,-2.0385,-1.9914,-1.95,-1.8934,-1.8278,-1.7302,-1.6415,-1.4632,-1.3239,-1.1661,-0.9849,-0.7872,-0.6022,-0.3745,-0.1239,-2.1558,-2.2252,-2.2703,-2.2963,-2.3055,-2.2842,-2.2819,-2.29,-2.2642,-2.269,-2.2982,-2.3437,-2.3897,-2.4292,-2.4821,-2.5439,-2.6082,-2.6486,-2.6922,-2.7321,-2.7423,-2.735,-2.7131,-2.6561,-2.5971,-2.536,-2.4744,-2.4726,-2.5045,-2.5162,-2.5394,-2.5696,-2.5811,-2.5957,-2.6101,-2.6156,-2.6279,-2.6383,-2.6453,-2.6538,-2.6624,-2.6691,-2.6758,-2.6889,-2.7387,-2.7913,-2.8345,-2.8691,-2.9008,-2.9326,-2.9646,-2.9845,-2.9946,-2.9893,-2.9792,-2.9557,-2.8569,-2.7944,-2.7892,-2.7146,-2.6574,-2.6397,-2.6558,-2.6581,-2.6301,-2.6366,-2.6325,-2.6223,-2.6276,-2.633,-2.5962,-2.6079,-2.5716,-2.4484,-2.462,-2.4366,-2.3112,-2.3172,-2.3348,-2.3436,-2.3494,-2.3494,-2.3319,-2.326,-2.3127,-2.2934,-2.2889,-2.2859,-2.2797,-2.2737,-2.2646,-2.2523,-2.2385,-2.2231,-2.1983,-2.1712,-2.1423,-2.1326,-2.1019,-2.0736,-2.0334,-1.9823,-1.9239,-1.8667,-1.7776,-1.6743,-1.5264,-1.3417,-1.1859,-1.0369,-0.8393,-0.6384,-0.4326,-0.2149,0.0387,-2.1578,-2.1873,-2.2478,-2.2756,-2.2944,-2.2999,-2.2971,-2.2829,-2.2787,-2.2669,-2.269,-2.315,-2.3509,-2.3897,-2.4492,-2.4935,-2.5384,-2.6042,-2.6539,-2.687,-2.7078,-2.7321,-2.744,-2.6797,-2.6221,-2.5743,-2.482,-2.4431,-2.463,-2.4726,-2.4966,-2.524,-2.5278,-2.5454,-2.5701,-2.5701,-2.5754,-2.5864,-2.5917,-2.5917,-2.5897,-2.5974,-2.5994,-2.603,-2.6177,-2.6656,-2.7543,-2.7895,-2.8214,-2.8529,-2.8815,-2.897,-2.8872,-2.8459,-2.7904,-2.7475,-2.6809,-2.6435,-2.6304,-2.6109,-2.5966,-2.6176,-2.656,-2.6453,-2.6478,-2.661,-2.6566,-2.6311,-2.6168,-2.5961,-2.5505,-2.5292,-2.5158,-2.5121,-2.4674,-2.4174,-2.4006,-2.3982,-2.3982,-2.394,-2.3897,-2.3739,-2.361,-2.3538,-2.3422,-2.3319,-2.3216,-2.3187,-2.3023,-2.2963,-2.2873,-2.2721,-2.2537,-2.237,-2.2184,-2.1949,-2.1712,-2.1423,-2.1006,-2.066,-2.0169,-1.9656,-1.891,-1.8224,-1.6789,-1.5641,-1.3895,-1.2135,-1.0484,-0.8894,-0.6834,-0.4899,-0.2792,-0.0542,0.2011,-2.1262,-2.1807,-2.2035,-2.2327,-2.2713,-2.2655,-2.2514,-2.248,-2.2321,-2.2285,-2.237,-2.2604,-2.303,-2.3509,-2.3969,-2.4434,-2.4948,-2.5425,-2.592,-2.6525,-2.6832,-2.7093,-2.7151,-2.6668,-2.5875,-2.5122,-2.4776,-2.4493,-2.4322,-2.4287,-2.4492,-2.4751,-2.4831,-2.495,-2.5185,-2.524,-2.5262,-2.5339,-2.5323,-2.5323,-2.5323,-2.5378,-2.5323,-2.5269,-2.5182,-2.5363,-2.5757,-2.6638,-2.7204,-2.7472,-2.7691,-2.7774,-2.7562,-2.7191,-2.681,-2.6399,-2.5195,-2.459,-2.4574,-2.3887,-2.3685,-2.41,-2.4419,-2.4746,-2.515,-2.5399,-2.5432,-2.5303,-2.5201,-2.5073,-2.4902,-2.4679,-2.4655,-2.4775,-2.4564,-2.4317,-2.4234,-2.4177,-2.4193,-2.4166,-2.4124,-2.3982,-2.3797,-2.3711,-2.3625,-2.3451,-2.3407,-2.3378,-2.3171,-2.3068,-2.2933,-2.2721,-2.2569,-2.237,-2.2091,-2.1807,-2.1506,-2.1166,-2.0809,-2.0396,-1.9952,-1.9214,-1.8525,-1.728,-1.5861,-1.4259,-1.2525,-1.0821,-0.9151,-0.7404,-0.5441,-0.3401,-0.1305,0.1086,0.3724,-2.0954,-2.1436,-2.1655,-2.1959,-2.2349,-2.2134,-2.2007,-2.2,-2.1856,-2.1835,-2.1871,-2.2185,-2.2604,-2.303,-2.3437,-2.391,-2.4434,-2.4821,-2.5384,-2.6028,-2.6394,-2.6727,-2.6938,-2.6468,-2.5726,-2.4921,-2.4701,-2.4401,-2.394,-2.3994,-2.412,-2.4369,-2.4426,-2.4508,-2.471,-2.471,-2.4695,-2.4735,-2.4695,-2.4695,-2.4695,-2.4655,-2.4599,-2.4461,-2.4364,-2.4323,-2.4389,-2.5032,-2.5639,-2.6099,-2.6285,-2.6146,-2.5841,-2.5346,-2.488,-2.4325,-2.3434,-2.2694,-2.2776,-2.2189,-2.1874,-2.2452,-2.2786,-2.3172,-2.3664,-2.3956,-2.4112,-2.421,-2.4266,-2.4297,-2.4287,-2.4261,-2.4276,-2.4457,-2.4457,-2.44,-2.4317,-2.4302,-2.4261,-2.4234,-2.4223,-2.4082,-2.394,-2.3797,-2.3754,-2.3566,-2.3538,-2.3451,-2.3246,-2.3171,-2.2992,-2.2752,-2.2569,-2.2324,-2.1996,-2.1664,-2.1264,-2.0908,-2.0497,-2.0093,-1.9643,-1.8727,-1.7929,-1.6058,-1.4514,-1.291,-1.1162,-0.9394,-0.772,-0.5895,-0.3965,-0.1779,0.0382,0.286,0.5348,-2.0654,-2.0906,-2.1282,-2.1578,-2.1745,-2.1671,-2.1568,-2.1527,-2.1587,-2.1499,-2.1429,-2.1862,-2.2185,-2.2482,-2.303,-2.3509,-2.3852,-2.4421,-2.4892,-2.5272,-2.5715,-2.6286,-2.6678,-2.6433,-2.5894,-2.5147,-2.4695,-2.4194,-2.364,-2.3696,-2.3867,-2.4036,-2.4078,-2.412,-2.4204,-2.412,-2.4063,-2.4078,-2.4009,-2.3982,-2.3925,-2.3824,-2.3739,-2.3739,-2.3595,-2.345,-2.3348,-2.3303,-2.3673,-2.4571,-2.4579,-2.4288,-2.3764,-2.3081,-2.2482,-2.2005,-2.1287,-2.1094,-2.1028,-2.1064,-2.1215,-2.1732,-2.1921,-2.217,-2.2649,-2.2905,-2.3128,-2.3391,-2.3537,-2.3638,-2.3782,-2.3882,-2.4024,-2.4166,-2.4276,-2.4317,-2.4302,-2.4302,-2.4261,-2.4276,-2.425,-2.4124,-2.3982,-2.3882,-2.3739,-2.3638,-2.361,-2.3494,-2.3319,-2.3201,-2.3112,-2.2843,-2.2509,-2.2137,-2.1759,-2.1313,-2.0921,-2.0359,-1.9927,-1.9451,-1.8862,-1.7895,-1.6578,-1.4721,-1.3039,-1.145,-0.9756,-0.7981,-0.6093,-0.4234,-0.2182,-0.0074,0.227,0.4619,0.6878,-2.0333,-2.0731,-2.0984,-2.1205,-2.1364,-2.1311,-2.1207,-2.1107,-2.1114,-2.1072,-2.1238,-2.1348,-2.1737,-2.2247,-2.2543,-2.2969,-2.3509,-2.391,-2.4305,-2.4694,-2.5104,-2.5825,-2.6472,-2.6591,-2.6061,-2.5131,-2.4923,-2.4458,-2.3466,-2.3392,-2.3538,-2.3625,-2.3668,-2.3711,-2.3739,-2.3638,-2.3595,-2.3595,-2.3523,-2.3363,-2.3201,-2.3157,-2.3024,-2.283,-2.2649,-2.2526,-2.2342,-2.1846,-2.2058,-2.3054,-2.2907,-2.2581,-2.2158,-2.1547,-2.1059,-2.0657,-2.0346,-2.022,-2.0385,-2.0448,-2.0686,-2.1131,-2.1229,-2.1506,-2.1983,-2.217,-2.2388,-2.2723,-2.2994,-2.3157,-2.3392,-2.361,-2.3797,-2.4024,-2.4193,-2.4261,-2.4261,-2.4302,-2.4302,-2.4276,-2.425,-2.4124,-2.3982,-2.3882,-2.3739,-2.3638,-2.3566,-2.3523,-2.3363,-2.3187,-2.3053,-2.2692,-2.2324,-2.1949,-2.1506,-2.1055,-2.051,-1.985,-1.9202,-1.8543,-1.7709,-1.6645,-1.4945,-1.3064,-1.1497,-0.9895,-0.8222,-0.6424,-0.4551,-0.2508,-0.0363,0.1775,0.402,0.635,0.8397,-1.9932,-2.0498,-2.0654,-2.0896,-2.0971,-2.0744,-2.0607,-2.0621,-2.0432,-2.0468,-2.0733,-2.1094,-2.1423,-2.18,-2.2185,-2.2543,-2.2969,-2.3437,-2.3839,-2.4247,-2.4765,-2.5495,-2.615,-2.6472,-2.5943,-2.4916,-2.4883,-2.4221,-2.3243,-2.3083,-2.3172,-2.3216,-2.3275,-2.3246,-2.3304,-2.3172,-2.3068,-2.3038,-2.2904,-2.2723,-2.2526,-2.248,-2.2296,-2.2063,-2.1827,-2.1589,-2.1188,-2.0746,-2.0904,-2.154,-2.1459,-2.1086,-2.0706,-2.0283,-1.9914,-1.9708,-1.9552,-1.9604,-1.9823,-1.9875,-2.008,-2.0472,-2.0623,-2.0921,-2.1313,-2.1506,-2.1759,-2.2184,-2.2449,-2.2709,-2.3024,-2.3392,-2.3653,-2.3824,-2.4051,-2.4151,-2.4193,-2.4135,-2.4193,-2.4151,-2.4151,-2.4067,-2.394,-2.3839,-2.3739,-2.3653,-2.3566,-2.348,-2.3319,-2.3127,-2.2904,-2.254,-2.2123,-2.1698,-2.1153,-2.0646,-1.9812,-1.915,-1.7741,-1.7203,-1.6198,-1.5061,-1.3502,-1.1705,-1.0014,-0.8361,-0.6542,-0.4686,-0.263,-0.0642,0.1447,0.3624,0.5862,0.8014,0.9991,-1.9627,-2.0186,-2.0411,-2.0654,-2.069,-2.0142,-2.0042,-2.0255,-1.9839,-1.9823,-2.0237,-2.0828,-2.1106,-2.1233,-2.18,-2.2185,-2.2432,-2.2969,-2.345,-2.3956,-2.4536,-2.5216,-2.5715,-2.6111,-2.5574,-2.4676,-2.454,-2.3875,-2.3057,-2.2844,-2.2844,-2.2859,-2.2844,-2.2844,-2.2814,-2.2646,-2.2523,-2.2463,-2.2217,-2.203,-2.1888,-2.1746,-2.1541,-2.1264,-2.0894,-2.0497,-2.0042,-1.9734,-1.9876,-2.0484,-2.008,-1.9837,-1.9552,-1.9239,-1.9081,-1.8934,-1.8934,-1.8999,-1.9263,-1.9303,-1.946,-1.985,-2.0016,-2.0334,-2.066,-2.0871,-2.118,-2.165,-2.1983,-2.231,-2.2754,-2.3201,-2.348,-2.361,-2.3797,-2.394,-2.3982,-2.3982,-2.3982,-2.3982,-2.4024,-2.3925,-2.3839,-2.3782,-2.3739,-2.3581,-2.3538,-2.3407,-2.3231,-2.2994,-2.2678,-2.237,-2.1935,-2.1458,-2.0845,-2.0232,-1.923,-1.8221,-1.6331,-1.5187,-1.4205,-1.3091,-1.1813,-1.0266,-0.835,-0.6538,-0.4772,-0.2779,-0.0769,0.1357,0.3497,0.5532,0.7664,0.9649,1.1717,-1.9381,-1.9548,-1.9932,-2.0177,-2.0285,-1.9658,-1.963,-2.0043,-1.9458,-1.9528,-2.0042,-2.0302,-2.07,-2.1158,-2.136,-2.1675,-2.2185,-2.2543,-2.303,-2.3839,-2.4247,-2.4708,-2.5216,-2.5674,-2.5297,-2.451,-2.4455,-2.3817,-2.2933,-2.2586,-2.2601,-2.2509,-2.2449,-2.2463,-2.2324,-2.2091,-2.1996,-2.1902,-2.1602,-2.1361,-2.1166,-2.0957,-2.0709,-2.0422,-1.9901,-1.9488,-1.9174,-1.8738,-1.8566,-1.8685,-1.8922,-1.8922,-1.8774,-1.8506,-1.8356,-1.829,-1.8302,-1.8344,-1.8506,-1.8721,-1.8881,-1.9186,-1.946,-1.972,-2.0144,-2.0409,-2.0723,-2.1118,-2.152,-2.1983,-2.2572,-2.2889,-2.3157,-2.3348,-2.3509,-2.364,-2.364,-2.3812,-2.394,-2.3982,-2.3882,-2.3839,-2.3782,-2.3696,-2.361,-2.3538,-2.3422,-2.3334,-2.3098,-2.2814,-2.2449,-2.2091,-2.1554,-2.097,-2.0283,-1.9374,-1.8012,-1.6826,-1.4984,-1.3082,-1.2104,-1.0905,-0.9599,-0.8142,-0.6542,-0.471,-0.2858,-0.0818,0.1264,0.3377,0.5507,0.7508,0.9537,1.1451,1.31,-1.8904,-1.9301,-1.9539,-1.9672,-1.9726,-1.9264,-1.915,-1.9303,-1.9036,-1.9121,-1.9649,-1.9911,-2.0377,-2.085,-2.1094,-2.1474,-2.1851,-2.2235,-2.2775,-2.3424,-2.3839,-2.4203,-2.4549,-2.4939,-2.475,-2.4026,-2.4075,-2.3434,-2.2527,-2.2263,-2.2231,-2.203,-2.2044,-2.1902,-2.1759,-2.152,-2.1361,-2.1202,-2.097,-2.0723,-2.0422,-2.022,-1.9798,-1.9384,-1.891,-1.8536,-1.8116,-1.7886,-1.7667,-1.7567,-1.7689,-1.7909,-1.8018,-1.7854,-1.77,-1.77,-1.77,-1.7744,-1.7897,-1.8073,-1.8302,-1.8441,-1.8827,-1.9146,-1.95,-1.985,-2.0207,-2.0673,-2.1118,-2.165,-2.2342,-2.2754,-2.2979,-2.3083,-2.3275,-2.3407,-2.3451,-2.3653,-2.3797,-2.3797,-2.3739,-2.3696,-2.3696,-2.361,-2.3566,-2.3494,-2.3187,-2.3083,-2.2844,-2.2526,-2.2123,-2.1712,-2.1118,-2.0459,-1.9722,-1.8466,-1.6736,-1.5216,-1.3485,-1.153,-0.992,-0.8642,-0.7302,-0.5944,-0.4707,-0.2716,-0.0802,0.1237,0.3313,0.5461,0.7496,0.9469,1.1334,1.3006,1.4482,-1.8434,-1.9134,-1.9079,-1.9173,-1.9127,-1.8722,-1.8533,-1.8613,-1.8428,-1.8664,-1.9131,-1.9715,-2.0053,-2.0388,-2.0914,-2.1158,-2.1526,-2.2049,-2.2653,-2.3017,-2.3318,-2.3688,-2.4015,-2.4138,-2.397,-2.3491,-2.3602,-2.2976,-2.2097,-2.1807,-2.1759,-2.1554,-2.152,-2.1375,-2.1131,-2.0934,-2.0723,-2.051,-2.0258,-2.0003,-1.9643,-1.9436,-1.8963,-1.8321,-1.7875,-1.76,-1.7224,-1.6955,-1.6797,-1.6591,-1.6457,-1.6616,-1.6899,-1.7134,-1.7078,-1.7155,-1.7088,-1.7134,-1.7245,-1.7479,-1.7645,-1.7744,-1.8182,-1.856,-1.8881,-1.9291,-1.9759,-2.022,-2.0723,-2.1375,-2.2077,-2.2495,-2.2754,-2.2904,-2.3083,-2.3231,-2.3275,-2.3436,-2.3523,-2.3566,-2.3566,-2.3523,-2.3523,-2.348,-2.3451,-2.3363,-2.3083,-2.2754,-2.2526,-2.2189,-2.1746,-2.1202,-2.0623,-1.9374,-1.8531,-1.7203,-1.5486,-1.3655,-1.192,-0.9894,-0.7886,-0.6254,-0.4957,-0.4238,-0.2856,-0.0798,0.1281,0.3405,0.5476,0.7517,0.9437,1.1338,1.2991,1.4561,1.5852,-1.8121,-1.8247,-1.8241,-1.8452,-1.8672,-1.799,-1.799,-1.8354,-1.8164,-1.8414,-1.8875,-1.9285,-1.9736,-2.0183,-2.0593,-2.0967,-2.14,-2.1913,-2.2297,-2.2543,-2.2848,-2.3198,-2.3564,-2.3296,-2.2929,-2.2802,-2.2896,-2.2481,-2.1716,-2.1471,-2.1313,-2.1118,-2.1082,-2.0885,-2.051,-2.0308,-2.0105,-1.9786,-1.9488,-1.9121,-1.8833,-1.8459,-1.8038,-1.7335,-1.6933,-1.6595,-1.6368,-1.5979,-1.5642,-1.5594,-1.5362,-1.5294,-1.5459,-1.5989,-1.6285,-1.641,-1.64,-1.6457,-1.6503,-1.6751,-1.692,-1.7088,-1.7523,-1.7952,-1.8278,-1.8762,-1.9279,-1.9914,-2.0573,-2.1229,-2.1807,-2.2217,-2.2477,-2.2721,-2.2888,-2.2994,-2.3112,-2.3231,-2.3319,-2.3319,-2.3304,-2.3348,-2.3392,-2.3348,-2.3216,-2.3083,-2.2814,-2.2449,-2.2123,-2.1732,-2.1202,-2.066,-2.0055,-1.8638,-1.7213,-1.5696,-1.4082,-1.2142,-1.0289,-0.8233,-0.6197,-0.404,-0.2661,-0.1592,-0.0399,0.1406,0.3489,0.5557,0.7601,0.9619,1.139,1.3165,1.4546,1.5922,1.7023,-1.7342,-1.7706,-1.7553,-1.7587,-1.7656,-1.7388,-1.7367,-1.7596,-1.7674,-1.793,-1.8405,-1.8942,-1.9407,-1.9857,-2.0248,-2.07,-2.1285,-2.1537,-2.1862,-2.2099,-2.2297,-2.2592,-2.299,-2.256,-2.2204,-2.1975,-2.1927,-2.1641,-2.105,-2.0871,-2.0772,-2.0573,-2.0472,-2.022,-1.9862,-1.9592,-1.9331,-1.9016,-1.8643,-1.8213,-1.7918,-1.7435,-1.6866,-1.6322,-1.5921,-1.5623,-1.5332,-1.504,-1.4697,-1.4529,-1.4341,-1.4282,-1.4341,-1.4579,-1.5108,-1.5468,-1.5584,-1.5642,-1.57,-1.5999,-1.6114,-1.64,-1.6853,-1.7245,-1.7667,-1.8213,-1.891,-1.9747,-2.0485,-2.1144,-2.1568,-2.1935,-2.2292,-2.2445,-2.2646,-2.2737,-2.2843,-2.2978,-2.3023,-2.3068,-2.3187,-2.326,-2.326,-2.3172,-2.3024,-2.2799,-2.2526,-2.217,-2.1759,-2.1202,-2.061,-1.9633,-1.885,-1.7203,-1.5628,-1.4087,-1.2401,-1.0477,-0.843,-0.6379,-0.4219,-0.1921,0.0,0.1455,0.2736,0.3969,0.5616,0.772,0.9695,1.1616,1.3148,1.4672,1.5974,1.7189,1.822,-1.6488,-1.7088,-1.6775,-1.675,-1.6782,-1.6676,-1.6706,-1.6875,-1.7185,-1.752,-1.793,-1.8607,-1.9142,-1.9528,-1.9987,-2.0442,-2.1042,-2.1094,-2.1348,-2.16,-2.1788,-2.2013,-2.2043,-2.1822,-2.142,-2.1039,-2.0607,-2.042,-2.0411,-2.0308,-2.0169,-2.0029,-1.9759,-1.95,-1.9186,-1.8869,-1.8506,-1.8116,-1.7722,-1.7335,-1.6842,-1.6255,-1.5728,-1.5167,-1.4991,-1.4638,-1.4341,-1.3983,-1.3734,-1.3563,-1.3381,-1.3329,-1.3199,-1.3199,-1.3563,-1.4163,-1.4469,-1.4765,-1.5001,-1.5177,-1.541,-1.571,-1.6171,-1.657,-1.7123,-1.7765,-1.862,-1.9683,-2.0422,-2.0947,-2.1277,-2.1759,-2.2044,-2.2231,-2.2385,-2.2569,-2.2615,-2.2706,-2.2766,-2.2888,-2.3053,-2.3098,-2.3053,-2.2904,-2.2709,-2.2388,-2.2109,-2.1636,-2.1166,-2.0547,-1.9825,-1.8507,-1.7291,-1.5618,-1.4037,-1.2437,-1.065,-0.8573,-0.6432,-0.4227,-0.1983,0.0265,0.212,0.3972,0.5602,0.688,0.8394,0.9787,1.1583,1.3319,1.4833,1.6096,1.7239,1.821,1.9156,-1.5814,-1.5936,-1.5897,-1.6085,-1.6276,-1.6074,-1.6131,-1.643,-1.676,-1.7176,-1.752,-1.8134,-1.8674,-1.9208,-1.9781,-2.0183,-2.0518,-2.0775,-2.0967,-2.1094,-2.1336,-2.1366,-2.1102,-2.0665,-2.0421,-2.0084,-1.9516,-1.9506,-1.9656,-1.9643,-1.9604,-1.9408,-1.9133,-1.8869,-1.8441,-1.805,-1.7667,-1.729,-1.6775,-1.6197,-1.5633,-1.504,-1.4638,-1.4273,-1.3914,-1.3623,-1.3329,-1.2964,-1.2658,-1.2589,-1.2351,-1.2228,-1.2166,-1.2166,-1.2166,-1.2589,-1.3199,-1.3992,-1.4231,-1.441,-1.4706,-1.5069,-1.5488,-1.5931,-1.6595,-1.7545,-1.8471,-1.9174,-1.9914,-2.0536,-2.0983,-2.1326,-2.165,-2.1888,-2.2091,-2.2278,-2.237,-2.2431,-2.2523,-2.2523,-2.2646,-2.2706,-2.2721,-2.2569,-2.2356,-2.203,-2.1698,-2.1153,-2.0383,-1.9658,-1.8484,-1.7048,-1.5521,-1.3909,-1.211,-1.0588,-0.8529,-0.6521,-0.4284,-0.2052,0.0198,0.2451,0.4432,0.6306,0.7987,0.9567,1.0853,1.2197,1.3662,1.4944,1.626,1.7357,1.8412,1.9299,2.0031,-1.4682,-1.5281,-1.5153,-1.5299,-1.5635,-1.5627,-1.5788,-1.607,-1.6421,-1.676,-1.7176,-1.7588,-1.8114,-1.8787,-1.9396,-1.9736,-1.9998,-2.0313,-2.0506,-2.0635,-2.0858,-2.0808,-2.045,-2.0051,-1.9611,-1.9177,-1.8744,-1.8511,-1.8709,-1.891,-1.8922,-1.8643,-1.8333,-1.8018,-1.7611,-1.7157,-1.6765,-1.6312,-1.568,-1.4982,-1.4392,-1.3983,-1.3631,-1.326,-1.2773,-1.2466,-1.222,-1.1919,-1.1553,-1.1421,-1.117,-1.1038,-1.0912,-1.0912,-1.0905,-1.117,-1.1531,-1.2274,-1.3078,-1.345,-1.3881,-1.43,-1.4775,-1.5342,-1.6244,-1.7268,-1.8213,-1.8738,-1.954,-2.0169,-2.0623,-2.0983,-2.1229,-2.152,-2.1698,-2.1841,-2.1983,-2.2184,-2.2231,-2.2231,-2.2184,-2.2152,-2.2152,-2.1996,-2.1779,-2.1479,-2.0979,-2.0333,-1.9322,-1.8132,-1.6781,-1.5235,-1.3723,-1.2096,-1.0263,-0.8446,-0.6205,-0.4151,-0.1908,0.0331,0.251,0.4635,0.662,0.8657,1.0528,1.2011,1.3284,1.4266,1.5283,1.646,1.7658,1.8546,1.942,2.0074,2.0869,-1.3557,-1.4416,-1.4455,-1.4705,-1.5062,-1.5292,-1.5505,-1.5726,-1.6079,-1.6421,-1.683,-1.7235,-1.7774,-1.8307,-1.8854,-1.9198,-1.933,-1.9715,-1.9922,-2.0118,-2.0222,-2.0028,-1.9638,-1.9239,-1.8814,-1.8487,-1.7991,-1.7755,-1.7744,-1.7831,-1.7875,-1.782,-1.7446,-1.7123,-1.6775,-1.6312,-1.5853,-1.5284,-1.4569,-1.3863,-1.339,-1.3025,-1.2597,-1.2166,-1.1732,-1.1358,-1.1101,-1.0787,-1.0478,-1.0288,-1.0091,-0.9894,-0.9761,-0.9761,-0.9831,-1.0028,-1.0338,-1.078,-1.1593,-1.222,-1.2911,-1.3519,-1.424,-1.4991,-1.5911,-1.6933,-1.7722,-1.8255,-1.9069,-1.9695,-2.0156,-2.0586,-2.0785,-2.1019,-2.1202,-2.1313,-2.141,-2.1602,-2.1684,-2.1636,-2.1541,-2.141,-2.141,-2.1348,-2.1188,-2.0881,-2.032,-1.9554,-1.812,-1.6634,-1.5081,-1.3502,-1.1767,-1.0089,-0.8095,-0.6181,-0.3957,-0.1713,0.0528,0.264,0.4817,0.6798,0.879,1.0808,1.2825,1.4222,1.5495,1.6145,1.6805,1.7888,1.887,1.9607,2.0344,2.0985,2.1553,-1.2613,-1.3141,-1.3848,-1.4346,-1.4641,-1.4872,-1.515,-1.5505,-1.5726,-1.6008,-1.6421,-1.7028,-1.751,-1.7842,-1.824,-1.8576,-1.8643,-1.9131,-1.9299,-1.9359,-1.9297,-1.9046,-1.8631,-1.8272,-1.7893,-1.7431,-1.7145,-1.6976,-1.6864,-1.6652,-1.6888,-1.7134,-1.6606,-1.6265,-1.5853,-1.5391,-1.4746,-1.4103,-1.3442,-1.2956,-1.2413,-1.1981,-1.1483,-1.1108,-1.073,-1.0351,-0.9964,-0.9709,-0.9518,-0.9332,-0.9005,-0.8865,-0.8731,-0.8731,-0.8737,-0.8935,-0.9262,-0.964,-1.0148,-1.1226,-1.2166,-1.2948,-1.3795,-1.4647,-1.54,-1.6312,-1.7045,-1.7722,-1.8471,-1.9133,-1.954,-1.9965,-2.022,-2.0472,-2.066,-2.0746,-2.0845,-2.1006,-2.1042,-2.1042,-2.0894,-2.0709,-2.0333,-2.0219,-2.0219,-1.9914,-1.8725,-1.7893,-1.6325,-1.4751,-1.3288,-1.166,-0.9907,-0.8063,-0.591,-0.3757,-0.1451,0.0854,0.3029,0.5065,0.7039,0.9035,1.0953,1.271,1.4629,1.6131,1.7531,1.8072,1.8709,1.9314,2.0074,2.0719,2.1353,2.199,2.2494,-1.2305,-1.2599,-1.3258,-1.392,-1.4497,-1.4641,-1.4856,-1.515,-1.5505,-1.5859,-1.6211,-1.6691,-1.7028,-1.7304,-1.7579,-1.791,-1.8046,-1.8586,-1.8568,-1.8551,-1.852,-1.8259,-1.7835,-1.7444,-1.7148,-1.6722,-1.6446,-1.6332,-1.6228,-1.5748,-1.5517,-1.5575,-1.5565,-1.54,-1.5001,-1.4392,-1.3683,-1.3078,-1.2474,-1.2042,-1.1421,-1.1052,-1.0541,-1.0085,-0.9658,-0.9332,-0.9005,-0.8613,-0.8361,-0.8166,-0.7912,-0.7772,-0.7637,-0.7637,-0.7702,-0.7902,-0.8231,-0.8484,-0.9069,-1.0218,-1.1358,-1.2421,-1.3268,-1.4043,-1.4765,-1.5613,-1.6301,-1.6989,-1.7722,-1.8375,-1.8857,-1.9226,-1.9552,-1.985,-2.0055,-2.0144,-2.0232,-2.0346,-2.0346,-2.0232,-2.0093,-1.9901,-1.9411,-1.898,-1.898,-1.8874,-1.7522,-1.6095,-1.4508,-1.28,-1.12,-0.9412,-0.759,-0.5503,-0.3359,-0.112,0.1123,0.3357,0.5531,0.749,0.9406,1.1291,1.3154,1.4836,1.6344,1.7795,1.903,1.9909,2.047,2.0632,2.1089,2.1791,2.2421,2.298,2.3339,-1.1929,-1.2224,-1.2753,-1.3411,-1.4145,-1.4425,-1.4649,-1.4864,-1.515,-1.5576,-1.6,-1.6272,-1.6482,-1.676,-1.7028,-1.7304,-1.7522,-1.7745,-1.7787,-1.7715,-1.7577,-1.7369,-1.694,-1.6604,-1.6311,-1.5972,-1.5768,-1.5652,-1.5468,-1.4961,-1.4597,-1.446,-1.4401,-1.4231,-1.4043,-1.3329,-1.2666,-1.2174,-1.1677,-1.1108,-1.0541,-1.004,-0.9652,-0.9134,-0.8694,-0.8242,-0.7907,-0.7577,-0.7251,-0.6999,-0.6806,-0.6609,-0.6539,-0.647,-0.6605,-0.6802,-0.7129,-0.7381,-0.8091,-0.9448,-1.0724,-1.1732,-1.2605,-1.3329,-1.4103,-1.4855,-1.5623,-1.6255,-1.6989,-1.76,-1.8093,-1.8483,-1.8804,-1.9056,-1.9279,-1.9423,-1.9475,-1.9527,-1.9475,-1.9423,-1.9174,-1.8845,-1.797,-1.7357,-1.6815,-1.6637,-1.5608,-1.4137,-1.2619,-1.0829,-0.8995,-0.7067,-0.513,-0.2834,-0.0596,0.1515,0.3617,0.5758,0.7871,0.9781,1.1681,1.3559,1.5239,1.6825,1.8239,1.958,2.0591,2.1436,2.1631,2.1604,2.2224,2.2895,2.3314,2.3813,2.4105,-1.1484,-1.2003,-1.2224,-1.282,-1.3564,-1.4137,-1.4505,-1.4641,-1.4864,-1.5292,-1.5726,-1.5867,-1.6,-1.6272,-1.6542,-1.6645,-1.6803,-1.6882,-1.6901,-1.6802,-1.6519,-1.6243,-1.5978,-1.5743,-1.5508,-1.5381,-1.5128,-1.4893,-1.4706,-1.424,-1.3761,-1.3329,-1.3147,-1.3025,-1.3199,-1.2536,-1.1864,-1.131,-1.0807,-1.0288,-0.9773,-0.921,-0.8689,-0.8226,-0.7777,-0.7326,-0.6863,-0.6531,-0.6203,-0.5947,-0.562,-0.5491,-0.5422,-0.5422,-0.5488,-0.5557,-0.6075,-0.6396,-0.6654,-0.8726,-1.0015,-1.0919,-1.1725,-1.2536,-1.3321,-1.4094,-1.4864,-1.5429,-1.6177,-1.6765,-1.7268,-1.7655,-1.7929,-1.8201,-1.8483,-1.859,-1.8643,-1.8697,-1.8632,-1.8405,-1.8093,-1.76,-1.6599,-1.5658,-1.477,-1.4182,-1.3425,-1.2127,-1.0546,-0.8609,-0.6625,-0.4522,-0.2438,-0.0197,0.2108,0.4077,0.6177,0.826,1.0229,1.2166,1.3864,1.5586,1.7246,1.8762,2.0014,2.1155,2.208,2.2955,2.3062,2.317,2.3505,2.406,2.4408,2.4637,2.4921,-1.1111,-1.1409,-1.1781,-1.2231,-1.2746,-1.3492,-1.4065,-1.4497,-1.4792,-1.5078,-1.5355,-1.5426,-1.5497,-1.578,-1.5956,-1.6061,-1.6011,-1.6287,-1.6241,-1.5614,-1.5476,-1.5294,-1.5068,-1.4937,-1.4706,-1.4597,-1.4428,-1.4181,-1.3863,-1.345,-1.3025,-1.2605,-1.2042,-1.1864,-1.1919,-1.149,-1.1059,-1.0618,-1.004,-0.946,-0.8941,-0.8361,-0.7772,-0.7233,-0.6789,-0.6338,-0.5811,-0.5477,-0.515,-0.4821,-0.4558,-0.4359,-0.4359,-0.4356,-0.4425,-0.4558,-0.5014,-0.5408,-0.6001,-0.7437,-0.8538,-0.9697,-1.0793,-1.1608,-1.2405,-1.313,-1.3846,-1.4492,-1.5196,-1.5728,-1.6312,-1.6652,-1.6922,-1.7335,-1.7556,-1.76,-1.771,-1.7765,-1.771,-1.7368,-1.6989,-1.5726,-1.4613,-1.3203,-1.23,-1.1164,-1.0305,-0.9562,-0.818,-0.6028,-0.3957,-0.1841,0.033,0.2566,0.4739,0.6681,0.8678,1.0698,1.2591,1.4477,1.6115,1.7651,1.9039,2.0476,2.1608,2.2623,2.339,2.4079,2.4553,2.4921,2.4978,2.5034,2.5147,2.5425,2.5646,-1.0663,-1.0887,-1.126,-1.1639,-1.2224,-1.3046,-1.3702,-1.4281,-1.4569,-1.4856,-1.4991,-1.5062,-1.5122,-1.5275,-1.5365,-1.5325,-1.5178,-1.5186,-1.5251,-1.4586,-1.455,-1.4423,-1.4252,-1.4172,-1.4052,-1.3881,-1.3709,-1.3459,-1.3086,-1.2658,-1.2166,-1.1545,-1.0982,-1.0667,-1.0598,-1.0415,-1.0231,-0.9722,-0.9145,-0.856,-0.8037,-0.7447,-0.685,-0.6326,-0.587,-0.5348,-0.4885,-0.4422,-0.4023,-0.3823,-0.3556,-0.3286,-0.3286,-0.3353,-0.342,-0.3553,-0.3887,-0.4417,-0.5209,-0.5873,-0.7046,-0.8146,-0.9512,-1.0598,-1.1406,-1.2074,-1.2818,-1.3476,-1.4085,-1.4619,-1.5216,-1.5555,-1.5958,-1.6312,-1.6539,-1.6574,-1.6585,-1.6698,-1.6461,-1.612,-1.5332,-1.4022,-1.2425,-1.0905,-0.958,-0.8419,-0.72,-0.6367,-0.552,-0.3486,-0.1252,0.0855,0.2954,0.5237,0.7314,0.9235,1.1188,1.318,1.4944,1.6717,1.8246,1.9718,2.095,2.2073,2.2984,2.3845,2.4486,2.5133,2.5577,2.592,2.6082,2.6082,2.5974,2.6136,2.6365,-1.0121,-1.049,-1.064,-1.1063,-1.1736,-1.2576,-1.3418,-1.4049,-1.4281,-1.4418,-1.453,-1.4657,-1.4692,-1.464,-1.4668,-1.4588,-1.4461,-1.4123,-1.4081,-1.3973,-1.3795,-1.3579,-1.3536,-1.3511,-1.3398,-1.3216,-1.3033,-1.2736,-1.2305,-1.1732,-1.1108,-1.0485,-0.997,-0.9582,-0.939,-0.9262,-0.9204,-0.8818,-0.8306,-0.7717,-0.7125,-0.6465,-0.5939,-0.5411,-0.4885,-0.4422,-0.3892,-0.3426,-0.3159,-0.2822,-0.2551,-0.2415,-0.2348,-0.2348,-0.235,-0.2484,-0.2887,-0.3553,-0.4154,-0.4752,-0.5547,-0.6654,-0.8091,-0.9308,-1.0332,-1.108,-1.1764,-1.2451,-1.3061,-1.3606,-1.4085,-1.4501,-1.4904,-1.5196,-1.5429,-1.5429,-1.5429,-1.5313,-1.508,-1.4542,-1.3665,-1.231,-1.0352,-0.8712,-0.6943,-0.5237,-0.3931,-0.2481,-0.1572,-0.0656,0.1447,0.3538,0.5632,0.783,0.9838,1.1697,1.3459,1.5367,1.7044,1.8773,2.0323,2.1602,2.2602,2.3508,2.4235,2.5007,2.5618,2.6122,2.6563,2.6841,2.6945,2.6841,2.6721,2.6811,2.6982,-0.9052,-0.9416,-0.9631,-0.9982,-1.0479,-1.1269,-1.2345,-1.3375,-1.3783,-1.3894,-1.3714,-1.3862,-1.3877,-1.358,-1.3811,-1.3727,-1.3632,-1.3548,-1.3476,-1.3364,-1.3169,-1.3058,-1.3033,-1.2972,-1.2797,-1.2552,-1.2305,-1.2058,-1.1365,-1.0793,-1.0091,-0.9396,-0.9075,-0.8554,-0.8226,-0.7967,-0.7967,-0.7777,-0.7326,-0.6802,-0.6207,-0.5543,-0.5014,-0.4483,-0.3956,-0.3424,-0.2891,-0.2488,-0.2151,-0.1679,-0.1411,-0.1208,-0.1074,-0.1208,-0.1344,-0.168,-0.2149,-0.2684,-0.3155,-0.3756,-0.4486,-0.5209,-0.6392,-0.7767,-0.8988,-1.0015,-1.0703,-1.1399,-1.1965,-1.2451,-1.2931,-1.3356,-1.3708,-1.3948,-1.4127,-1.4186,-1.4118,-1.393,-1.358,-1.2501,-1.1697,-0.9881,-0.794,-0.6104,-0.4341,-0.2439,-0.066,0.092,0.21,0.2892,0.4189,0.6213,0.8196,1.0325,1.2166,1.4072,1.5743,1.7498,1.9136,2.0646,2.1963,2.3166,2.4076,2.4885,2.5522,2.6108,2.6683,2.71,2.7342,2.756,2.766,2.7509,2.7458,2.7494,2.7595,-0.8292,-0.8649,-0.8855,-0.9276,-0.9834,-1.0333,-1.1166,-1.2152,-1.2828,-1.2994,-1.291,-1.3179,-1.3135,-1.2912,-1.3049,-1.3016,-1.2767,-1.2846,-1.2797,-1.2701,-1.2674,-1.249,-1.2428,-1.2367,-1.2112,-1.1872,-1.156,-1.124,-1.0548,-0.9843,-0.9139,-0.849,-0.8172,-0.7707,-0.7251,-0.6859,-0.6527,-0.6465,-0.6207,-0.5881,-0.5282,-0.4683,-0.4082,-0.3485,-0.2956,-0.2421,-0.1951,-0.1547,-0.1143,-0.0672,-0.047,-0.0269,-0.0202,-0.0269,-0.047,-0.0806,-0.1209,-0.1679,-0.2149,-0.2755,-0.3487,-0.4217,-0.4945,-0.6067,-0.7377,-0.8479,-0.9384,-1.0218,-1.0724,-1.1219,-1.171,-1.2143,-1.2451,-1.2757,-1.281,-1.287,-1.2679,-1.2541,-1.1658,-1.0517,-0.8972,-0.7223,-0.5404,-0.357,-0.1651,0.0395,0.2428,0.4251,0.5294,0.5952,0.7163,0.8834,1.0739,1.2676,1.457,1.6345,1.7977,1.954,2.1047,2.247,2.3731,2.4572,2.5437,2.609,2.6745,2.7203,2.7524,2.771,2.7944,2.8155,2.835,2.8286,2.8189,2.8122,2.8204,-0.7667,-0.8014,-0.8238,-0.8757,-0.9425,-0.9668,-0.9967,-1.0347,-1.1369,-1.1941,-1.2016,-1.2504,-1.2513,-1.218,-1.2322,-1.2315,-1.214,-1.2196,-1.2204,-1.2058,-1.212,-1.1996,-1.1802,-1.1677,-1.149,-1.1115,-1.0737,-1.0421,-0.9722,-0.8952,-0.8231,-0.7642,-0.7256,-0.6732,-0.6264,-0.5807,-0.5411,-0.4948,-0.4951,-0.4755,-0.4356,-0.3754,-0.3086,-0.2618,-0.2083,-0.1547,-0.1076,-0.0672,-0.0269,0.0067,0.0269,0.047,0.0538,0.047,0.0336,0.0067,-0.0269,-0.0739,-0.1209,-0.1814,-0.2485,-0.3286,-0.402,-0.4815,-0.58,-0.7251,-0.8355,-0.9005,-0.9506,-0.9952,-1.0445,-1.069,-1.0933,-1.119,-1.1253,-1.1246,-1.1051,-1.0461,-0.9289,-0.8073,-0.6436,-0.462,-0.2699,-0.086,0.1117,0.3228,0.5247,0.7264,0.8723,0.9319,1.0385,1.1712,1.3278,1.5134,1.6877,1.8654,2.0175,2.1707,2.2998,2.4094,2.5134,2.5909,2.6649,2.7159,2.7615,2.791,2.822,2.8398,2.8574,2.8716,2.8904,2.8997,2.8967,2.8889,2.8795,-0.6806,-0.7074,-0.7541,-0.8006,-0.8409,-0.853,-0.881,-0.9205,-0.9521,-1.0186,-1.0876,-1.1348,-1.1537,-1.1298,-1.1524,-1.157,-1.1527,-1.1622,-1.1692,-1.1685,-1.1685,-1.1428,-1.1303,-1.1115,-1.0863,-1.0421,-0.9977,-0.946,-0.863,-0.7917,-0.7321,-0.6724,-0.6272,-0.5745,-0.5213,-0.4749,-0.4287,-0.3623,-0.342,-0.342,-0.3155,-0.2686,-0.2084,-0.1613,-0.1143,-0.0605,-0.0202,0.0134,0.0672,0.1076,0.121,0.1412,0.1547,0.1345,0.1211,0.0941,0.054,0.0136,-0.0339,-0.0814,-0.1494,-0.2162,-0.2833,-0.3493,-0.455,-0.6075,-0.7199,-0.7717,-0.8226,-0.8672,-0.8988,-0.9175,-0.9296,-0.9488,-0.9615,-0.9488,-0.9354,-0.8168,-0.6928,-0.5411,-0.3772,-0.1983,-0.0066,0.1915,0.3951,0.5967,0.7958,0.9995,1.2009,1.3124,1.3917,1.5074,1.593,1.7593,1.9287,2.0702,2.2168,2.332,2.4532,2.5568,2.6491,2.7115,2.7685,2.7981,2.8352,2.8622,2.8826,2.9013,2.9152,2.9319,2.9454,2.9589,2.9633,2.9589,2.947,-0.6152,-0.6474,-0.7003,-0.74,-0.7661,-0.7847,-0.8047,-0.8312,-0.8565,-0.8961,-0.9604,-1.0263,-1.0637,-1.0491,-1.0807,-1.0989,-1.0996,-1.1122,-1.1129,-1.1122,-1.1052,-1.08,-1.0674,-1.0485,-1.004,-0.9594,-0.9005,-0.8361,-0.7461,-0.6863,-0.6334,-0.5738,-0.5213,-0.4686,-0.4154,-0.3754,-0.322,-0.2485,-0.2014,-0.1813,-0.1813,-0.1478,-0.1076,-0.0672,-0.0202,0.0269,0.0672,0.1008,0.1344,0.1883,0.2084,0.2151,0.2227,0.2179,0.2054,0.179,0.1385,0.0976,0.0627,0.0069,-0.0556,-0.1179,-0.1878,-0.2586,-0.3011,-0.4461,-0.545,-0.6033,-0.6609,-0.7111,-0.7363,-0.7548,-0.7608,-0.7802,-0.7673,-0.7478,-0.6677,-0.5552,-0.4232,-0.2845,-0.1125,0.066,0.2652,0.4818,0.6828,0.8885,1.0846,1.2766,1.4781,1.6466,1.7381,1.8276,1.908,1.9987,2.1469,2.2724,2.3933,2.5059,2.5983,2.6725,2.752,2.8128,2.8685,2.8873,2.9058,2.9257,2.9454,2.9633,2.9705,2.9865,3.0011,3.0156,3.0199,3.0284,3.0225,-0.562,-0.6079,-0.6609,-0.6946,-0.7138,-0.733,-0.7526,-0.7661,-0.7982,-0.8107,-0.8322,-0.9297,-0.9722,-0.9983,-1.0238,-1.0364,-1.0491,-1.0421,-1.0428,-1.0428,-1.0301,-1.0104,-0.9843,-0.9524,-0.9139,-0.8554,-0.7902,-0.7251,-0.6539,-0.6009,-0.5411,-0.4683,-0.4217,-0.3754,-0.3088,-0.2619,-0.2082,-0.1411,-0.0806,-0.0269,-0.0202,-0.0336,-0.0067,0.0202,0.0605,0.1008,0.1479,0.1816,0.2018,0.243,0.2842,0.292,0.2944,0.2913,0.2874,0.2683,0.2211,0.1943,0.1591,0.1009,0.0434,-0.0217,-0.0946,-0.1527,-0.1962,-0.2585,-0.3578,-0.4224,-0.4772,-0.5413,-0.5673,-0.5796,-0.5926,-0.5852,-0.5589,-0.5183,-0.4102,-0.2958,-0.1613,-0.0202,0.1608,0.3416,0.5509,0.7626,0.967,1.1747,1.3677,1.5666,1.7482,1.8862,2.0088,2.1088,2.2051,2.3005,2.3781,2.4557,2.555,2.6308,2.7164,2.7838,2.8432,2.8966,2.9393,2.9589,2.9766,2.9941,3.0097,3.0267,3.0351,3.0402,3.0601,3.074,3.0781,3.0861,3.0965,-0.5223,-0.5745,-0.6284,-0.6486,-0.6613,-0.6876,-0.7138,-0.7265,-0.7335,-0.7531,-0.7857,-0.8177,-0.863,-0.9215,-0.9524,-0.9716,-0.9722,-0.9722,-0.9716,-0.9646,-0.953,-0.9338,-0.9075,-0.8678,-0.8172,-0.7517,-0.6798,-0.6145,-0.555,-0.5087,-0.4486,-0.3751,-0.3218,-0.2618,-0.1947,-0.1478,-0.094,-0.0269,0.0202,0.0739,0.0941,0.0806,0.0739,0.1008,0.1277,0.1748,0.2085,0.242,0.2688,0.3042,0.3425,0.3591,0.3639,0.3695,0.3669,0.3479,0.3074,0.2793,0.2433,0.1917,0.1329,0.0811,0.0221,-0.0221,-0.0661,-0.0954,-0.1663,-0.195,-0.2641,-0.3626,-0.397,-0.3961,-0.4024,-0.3668,-0.3459,-0.2606,-0.162,-0.0351,0.0984,0.2661,0.4535,0.6466,0.8456,1.0514,1.2467,1.4418,1.6181,1.8101,1.972,2.1186,2.2623,2.3668,2.4641,2.5256,2.5706,2.6145,2.6959,2.7674,2.824,2.8795,2.9271,2.9722,3.0044,3.0199,3.0368,3.0576,3.074,3.0885,3.0948,3.105,3.1218,3.1351,3.1389,3.1449,3.1507]}]]